     2.10           OBSERVATION DATA    G (GPS)             RINEX VERSION / TYPE
GPSBase 2.74 3724 09-Jan-14 23:59:50                        PGM / RUN BY / DATE
ZIMM                                                        MARKER NAME
14001M004                                                   MARKER NUMBER
GPSBASE SWISSTOPO                                           OBSERVER / AGENCY
4526253099 TRIMBLE NETRS Nav 1.20                           REC # / TYPE / VERS
     0                                                      RCV CLOCK OFFS APPL
99390 TRM29659.00 NONE                                      ANT # / TYPE
  4331297.3390   567555.6380  4633133.7170                  APPROX POSITION XYZ
        0.0000        0.0000        0.0000                  ANTENNA: DELTA H/E/N
     1     1     0                                          WAVELENGTH FACT L1/2
     8    C1    P2    L1    L2    S1    S2    D1    D2      # / TYPES OF OBSERV
    30.000                                                  INTERVAL
  2014     1    10     0     0    0.0000000     GPS         TIME OF FIRST OBS
                                                            END OF HEADER
 14  1 10  0  0  0.0000000  0  8G31G25G14G12G04G02G24G29
  23937402.522    23937395.212    -5659791.22906  -4341344.88846        44.000
        26.000        3249.327        2531.943
  20536828.408    20536824.830   -21792884.77508 -16954329.36148        54.000
        46.000        1054.693         821.838
  21945401.809    21945394.913   -15864303.00207 -12307275.87247        49.000
        38.000        -787.754        -613.834
  20626294.762    20626288.627   -22860722.27508 -17778052.64148        53.000
        46.000       -1347.270       -1049.821
  23606628.326    23606622.453    -8045042.71505  -6265054.42746        40.000
        24.000       -1276.655        -994.796
  22859862.093    22859853.807   -12384250.22406  -9645721.39547        46.000
        34.000        1297.769        1011.248
  22644752.731    22644750.708   -12207889.76306  -9470914.75647        46.000
        36.000       -3153.403       -2457.197
  21712108.468    21712103.185   -16663555.55607 -13144944.97147        49.000
        40.000        2893.907        2254.992
 14  1 10  0  0 30.0000000  0  8G31G25G14G12G04G02G24G29
  23918863.415    23918856.065    -5757214.92105  -4417259.46146        42.000
        27.000        3245.577        2529.021
  20530838.450    20530834.839   -21824361.29708 -16978856.52748        53.000
        46.000        1043.839         813.381
  21949954.336    21949948.139   -15840378.06807 -12288633.08647        48.000
        37.000        -807.133        -628.934
  20634014.150    20634007.431   -22820156.57408 -17746443.00648        54.000
        46.000       -1357.147       -1057.517
  23613971.780    23613966.880    -8006448.09705  -6234980.70846        42.000
        24.000       -1296.219       -1010.041
  22852496.968    22852488.465   -12422953.53606  -9675879.78647        46.000
        34.000        1282.433         999.298
  22662780.288    22662777.822   -12113153.34206  -9397094.21847        45.000
        35.000       -3162.303       -2464.132
  21695621.594    21695616.278   -16750193.27507 -13212454.88847        49.000
        42.000        2881.910        2245.645
 14  1 10  0  1  0.0000000  0  8G31G25G14G12G04G02G24G29
  23900345.625    23900339.347    -5854523.30606  -4493084.14046        43.000
        27.000        3241.760        2526.047
  20524910.456    20524906.667   -21855513.59108 -17003131.04848        54.000
        47.000        1033.161         805.061
  21954617.160    21954611.126   -15815873.97807 -12269539.01047        48.000
        37.000        -826.243        -643.826
  20641789.701    20641782.924   -22779297.46008 -17714604.75048        54.000
        46.000       -1366.687       -1064.951
  23621427.443    23621422.267    -7967270.80405  -6204452.95646        42.000
        27.000       -1315.393       -1024.982
  22845219.209    22845211.205   -12461198.92007  -9705681.35347        48.000
        34.000        1267.404         987.588
  22680858.406    22680855.553   -12018152.47406  -9323067.61447        46.000
        35.000       -3170.960       -2470.878
  21679204.015    21679198.361   -16836469.69907 -13279683.27447        51.000
        41.000        2870.031        2236.388
 14  1 10  0  1 30.0000000  0  8G31G25G14G12G04G02G24G29
  23881851.182    23881843.778    -5951715.95006  -4568818.69846        43.000
        25.000        3237.879        2523.022
  20519043.863    20519040.221   -21886342.98208 -17027153.95948        54.000
        47.000        1022.186         796.508
  21959390.363    21959383.718   -15790793.23206 -12249995.59347        47.000
        36.000        -845.695        -658.983
  20649620.395    20649613.868   -22738146.49508 -17682539.07248        54.000
        46.000       -1376.540       -1072.629
  23628993.375    23628987.680    -7927513.71105  -6173473.42346        40.000
        25.000       -1334.924       -1040.200
  22838028.570    22838020.357   -12498986.44806  -9735126.16547        47.000
        35.000        1251.878         975.489
  22698986.402    22698983.146   -11922889.90406  -9248837.07647        46.000
        35.000       -3179.797       -2477.764
  21662854.876    21662849.861   -16922384.33007 -13346629.73747        50.000
        41.000        2857.752        2226.820
 14  1 10  0  2  0.0000000  0  8G31G25G14G12G04G02G24G29
  23863377.991    23863371.206    -6048791.07706  -4644461.66446        43.000
        27.000        3233.729        2519.789
  20513238.618    20513234.749   -21916849.41108 -17050925.19948        54.000
        46.000        1011.449         788.142
  21964272.241    21964265.704   -15765136.79307 -12230003.58647        48.000
        36.000        -864.889        -673.939
  20657506.386    20657499.749   -22696705.37708 -17650247.29748        54.000
        46.000       -1386.231       -1080.180
  23636668.537    23636663.478    -7887178.42506  -6142043.32346        44.000
        23.000       -1354.195       -1055.217
  22830925.001    22830916.817   -12536314.51906  -9764212.95747        47.000
        34.000        1236.557         963.551
  22717163.950    22717161.337   -11827367.91406  -9174404.41847        46.000
        35.000       -3188.443       -2484.501
  21646574.889    21646569.391   -17007935.78107 -13413293.24447        51.000
        41.000        2845.604        2217.354
 14  1 10  0  2 30.0000000  0  8G31G25G14G12G04G02G24G29
  23844928.266    23844921.011    -6145746.31906  -4720011.19546        45.000
        29.000        3229.819        2516.742
  20507495.085    20507491.392   -21947031.98508 -17074444.08648        54.000
        46.000        1000.688         779.757
  21969263.891    21969257.552   -15738905.83006 -12209563.89147        47.000
        36.000        -883.941        -688.785
  20665447.545    20665440.990   -22654974.26408 -17617729.55348        54.000
        46.000       -1395.962       -1087.763
  23644454.386    23644447.920    -7846265.53206  -6110163.14846        44.000
        23.000       -1373.438       -1070.211
  22823909.281    22823901.316   -12573180.95906  -9792940.03047        46.000
        35.000        1221.113         951.517
  22735390.095    22735388.101   -11731587.35906  -9099770.27947        46.000
        36.000       -3196.978       -2491.152
  21630364.435    21630358.896   -17093121.97007 -13479672.10547        51.000
        41.000        2833.413        2207.854
 14  1 10  0  3  0.0000000  0  8G31G25G14G12G04G02G24G29
  23826501.461    23826494.500    -6242580.20906  -4795466.18446        44.000
        28.000        3225.591        2513.448
  20501813.441    20501809.493   -21976890.91108 -17097710.77148        54.000
        46.000         989.751         771.235
  21974364.068    21974357.971   -15712101.83906 -12188677.69247        46.000
        37.000        -903.149        -703.753
  20673443.570    20673436.815   -22612954.39208 -17584986.79348        55.000
        46.000       -1405.561       -1095.243
  23652349.228    23652343.012    -7804777.10006  -6077834.48846        44.000
        23.000       -1392.720       -1085.236
  22816982.138    22816973.814   -12609584.53706  -9821306.43247        47.000
        35.000        1205.640         939.460
  22753665.795    22753662.729   -11635550.19406  -9024936.18347        46.000
        35.000       -3205.625       -2497.890
  21614224.020    21614218.805   -17177941.42807 -13545765.19747        51.000
        42.000        2821.074        2198.240
 14  1 10  0  3 30.0000000  0  8G31G25G14G12G04G02G24G29
  23808098.008    23808091.412    -6339290.19906  -4870824.61446        44.000
        28.000        3221.586        2510.326
  20496193.350    20496188.916   -22006424.99808 -17120724.33748        53.000
        46.000         978.978         762.840
  21979574.315    21979567.342   -15684725.14906 -12167345.23647        47.000
        37.000        -922.072        -718.497
  20681494.471    20681488.090   -22570645.40108 -17552018.75948        54.000
        46.000       -1415.158       -1102.720
  23660353.243    23660347.127    -7762713.25406  -6045057.44746        43.000
        26.000       -1411.686       -1100.015
  22810144.022    22810135.681   -12645522.95106  -9849310.37447        47.000
        34.000        1190.126         927.371
  22771989.273    22771986.471   -11539257.62906  -8949903.05547        45.000
        35.000       -3214.098       -2504.492
  21598153.805    21598148.752   -17262391.48907 -13611570.44047        51.000
        42.000        2808.754        2188.639
 14  1 10  0  4  0.0000000  0  8G31G25G14G12G04G02G24G29
  23789718.079    23789712.072    -6435875.17506  -4946085.63346        43.000
        28.000        3217.423        2507.083
  20490634.455    20490630.930   -22035635.27808 -17143485.59048        53.000
        47.000         968.473         754.654
  21984892.019    21984885.820   -15656778.40906 -12145568.56947        47.000
        36.000        -940.819        -733.106
  20689600.676    20689593.937   -22528049.80208 -17518827.39248        55.000
        46.000       -1424.432       -1109.947
  23668466.999    23668460.770    -7720076.85806  -6011834.27746        43.000
        23.000       -1430.633       -1114.779
  22803393.023    22803384.605   -12680995.46706  -9876951.27647        47.000
        34.000        1174.801         915.429
  22790361.503    22790358.534   -11442711.91306  -8874672.69247        46.000
        35.000       -3222.181       -2510.790
  21582153.521    21582148.213   -17346471.81607 -13677087.54647        51.000
        41.000        2796.642        2179.202
 14  1 10  0  4 30.0000000  0  8G31G25G14G12G04G02G24G29
  23771363.502    23771356.432    -6532332.55206  -5021247.24546        44.000
        28.000        3213.112        2503.724
  20485137.701    20485134.281   -22064520.46908 -17165993.52548        53.000
        46.000         957.400         746.026
  21990318.739    21990312.216   -15628261.52506 -12123347.65047        46.000
        37.000        -960.047        -748.088
  20697761.020    20697753.990   -22485167.21208 -17485412.40648        55.000
        46.000       -1434.158       -1117.526
  23676688.750    23676683.430    -7676868.22006  -5978165.18246        43.000
        23.000       -1449.798       -1129.713
  22796732.331    22796723.403   -12715999.80506  -9904227.36947        47.000
        34.000        1158.991         903.110
  22808781.516    22808779.233   -11345914.13506  -8799245.91347        47.000
        35.000       -3230.794       -2517.501
  21566224.697    21566219.410   -17430179.96107 -13742314.65447        51.000
        42.000        2784.074        2169.409
 14  1 10  0  5  0.0000000  0  8G31G25G14G12G04G02G24G29
  23753032.521    23753026.102    -6628660.29406  -5096307.81846        43.000
        28.000        3208.892        2500.435
  20479702.962    20479698.976   -22093080.64208 -17188248.20648        53.000
        46.000         946.699         737.688
  21995853.578    21995846.784   -15599176.54906 -12100684.05847        47.000
        37.000        -978.857        -762.746
  20705975.484    20705968.736   -22441998.80708 -17451774.69448        54.000
        46.000       -1443.603       -1124.886
  23685020.289    23685014.734    -7633089.14306  -5944051.61146        44.000
        26.000       -1468.725       -1144.461
  22790160.221    22790151.699   -12750535.35106  -9931138.16347        47.000
        34.000        1143.423         890.979
  22827249.532    22827246.399   -11248866.27006  -8723624.25647        46.000
        34.000       -3238.921       -2523.834
  21550366.548    21550361.132   -17513514.16307 -13807250.35147        51.000
        41.000        2771.719        2159.781
 14  1 10  0  5 30.0000000  0  8G31G25G14G12G04G02G24G29
  23734726.753    23734720.441    -6724856.60706  -5171265.96446        43.000
        28.000        3204.366        2496.908
  20474330.190    20474326.596   -22121314.96807 -17210248.98648        52.000
        46.000         935.709         729.124
  22001496.314    22001489.999   -15569523.95506 -12077578.14247        47.000
        36.000        -997.866        -777.558
  20714244.646    20714238.291   -22398544.15508 -17417913.93948        54.000
        46.000       -1453.247       -1132.400
  23693459.925    23693453.976    -7588740.60106  -5909494.31546        43.000
        25.000       -1487.724       -1159.266
  22783677.840    22783669.211   -12784599.30306  -9957681.48247        47.000
        34.000        1127.608         878.656
  22845764.633    22845761.564   -11151569.20906  -8647808.42647        45.000
        34.000       -3247.343       -2530.397
  21534580.237    21534574.876   -17596472.66207 -13871893.30547        52.000
        42.000        2758.975        2149.851
 14  1 10  0  6  0.0000000  0  8G31G25G14G12G04G02G24G29
  23716446.635    23716439.797    -6820920.33206  -5246120.83446        44.000
        28.000        3200.050        2493.546
  20469019.268    20469015.298   -22149224.21608 -17231996.44848        54.000
        46.000         924.914         720.712
  22007246.252    22007240.270   -15539306.28607 -12054031.92347        48.000
        36.000       -1016.664        -792.205
  20722567.868    20722560.937   -22354805.89808 -17383832.18348        53.000
        46.000       -1462.675       -1139.746
  23702007.572    23702001.219    -7543825.08905  -5874495.21446        41.000
        27.000       -1506.439       -1173.849
  22777285.461    22777277.036   -12818191.39206  -9983857.11647        47.000
        34.000        1111.862         866.386
  22864326.098    22864324.068   -11054025.60306  -8571800.45847        46.000
        33.000       -3255.482       -2536.739
  21518865.452    21518859.894   -17679054.72007 -13936242.89847        52.000
        42.000        2746.520        2140.146
 14  1 10  0  6 30.0000000  0  8G31G25G14G12G04G02G24G29
  23698192.201    23698185.852    -6916848.19006  -5320869.82746        44.000
        29.000        3195.399        2489.922
  20463770.433    20463766.798   -22176806.94408 -17253489.48748        53.000
        47.000         914.022         712.225
  22013104.265    22013098.059   -15508523.79307 -12030045.56847        48.000
        36.000       -1035.421        -806.822
  20730945.195    20730938.233   -22310783.11408 -17349528.72348        55.000
        46.000       -1472.135       -1147.118
  23710662.089    23710656.095    -7498342.74506  -5839054.42346        43.000
        25.000       -1525.543       -1188.735
  22770983.465    22770974.843   -12851309.23906 -10009663.20947        47.000
        34.000        1095.990         854.018
  22882935.160    22882932.374   -10956236.23306  -8495600.98247        44.000
        34.000       -3263.683       -2543.130
  21503222.466    21503217.413   -17761257.21707 -14000296.77047        51.000
        42.000        2733.783        2130.220
 14  1 10  0  7  0.0000000  0  8G31G25G14G12G04G02G24G29
  23679963.980    23679957.450    -7012638.87506  -5395511.89346        44.000
        29.000        3190.619        2486.196
  20458583.690    20458580.053   -22204063.43208 -17274728.32148        53.000
        47.000         903.016         703.649
  22019069.259    22019062.639   -15477178.24606 -12005620.48947        47.000
        37.000       -1054.288        -821.523
  20739375.995    20739369.436   -22266477.63208 -17315004.97548        55.000
        46.000       -1481.564       -1154.465
  23719423.655    23719418.284    -7452295.75206  -5803173.65246        44.000
        23.000       -1544.337       -1203.380
  22764771.666    22764763.606   -12883951.49806 -10035098.72147        47.000
        35.000        1079.994         841.554
  22901590.088    22901587.544   -10858203.15306  -8419211.60847        45.000
        34.000       -3271.833       -2549.480
  21487652.349    21487646.898   -17843079.50707 -14064054.39147        51.000
        42.000        2720.912        2120.191
 14  1 10  0  7 30.0000000  0  8G31G25G14G12G04G02G24G29
  23661762.068    23661754.301    -7108290.35506  -5470045.54546        44.000
        28.000        3186.077        2482.657
  20453459.116    20453455.229   -22230993.35408 -17295712.69048        53.000
        47.000         892.191         695.213
  22025141.395    22025134.761   -15445271.05906 -11980757.77247        47.000
        36.000       -1072.839        -835.978
  20747860.729    20747854.307   -22221890.41008 -17280261.69248        53.000
        46.000       -1490.876       -1161.721
  23728293.649    23728287.421    -7405685.56204  -5766854.01846        39.000
        22.000       -1563.068       -1217.975
  22758651.129    22758643.033   -12916116.76106 -10060162.54247        47.000
        35.000        1064.295         829.321
  22920291.300    22920288.398   -10759928.22706  -8342633.75047        45.000
        33.000       -3279.806       -2555.693
  21472154.965    21472149.398   -17924519.95107 -14127514.49147        52.000
        42.000        2708.348        2110.401
 14  1 10  0  8  0.0000000  0  8G31G25G14G12G04G02G24G29
  23643587.486    23643580.586    -7203800.25006  -5544468.84446        44.000
        30.000        3181.268        2478.910
  20448396.554    20448393.093   -22257596.06808 -17316442.08348        54.000
        47.000         881.283         686.714
  22031319.504    22031312.836   -15412803.43907 -11955458.34947        48.000
        37.000       -1091.569        -850.573
  20756399.350    20756392.603   -22177020.88108 -17245298.43048        54.000
        46.000       -1500.270       -1169.042
  23737270.161    23737263.867    -7358513.32505  -5730096.42446        42.000
        22.000       -1581.799       -1232.570
  22752621.140    22752613.170   -12947803.18606 -10084853.23447        47.000
        35.000        1048.197         816.777
  22939037.939    22939035.507   -10661412.67306  -8265868.40247        45.000
        34.000       -3287.760       -2561.891
  21456730.251    21456724.961   -18005576.27207 -14190675.23447        51.000
        42.000        2695.482        2100.375
 14  1 10  0  8 30.0000000  0  8G31G25G14G12G04G02G24G29
  23625439.397    23625433.427    -7299166.91506  -5618780.51046        43.000
        29.000        3176.586        2475.262
  20443396.537    20443393.039   -22283871.60108 -17336916.52048        53.000
        47.000         870.468         678.287
  22037604.074    22037597.463   -15379776.97407 -11929723.48147        48.000
        36.000       -1110.074        -864.992
  20764990.759    20764984.062   -22131870.43308 -17210116.26248        54.000
        45.000       -1509.576       -1176.293
  23746353.359    23746347.102    -7310780.97405  -5692902.39246        42.000
        22.000       -1600.342       -1247.020
  22746682.937    22746674.614   -12979009.71806 -10109169.99447        46.000
        34.000        1032.353         804.431
  22957830.769    22957827.926   -10562658.30306  -8188916.98447        45.000
        33.000       -3295.650       -2568.039
  21441379.093    21441373.881   -18086247.00107 -14253535.51647        51.000
        42.000        2682.675        2090.396
 14  1 10  0  9  0.0000000  0  8G31G25G14G12G04G02G24G29
  23607319.498    23607312.282    -7394388.15306  -5692978.88146        44.000
        30.000        3171.577        2471.359
  20438459.071    20438454.755   -22309819.69008 -17357135.81748        54.000
        47.000         859.394         669.658
  22043994.838    22043988.579   -15346193.17506 -11903554.32447        47.000
        36.000       -1128.731        -879.531
  20773636.267    20773629.525   -22086440.15908 -17174716.05648        54.000
        46.000       -1519.048       -1183.674
  23755542.195    23755536.881    -7262490.08905  -5655273.11146        41.000
        22.000       -1618.990       -1261.550
  22740836.154    22740827.711   -13009734.99106 -10133111.74647        47.000
        35.000        1016.157         791.810
  22976668.576    22976665.449   -10463666.59506  -8111780.60647        44.000
        33.000       -3303.726       -2574.332
  21426101.526    21426096.043   -18166530.97107 -14316094.40447        52.000
        42.000        2669.624        2080.226
 14  1 10  0  9 30.0000000  0  8G31G25G14G12G04G02G24G29
  23589226.707    23589220.825    -7489462.27406  -5767062.62046        44.000
        29.000        3166.795        2467.632
  20433583.731    20433579.957   -22335440.03808 -17377099.72148        54.000
        47.000         848.650         661.286
  22050491.469    22050484.906   -15312053.57107 -11876952.03947        48.000
        36.000       -1147.204        -893.926
  20782334.296    20782327.721   -22040730.88908 -17139098.45348        54.000
        46.000       -1528.215       -1190.817
  23764838.470    23764832.918    -7213642.11804  -5617209.74446        39.000
        23.000       -1637.434       -1275.923
  22735081.121    22735072.544   -13039977.51006 -10156677.33947        47.000
        34.000        1000.105         779.303
  22995550.369    22995547.288   -10364439.67706  -8034460.95647        44.000
        33.000       -3311.370       -2580.288
  21410897.622    21410892.122   -18246426.59007 -14378350.66847        52.000
        42.000        2656.731        2070.180
 14  1 10  0 10  0.0000000  0  8G31G25G14G12G04G02G24G29
  23571164.063    23571157.796    -7584387.02406  -5841029.92546        45.000
        31.000        3161.554        2463.549
  20428770.590    20428766.789   -22360732.02108 -17396807.76348        54.000
        47.000         837.482         652.583
  22057093.661    22057086.953   -15277359.16407 -11849917.46247        48.000
        36.000       -1165.838        -908.445
  20791085.652    20791078.697   -21994742.72808 -17103263.52848        53.000
        46.000       -1537.733       -1198.233
  23774239.508    23774233.746    -7164238.46104  -5578713.37146        39.000
        23.000       -1656.244       -1290.579
  22729418.764    22729409.624   -13069735.74206 -10179865.54647        47.000
        34.000         983.786         766.586
  23014476.932    23014474.809   -10264978.67206  -7956958.89047        44.000
        33.000       -3319.422       -2586.563
  21395768.642    21395762.925   -18325931.84407 -14440302.79047        52.000
        43.000        2643.542        2059.903
 14  1 10  0 10 30.0000000  0  8G31G25G14G12G04G02G24G29
  23553128.933    23553122.106    -7679160.46606  -5914879.36946        45.000
        29.000        3156.512        2459.620
  20424020.140    20424016.605   -22385695.68108 -17416259.97648        54.000
        47.000         826.570         644.081
  22063801.106    22063794.539   -15242111.91706 -11822452.09447        47.000
        36.000       -1184.084        -922.663
  20799889.735    20799882.705   -21948476.48908 -17067211.93048        54.000
        46.000       -1546.838       -1205.328
  23783745.009    23783740.379    -7114281.12105  -5539785.59046        41.000
        23.000       -1674.553       -1304.846
  22723847.498    22723839.035   -13099008.49406 -10202675.47147        47.000
        34.000         967.620         753.990
  23033448.294    23033446.107   -10165285.43706  -7879275.90147        44.000
        33.000       -3327.062       -2592.516
  21380713.867    21380708.063   -18405045.15207 -14501949.48847        52.000
        42.000        2630.486        2049.729
 14  1 10  0 11  0.0000000  0  8G31G25G14G12G04G02G24G29
  23535124.041    23535117.023    -7773780.69706  -5988609.40547        47.000
        32.000        3151.445        2455.671
  20419332.437    20419328.183   -22410330.96608 -17435456.30548        54.000
        47.000         815.634         635.559
  22070612.802    22070606.663   -15206313.69707 -11794557.39347        48.000
        36.000       -1202.442        -936.968
  20808746.704    20808739.686   -21901933.66108 -17030944.79548        54.000
        45.000       -1556.041       -1212.499
  23793357.314    23793351.881    -7063771.91706  -5500427.76046        43.000
        22.000       -1692.798       -1319.064
  22718369.789    22718361.239   -13127794.48706 -10225106.09347        45.000
        34.000         951.347         741.309
  23052462.732    23052459.765   -10065362.01606  -7801413.52047        44.000
        33.000       -3334.639       -2598.420
  21365733.337    21365728.055   -18483765.58707 -14563290.05947        52.000
        42.000        2617.417        2039.545
 14  1 10  0 11 30.0000000  0  8G31G25G14G12G04G02G24G29
  23517147.823    23517140.245    -7868245.55006  -6062218.40846        45.000
        31.000        3146.339        2451.693
  20414706.865    20414703.195   -22434637.26908 -17454396.29048        54.000
        47.000         804.698         627.038
  22077529.781    22077523.552   -15169965.86707 -11766234.42647        48.000
        36.000       -1220.712        -951.204
  20817655.949    20817649.220   -21855114.41408 -16994462.27048        53.000
        46.000       -1565.277       -1219.697
  23803073.201    23803068.323    -7012712.22705  -5460640.99746        41.000
        22.000       -1711.215       -1333.414
  22712985.055    22712976.169   -13156092.03806 -10247156.11447        47.000
        34.000         935.172         728.706
  23071521.418    23071517.545    -9965210.24606  -7723373.19147        44.000
        33.000       -3342.211       -2604.320
  21350828.790    21350823.413   -18562091.12507 -14624322.88147        52.000
        43.000        2604.210        2029.255
 14  1 10  0 12  0.0000000  0  8G31G25G14G12G04G02G24G29
  23499201.631    23499194.970    -7962552.66506  -6135704.47046        46.000
        31.000        3140.885        2447.442
  20410144.130    20410140.622   -22458614.05408 -17473079.50348        54.000
        47.000         793.726         618.488
  22084550.644    22084544.478   -15133069.47806 -11737483.99847        47.000
        36.000       -1239.008        -965.461
  20826617.993    20826611.019   -21808019.39108 -16957764.85948        54.000
        45.000       -1574.413       -1226.816
  23812894.798    23812889.069    -6961103.34605  -5420426.28546        42.000
        22.000       -1729.438       -1347.614
  22707693.233    22707685.139   -13183899.94606 -10268824.59647        47.000
        35.000         918.765         715.921
  23090622.506    23090620.359    -9864830.79806  -7645155.47647        43.000
        32.000       -3349.741       -2610.188
  21335999.272    21335993.867   -18640020.11007 -14685046.68847        52.000
        43.000        2590.958        2018.928
 14  1 10  0 12 30.0000000  0  8G31G25G14G12G04G02G24G29
  23481286.010    23481278.850    -8056700.55906  -6209066.45647        45.000
        32.000        3135.686        2443.392
  20405644.634    20405640.328   -22482261.56608 -17491506.12748        54.000
        47.000         782.722         609.913
  22091675.685    22091669.399   -15095626.58106 -11708307.73647        46.000
        35.000       -1257.200        -979.636
  20835632.052    20835625.482   -21760649.73608 -16920853.44748        54.000
        45.000       -1583.489       -1233.888
  23822819.857    23822813.952    -6908947.62905  -5379785.46046        42.000
        22.000       -1747.732       -1361.869
  22702495.051    22702486.606   -13211217.09806 -10290110.67047        47.000
        35.000         902.429         703.191
  23109767.071    23109765.004    -9764226.31806  -7566762.40347        43.000
        32.000       -3357.254       -2616.042
  21321245.604    21321239.761   -18717551.52807 -14745460.70747        52.000
        43.000        2577.741        2008.630
 14  1 10  0 13  0.0000000  0  8G31G25G14G12G04G02G24G29
  23463400.508    23463394.103    -8150686.72006  -6282302.42846        45.000
        30.000        3130.231        2439.141
  20401206.899    20401203.446   -22505579.07108 -17509675.61748        53.000
        47.000         771.833         601.428
  22098904.930    22098898.405   -15057638.72407 -11678706.81947        48.000
        35.000       -1275.233        -993.688
  20844698.353    20844691.790   -21713005.82408 -16883728.31748        53.000
        45.000       -1592.587       -1240.977
  23832848.436    23832841.955    -6856246.46705  -5338719.61846        42.000
        22.000       -1765.765       -1375.921
  22697390.238    22697381.720   -13238042.30706 -10311013.40547        45.000
        35.000         886.056         690.433
  23128954.440    23128951.798    -9663398.24306  -7488195.09447        43.000
        32.000       -3364.569       -2621.742
  21306567.661    21306562.538   -18794683.31407 -14805563.35747        52.000
        43.000        2564.420        1998.250
 14  1 10  0 13 30.0000000  0  8G31G25G14G12G04G02G24G29
  23445547.311    23445540.306    -8244509.21106  -6355410.86147        46.000
        32.000        3124.666        2434.804
  20396833.045    20396829.288   -22528566.28508 -17527587.72748        54.000
        47.000         760.764         592.803
  22106237.422    22106231.257   -15019107.39607 -11648682.43947        48.000
        36.000       -1293.347       -1007.803
  20853816.789    20853809.807   -21665088.14108 -16846389.87048        53.000
        46.000       -1601.780       -1248.140
  23842981.136    23842974.459    -6803001.45206  -5297229.97346        43.000
        22.000       -1783.918       -1390.066
  22692379.356    22692371.293   -13264373.79806 -10331531.43547        46.000
        36.000         869.505         677.536
  23148183.048    23148180.413    -9562348.02505  -7409454.67547        42.000
        32.000       -3371.990       -2627.524
  21291966.311    21291960.808   -18871413.92307 -14865353.40847        52.000
        43.000        2550.999        1987.791
 14  1 10  0 14  0.0000000  0  8G31G25G14G12G04G02G24G29
  23427724.454    23427717.581    -8338166.29606  -6428390.40446        45.000
        31.000        3119.039        2430.420
  20392521.345    20392517.680   -22551223.45508 -17545242.66948        54.000
        47.000         749.703         584.184
  22113672.594    22113666.258   -14980034.73706 -11618236.24747        46.000
        36.000       -1311.425       -1021.890
  20862986.992    20862980.070   -21616898.15108 -16808839.23248        54.000
        46.000       -1610.922       -1255.264
  23853215.792    23853210.058    -6749214.88405  -5255318.35646        42.000
        23.000       -1801.933       -1404.104
  22687463.303    22687455.113   -13290210.99507 -10351664.30647        48.000
        35.000         852.960         664.644
  23167455.143    23167452.059    -9461077.36906  -7330542.49947        43.000
        32.000       -3379.330       -2633.244
  21277441.477    21277435.843   -18947742.47907 -14924830.17148        52.000
        44.000        2537.510        1977.281
 14  1 10  0 14 30.0000000  0  8G31G25G14G12G04G02G24G29
  23409934.369    23409927.385    -8431655.34506  -6501239.03247        46.000
        32.000        3113.299        2425.948
  20388272.789    20388268.911   -22573549.58208 -17562639.64648        54.000
        47.000         738.553         575.496
  22121210.756    22121204.249   -14940421.90706 -11587369.12047        47.000
        36.000       -1329.582       -1036.038
  20872209.159    20872202.394   -21568435.93208 -16771076.47348        53.000
        45.000       -1620.011       -1262.346
  23863553.612    23863548.086    -6694887.98305  -5212985.70246        42.000
        22.000       -1820.011       -1418.191
  22682640.439    22682632.447   -13315551.78906 -10371410.37147        47.000
        35.000         836.190         651.576
  23186767.377    23186765.212    -9359588.06205  -7251459.94446        41.000
        31.000       -3386.769       -2639.041
  21262993.585    21262987.717   -19023666.57507 -14983991.77247        52.000
        43.000        2523.885        1966.664
 14  1 10  0 15  0.0000000  0  8G31G25G14G12G04G02G24G29
  23392175.627    23392169.556    -8524974.60606  -6573955.32847        46.000
        32.000        3107.865        2421.713
  20384087.269    20384083.567   -22595544.78708 -17579778.76248        54.000
        47.000         727.738         567.069
  22128851.444    22128845.265   -14900270.79406 -11556082.57047        46.000
        36.000       -1347.183       -1049.753
  20881482.590    20881476.091   -21519702.62308 -16733102.46748        53.000
        45.000       -1628.854       -1269.236
  23873994.255    23873988.679    -6640022.72605  -5170233.56746        42.000
        23.000       -1837.642       -1431.929
  22677913.485    22677905.105   -13340395.36707 -10390768.98147        48.000
        35.000         819.872         638.861
  23206121.651    23206118.576    -9257882.07405  -7172208.54746        42.000
        30.000       -3393.712       -2644.451
  21248622.747    21248617.608   -19099185.47807 -15042837.64247        51.000
        43.000        2510.644        1956.346
 14  1 10  0 15 30.0000000  0  8G31G25G14G12G04G02G24G29
  23374450.595    23374444.256    -8618121.81506  -6646537.57747        45.000
        32.000        3101.819        2417.002
  20379964.983    20379961.168   -22617208.81508 -17596659.83148        54.000
        47.000         716.482         558.298
  22136593.458    22136587.514   -14859583.27706 -11524378.06247        46.000
        36.000       -1365.295       -1063.866
  20890807.926    20890801.267   -21470699.02008 -16694917.84348        53.000
        45.000       -1638.127       -1276.463
  23884536.909    23884531.282    -6584621.22205  -5127063.57146        42.000
        22.000       -1855.700       -1446.000
  22673280.561    22673272.802   -13364740.79907 -10409739.44647        48.000
        35.000         803.098         625.791
  23225516.501    23225513.710    -9155960.92205  -7092789.47246        42.000
        31.000       -3401.038       -2650.159
  21234329.603    21234324.390   -19174297.56407 -15101366.48848        51.000
        44.000        2496.770        1945.535
 14  1 10  0 16  0.0000000  0  8G31G25G14G12G04G02G24G29
  23356758.809    23356752.359    -8711095.09406  -6718984.29547        46.000
        33.000        3096.040        2412.498
  20375905.213    20375901.565   -22638541.34908 -17613282.59348        54.000
        47.000         705.497         549.738
  22144438.232    22144431.394   -14818361.11006 -11492256.93347        46.000
        35.000       -1383.086       -1077.730
  20900184.284    20900177.636   -21421425.36108 -16656522.79148        53.000
        45.000       -1647.051       -1283.417
  23895181.585    23895175.270    -6528685.23005  -5083477.09246        42.000
        21.000       -1873.589       -1459.940
  22668742.212    22668734.970   -13388586.84306 -10428320.75947        47.000
        36.000         786.357         612.746
  23244952.239    23244949.603    -9053826.31805  -7013204.08146        42.000
        31.000       -3408.140       -2655.694
  21220113.460    21220107.955   -19249001.40907 -15159577.24847        51.000
        43.000        2483.164        1934.933
 14  1 10  0 16 30.0000000  0  8G31G25G14G12G04G02G24G29
  23339099.153    23339093.502    -8803892.50606  -6791293.94547        45.000
        32.000        3090.315        2408.037
  20371908.946    20371905.238   -22659542.18108 -17629646.88248        54.000
        47.000         694.616         541.259
  22152384.248    22152377.845   -14776606.14606 -11459720.64147        47.000
        35.000       -1400.623       -1091.395
  20909612.037    20909605.426   -21371882.66308 -16617918.09548        53.000
        45.000       -1655.887       -1290.301
  23905926.762    23905920.865    -6472216.34505  -5039475.36746        41.000
        21.000       -1891.023       -1473.525
  22664300.149    22664291.969   -13411932.30507 -10446512.01547        48.000
        35.000         769.807         599.849
  23264427.943    23264425.264    -8951480.01805  -6933453.74246        41.000
        31.000       -3414.935       -2660.988
  21205976.176    21205970.462   -19323295.63807 -15217468.85348        51.000
        44.000        2469.655        1924.407
 14  1 10  0 17  0.0000000  0  8G31G25G14G12G04G02G24G29
  23321474.666    23321468.383    -8896511.39706  -6863464.51747        45.000
        32.000        3084.553        2403.548
  20367975.743    20367972.393   -22680210.67907 -17645752.21548        52.000
        47.000         683.704         532.756
  22160430.798    22160424.830   -14734319.69906 -11426770.20847        47.000
        35.000       -1418.147       -1105.049
  20919090.674    20919083.979   -21322071.85108 -16579104.47748        53.000
        45.000       -1664.617       -1297.104
  23916773.567    23916767.662    -6415216.44105  -4995059.87245        41.000
        20.000       -1908.660       -1487.267
  22659953.031    22659944.873   -13434775.77606 -10464312.10947        45.000
        35.000         753.240         586.940
  23283943.427    23283941.025    -8848923.80105  -6853539.82546        41.000
        30.000       -3421.873       -2666.394
  21191916.540    21191911.015   -19397178.49407 -15275039.89248        52.000
        44.000        2456.101        1913.845
 14  1 10  0 17 30.0000000  0  8G31G25G14G12G04G02G24G29
  23303884.796    23303877.092    -8988949.39906  -6935494.11747        46.000
        32.000        3078.359        2398.721
  20364106.085    20364102.368   -22700546.30308 -17661598.16148        53.000
        47.000         672.358         523.915
  22168578.913    22168572.132   -14691503.41706 -11393406.92447        47.000
        34.000       -1435.963       -1118.932
  20928620.512    20928613.924   -21271992.52407 -16540081.63848        52.000
        45.000       -1673.638       -1304.134
  23927720.863    23927715.115    -6357687.22205  -4950231.90945        41.000
        20.000       -1926.280       -1500.997
  22655701.874    22655693.594   -13457115.79006 -10481719.89247        44.000
        35.000         736.357         573.785
  23303498.557    23303496.299    -8746158.98805  -6773463.32346        41.000
        30.000       -3428.819       -2671.807
  21177935.808    21177930.380   -19470648.37407 -15332289.13047        52.000
        43.000        2442.211        1903.022
 14  1 10  0 18  0.0000000  0  8G31G25G14G12G04G02G24G29
  23286328.341    23286322.216    -9081205.77106  -7007382.18247        47.000
        32.000        3072.183        2393.909
  20360299.562    20360295.646   -22720550.27808 -17677185.67048        54.000
        47.000         661.328         515.321
  22176826.485    22176819.919   -14648160.72906 -11359633.41647        47.000
        35.000       -1453.462       -1132.568
  20938200.752    20938194.313   -21221647.11107 -16500851.44848        52.000
        45.000       -1682.548       -1311.077
  23938768.371    23938762.661    -6299631.70805  -4904993.78346        41.000
        21.000       -1943.872       -1514.705
  22651546.231    22651538.061   -13478952.63206 -10498735.60547        46.000
        35.000         719.566         560.701
  23323093.788    23323091.736    -8643188.31405  -6693226.45046        42.000
        31.000       -3435.669       -2677.145
  21164033.387    21164028.158   -19543705.25107 -15389216.53447        51.000
        43.000        2428.384        1892.247
 14  1 10  0 18 30.0000000  0  8G31G25G14G12G04G02G24G29
  23268808.854    23268801.453    -9173277.24906  -7079126.20247        46.000
        32.000        3065.799        2388.934
  20356556.284    20356552.280   -22740220.78408 -17692513.33648        54.000
        47.000         650.022         506.511
  22185173.932    22185168.093   -14604291.89006 -11325449.88247        46.000
        34.000       -1471.130       -1146.335
  20947831.699    20947825.549   -21171035.27407 -16461413.65548        52.000
        45.000       -1691.545       -1318.087
  23949915.586    23949910.424    -6241050.61105  -4859346.18846        41.000
        22.000       -1961.540       -1528.473
  22647487.560    22647478.900   -13500283.92906 -10515357.37247        45.000
        36.000         702.513         547.412
  23342727.602    23342725.330    -8540012.82605  -6612829.97446        41.000
        31.000       -3442.668       -2682.599
  21150210.228    21150204.874   -19616346.36707 -15445819.98947        51.000
        43.000        2414.392        1881.345
 14  1 10  0 19  0.0000000  0  8G31G25G14G12G04G02G24G29
  23251322.728    23251316.547    -9265162.19606  -7150724.86247        47.000
        33.000        3059.701        2384.183
  20352876.705    20352872.583   -22759558.53708 -17707581.71348        54.000
        47.000         639.067         497.974
  22193621.361    22193616.216   -14559899.58806 -11290858.51347        46.000
        35.000       -1488.448       -1159.829
  20957513.672    20957507.107   -21120158.69107 -16421769.57748        52.000
        45.000       -1700.269       -1324.885
  23961163.307    23961157.734    -6181946.74405  -4813291.22946        41.000
        22.000       -1978.882       -1541.986
  22643524.903    22643515.275   -13521109.70507 -10531585.24547        48.000
        35.000         685.756         534.355
  23362400.078    23362396.418    -8436634.89605  -6532275.73546        41.000
        30.000       -3449.352       -2687.806
  21136466.472    21136460.717   -19688571.17107 -15502099.03448        50.000
        44.000        2400.541        1870.552
 14  1 10  0 19 30.0000000  0  8G31G25G14G12G04G02G24G29
  23233873.642    23233866.736    -9356858.17506  -7222176.28247        47.000
        33.000        3053.448        2379.310
  20349260.112    20349256.601   -22778562.46508 -17722389.96348        53.000
        47.000         628.057         489.395
  22202168.740    22202162.764   -14514984.97106 -11255860.11747        46.000
        34.000       -1505.703       -1173.275
  20967245.713    20967239.346   -21069016.52707 -16381918.55548        51.000
        45.000       -1709.047       -1331.725
  23972508.924    23972504.492    -6122321.32105  -4766829.88046        40.000
        21.000       -1996.030       -1555.348
  22639658.431    22639649.410   -13541427.84507 -10547417.55247        48.000
        35.000         668.917         521.234
  23382110.317    23382107.458    -8333055.12305  -6451564.21846        41.000
        30.000       -3456.000       -2692.987
  21122802.045    21122796.949   -19760377.33807 -15558051.86348        50.000
        44.000        2386.636        1859.717
 14  1 10  0 20  0.0000000  0  8G31G25G14G12G04G02G24G29
  23216461.003    23216453.858    -9448363.13806  -7293478.85047        46.000
        32.000        3046.987        2374.275
  20345707.649    20345703.942   -22797232.74508 -17736938.23448        53.000
        48.000         616.899         480.700
  22210814.672    22210808.188   -14469550.72706 -11220456.86847        45.000
        35.000       -1523.048       -1186.790
  20977027.741    20977021.316   -21017610.31507 -16341861.77048        52.000
        45.000       -1717.784       -1338.533
  23983955.581    23983949.581    -6062176.90205  -4719964.10846        41.000
        22.000       -2013.433       -1568.909
  22635888.396    22635879.133   -13561237.85806 -10562853.90947        45.000
        35.000         652.035         508.080
  23401858.302    23401856.371    -8229276.22005  -6370697.55946        41.000
        30.000       -3462.452       -2698.014
  21109217.410    21109212.365   -19831764.08607 -15613677.87648        50.000
        44.000        2372.675        1848.838
 14  1 10  0 20 30.0000000  0  8G31G25G14G12G04G02G24G29
  23199084.839    23199077.842    -9539675.81006  -7364631.57947        46.000
        34.000        3040.511        2369.229
  20342217.996    20342214.425   -22815569.48208 -17751226.60148        54.000
        47.000         605.745         472.009
  22219558.815    22219552.535   -14423598.69906 -11184650.15847        46.000
        34.000       -1540.300       -1200.233
  20986860.242    20986853.585   -20965941.35907 -16301600.25248        52.000
        45.000       -1726.681       -1345.466
  23995498.185    23995492.799    -6001515.62805  -4672695.56046        40.000
        22.000       -2030.563       -1582.257
  22632215.629    22632206.423   -13580539.02107 -10577893.77447        48.000
        35.000         635.072         494.861
  23421644.720    23421642.087    -8125300.19905  -6289677.30746        41.000
        30.000       -3469.132       -2703.220
  21095712.994    21095707.584   -19902730.53807 -15668976.39548        51.000
        44.000        2358.563        1837.841
 14  1 10  0 21  0.0000000  0  8G31G25G14G12G04G02G24G29
  23181745.491    23181738.503    -9630792.56806  -7435631.64947        45.000
        34.000        3033.903        2364.080
  20338792.330    20338788.460   -22833571.42708 -17765254.08948        55.000
        47.000         594.415         463.181
  22228401.737    22228396.131   -14377130.22006 -11148441.01247        46.000
        35.000       -1557.572       -1213.692
  20996742.310    20996735.448   -20914009.39407 -16261133.79748        51.000
        44.000       -1735.443       -1352.293
  24007139.675    24007134.557    -5940338.55205  -4625025.10946        40.000
        23.000       -2047.699       -1595.610
  22628639.491    22628630.581   -13599329.49507 -10592535.69447        48.000
        34.000         617.809         481.410
  23441467.716    23441465.000    -8021127.84105  -6208504.05646        40.000
        28.000       -3475.706       -2708.343
  21082288.991    21082283.659   -19973274.56307 -15723945.76248        51.000
        44.000        2344.391        1826.798
 14  1 10  0 21 30.0000000  0  8G31G25G14G12G04G02G24G29
  23164444.927    23164437.931    -9721711.90406  -7506477.88947        46.000
        33.000        3027.330        2358.959
  20335430.312    20335426.370   -22851239.10508 -17779021.10748        55.000
        48.000         583.434         454.624
  22237342.757    22237336.494   -14330148.26106 -11111831.74247        46.000
        35.000       -1574.530       -1226.907
  21006674.551    21006668.407   -20861815.65307 -16220463.35648        51.000
        44.000       -1744.032       -1358.986
  24018879.211    24018873.179    -5878648.60505  -4576955.02746        40.000
        22.000       -2064.765       -1608.907
  22625161.285    22625152.235   -13617609.13307 -10606779.54547        48.000
        35.000         600.841         468.188
  23461328.730    23461325.201    -7916761.82705  -6127179.87046        41.000
        30.000       -3481.996       -2713.244
  21068945.621    21068939.761   -20043395.22607 -15778585.22048        51.000
        44.000        2330.396        1815.893
 14  1 10  0 22  0.0000000  0  8G31G25G14G12G04G02G24G29
  23147181.652    23147174.747    -9812432.19006  -7577168.99947        47.000
        33.000        3020.645        2353.749
  20332132.016    20332128.595   -22868572.26808 -17792527.47148        54.000
        47.000         572.281         445.933
  22246380.408    22246374.454   -14282654.50406 -11074823.71647        47.000
        34.000       -1591.704       -1240.289
  21016656.240    21016650.220   -20809360.67707 -16179589.36748        52.000
        45.000       -1752.822       -1365.835
  24030714.666    24030709.587    -5816447.87104  -4528486.88546        39.000
        22.000       -2081.811       -1622.191
  22621780.216    22621770.892   -13635376.79806 -10620624.46247        47.000
        35.000         583.575         454.733
  23481225.253    23481222.598    -7812203.47005  -6045705.82846        41.000
        29.000       -3488.330       -2718.179
  21055682.661    21055677.340   -20113091.54407 -15832894.02948        51.000
        44.000        2316.153        1804.794
 14  1 10  0 22 30.0000000  0  8G31G25G14G12G04G02G24G29
  23129956.201    23129948.544    -9902950.47806  -7647702.76247        47.000
        34.000        3014.064        2348.621
  20328897.299    20328893.652   -22885569.93008 -17805772.40148        54.000
        47.000         561.134         437.248
  22255515.017    22255508.771   -14234650.43306 -11037418.03847        46.000
        34.000       -1608.333       -1253.247
  21026687.640    21026681.545   -20756645.11807 -16138512.31648        50.000
        44.000       -1761.331       -1372.466
  24042648.154    24042642.950    -5753737.58504  -4479621.75446        39.000
        21.000       -2098.636       -1635.301
  22618496.697    22618487.807   -13652631.30406 -10634069.52647        46.000
        36.000         566.720         441.600
  23501158.010    23501155.389    -7707454.36904  -5964083.18846        39.000
        30.000       -3494.573       -2723.044
  21042501.134    21042495.461   -20182361.36407 -15886870.49048        50.000
        44.000        2302.052        1793.807
 14  1 10  0 23  0.0000000  0  8G31G25G14G12G04G02G24G29
  23112769.785    23112763.290    -9993264.63806  -7718077.41447        46.000
        34.000        3007.028        2343.139
  20325726.348    20325722.976   -22902232.07508 -17818755.88948        54.000
        47.000         549.772         428.394
  22264746.810    22264740.290   -14186138.00906 -10999616.23747        46.000
        34.000       -1625.589       -1266.693
  21036768.946    21036762.457   -20703669.19107 -16097232.38148        50.000
        45.000       -1770.218       -1379.391
  24054677.710    24054672.922    -5690520.38904  -4430361.59145        39.000
        19.000       -2115.828       -1648.697
  22615312.016    22615302.074   -13669371.61506 -10647113.90547        47.000
        36.000         549.421         428.120
  23521127.529    23521124.257    -7602516.54705  -5882313.46146        40.000
        29.000       -3500.955       -2728.017
  21029400.879    21029395.129   -20251203.90307 -15940514.02748        51.000
        45.000        2287.575        1782.526
 14  1 10  0 23 30.0000000  0  8G31G25G14G12G04G02G24G29
  23095622.309    23095615.830   -10083373.27406  -7788291.93147        47.000
        33.000        3000.183        2337.805
  20322619.690    20322615.734   -22918559.07208 -17831478.21748        53.000
        47.000         538.655         419.731
  22274074.345    22274068.538   -14137120.16306 -10961420.55747        46.000
        34.000       -1642.322       -1279.731
  21046899.114    21046892.664   -20650434.68607 -16055750.95448        52.000
        44.000       -1778.782       -1386.064
  24066804.413    24066797.961    -5626798.85905  -4380708.45845        40.000
        19.000       -2132.449       -1661.649
  22612223.105    22612215.223   -13685597.51406 -10659757.45247        46.000
        36.000         532.282         414.766
  23541132.642    23541129.124    -7497392.00105  -5800398.21146        41.000
        29.000       -3507.204       -2732.886
  21016382.185    21016376.031   -20319618.32407 -15993823.95948        51.000
        45.000        2273.323        1771.420
 14  1 10  0 24  0.0000000  0  8G31G25G14G12G04G02G24G29
  23078514.784    23078508.640   -10173273.84906  -7858344.34747        46.000
        33.000        2993.127        2332.307
  20319576.561    20319572.927   -22934550.49208 -17843939.06648        53.000
        47.000         527.424         410.979
  22283498.529    22283492.131   -14087598.77806 -10922832.52747        46.000
        34.000       -1659.046       -1292.763
  21057078.265    21057071.856   -20596942.17107 -16014068.48248        51.000
        44.000       -1787.298       -1392.700
  24079026.087    24079019.504    -5562574.70505  -4330663.66746        42.000
        21.000       -2149.119       -1674.638
  22609233.604    22609225.385   -13701307.88306 -10671999.28947        45.000
        35.000         515.168         401.429
  23561171.065    23561169.389    -7392082.61305  -5718338.96446        40.000
        29.000       -3513.318       -2737.651
  21003444.893    21003439.180   -20387603.20607 -16046799.18648        51.000
        44.000        2259.074        1760.318
 14  1 10  0 24 30.0000000  0  8G31G25G14G12G04G02G24G29
  23061447.843    23061440.695   -10262963.86506  -7928232.68047        47.000
        34.000        2986.257        2326.954
  20316597.213    20316593.715   -22950205.64108 -17856137.88248        54.000
        47.000         516.370         402.366
  22293017.268    22293010.784   -14037575.39206 -10883853.29547        46.000
        34.000       -1675.666       -1305.714
  21067306.745    21067300.253   -20543191.72107 -15972185.02848        52.000
        44.000       -1795.818       -1399.339
  24091342.708    24091336.665    -5497850.10005  -4280228.91646        41.000
        22.000       -2165.686       -1687.548
  22606342.336    22606333.850   -13716501.83606 -10683838.72547        47.000
        36.000         498.030         388.075
  23581245.875    23581243.553    -7286589.66205  -5636136.68346        41.000
        29.000       -3519.416       -2742.402
  20990590.017    20990584.537   -20455157.00607 -16099438.50048        51.000
        45.000        2244.641        1749.071
 14  1 10  0 25  0.0000000  0  8G31G25G14G12G04G02G24G29
  23044420.510    23044414.189   -10352441.49806  -7997955.50347        47.000
        35.000        2979.064        2321.349
  20313682.366    20313678.895   -22965524.58308 -17868074.71148        54.000
        47.000         505.099         393.584
  22302631.678    22302625.825   -13987052.45906 -10844484.82647        46.000
        33.000       -1692.264       -1318.647
  21077583.919    21077577.345   -20489184.32307 -15930101.34948        51.000
        44.000       -1804.408       -1406.032
  24103753.773    24103748.144    -5432627.12005  -4229405.81546        41.000
        23.000       -2182.308       -1700.500
  22603549.483    22603541.381   -13731178.59707 -10695275.15547        48.000
        36.000         480.666         374.545
  23601355.478    23601351.793    -7180915.30105  -5553793.01046        41.000
        28.000       -3525.472       -2747.121
  20977817.486    20977811.557   -20522278.80907 -16151741.20648        51.000
        45.000        2230.187        1737.808
 14  1 10  0 25 30.0000000  0  8G31G25G14G12G04G02G24G29
  23027434.381    23027427.847   -10441704.32006  -8067510.96847        47.000
        34.000        2971.857        2315.733
  20310831.278    20310827.617   -22980506.82708 -17879749.18948        54.000
        47.000         493.830         384.802
  22312340.399    22312334.725   -13936031.73206 -10804728.46047        45.000
        34.000       -1708.958       -1331.656
  21087910.128    21087903.353   -20434920.42507 -15887817.79548        52.000
        44.000       -1812.987       -1412.717
  24116259.584    24116254.702    -5366907.65605  -4178195.85946        41.000
        21.000       -2198.861       -1713.398
  22600855.057    22600846.830   -13745337.17107 -10706307.80047        48.000
        36.000         463.361         361.061
  23621497.770    23621495.539    -7075061.30105  -5471309.34546        41.000
        29.000       -3531.385       -2751.729
  20965126.401    20965120.803   -20588966.95907 -16203705.99148        51.000
        45.000        2215.676        1726.500
 14  1 10  0 26  0.0000000  0  8G31G25G14G12G04G02G24G29
  23010489.967    23010482.657   -10530750.10306  -8136897.30047        47.000
        35.000        2964.597        2310.076
  20308044.366    20308041.018   -22995151.93407 -17891160.95748        52.000
        47.000         482.507         375.980
  22322143.808    22322137.948   -13884515.46606 -10764585.94847        45.000
        34.000       -1725.525       -1344.565
  21098284.973    21098278.423   -20380400.91007 -15845335.06648        52.000
        44.000       -1821.594       -1419.424
  24128859.647    24128854.263    -5300693.96105  -4126600.78245        41.000
        20.000       -2215.349       -1726.246
  22598260.021    22598251.517   -13758976.57706 -10716935.89047        45.000
        36.000         445.984         347.520
  23641676.010    23641673.811    -6969029.05405  -5388686.82246        42.000
        29.000       -3537.424       -2756.434
  20952519.054    20952513.206   -20655220.16907 -16255331.86548        51.000
        45.000        2201.145        1715.178
 14  1 10  0 26 30.0000000  0  8G31G25G14G12G04G02G24G29
  22993586.626    22993579.722   -10619576.86806  -8206112.96447        47.000
        34.000        2957.211        2304.320
  20305321.649    20305318.163   -23009460.01908 -17902310.10748        54.000
        47.000         471.313         367.257
  22332040.873    22332034.775   -13832506.25706 -10724059.31947        47.000
        34.000       -1741.920       -1357.340
  21108708.004    21108701.093   -20325626.12408 -15802653.42848        53.000
        44.000       -1830.157       -1426.097
  24141553.969    24141547.403    -5233988.61505  -4074622.56046        41.000
        21.000       -2231.680       -1738.972
  22595763.032    22595755.186   -13772096.58907 -10727159.26547        48.000
        37.000         428.627         333.995
  23661886.035    23661884.779    -6862821.20106  -5305927.48346        43.000
        29.000       -3543.116       -2760.870
  20939994.337    20939988.887   -20721037.75407 -16306618.27548        52.000
        45.000        2186.581        1703.829
 14  1 10  0 27  0.0000000  0  8G31G25G14G12G04G02G24G29
  22976725.473    22976719.064   -10708182.60206  -8275156.39647        47.000
        35.000        2949.934        2298.650
  20302663.154    20302659.842   -23023431.00508 -17913196.59448        54.000
        48.000         460.188         358.588
  22342031.341    22342025.041   -13780006.33506 -10683150.30847        45.000
        34.000       -1758.030       -1369.893
  21119179.747    21119172.772   -20270597.63708 -15759774.09148        53.000
        44.000       -1838.406       -1432.524
  24154340.622    24154334.608    -5166793.88005  -4022262.95946        42.000
        22.000       -2247.912       -1751.620
  22593365.694    22593356.647   -13784696.40407 -10736977.28547        49.000
        36.000         411.438         320.601
  23682129.736    23682127.816    -6756439.04205  -5223032.28946        41.000
        27.000       -3548.835       -2765.326
  20927552.726    20927547.093   -20786418.78007 -16357564.51848        52.000
        45.000        2172.112        1692.555
 14  1 10  0 27 30.0000000  0  8G31G25G14G12G04G02G24G29
  22959907.148    22959899.855   -10796564.55907  -8344025.45547        48.000
        34.000        2942.261        2292.671
  20300069.042    20300064.748   -23037064.19207 -17923819.85448        52.000
        47.000         448.911         349.801
  22352114.978    22352108.601   -13727017.42506 -10641860.30447        45.000
        33.000       -1774.360       -1382.618
  21129699.633    21129692.994   -20215315.14507 -15716696.83248        52.000
        44.000       -1846.885       -1439.131
  24167219.325    24167214.468    -5099111.45205  -3969523.40146        41.000
        22.000       -2263.994       -1764.151
  22591066.798    22591058.416   -13796775.12706 -10746389.24647        46.000
        36.000         394.068         307.066
  23702407.164    23702404.185    -6649884.24105  -5140002.58046        42.000
        28.000       -3554.614       -2769.829
  20915194.846    20915189.113   -20851361.46707 -16408169.19348        52.000
        45.000        2157.583        1681.234
 14  1 10  0 28  0.0000000  0  8G31G25G14G12G04G02G24G29
  22943131.058    22943124.841   -10884720.72706  -8412718.57247        47.000
        34.000        2934.721        2286.796
  20297538.810    20297535.137   -23050359.37008 -17934179.73448        54.000
        47.000         437.505         340.913
  22362291.146    22362285.080   -13673541.98706 -10600191.16547        46.000
        34.000       -1790.596       -1395.270
  21140267.926    21140261.267   -20159780.07008 -15673422.76348        53.000
        44.000       -1855.493       -1445.839
  24180192.031    24180187.222    -5030943.73305  -3916405.74346        40.000
        22.000       -2280.410       -1776.943
  22588867.509    22588859.546   -13808331.59806 -10755394.27547        47.000
        36.000         376.479         293.360
  23722716.550    23722713.593    -6543158.95905  -5056840.01446        42.000
        28.000       -3560.298       -2774.258
  20902920.048    20902914.313   -20915864.86007 -16458431.55048        52.000
        45.000        2142.724        1669.655
 14  1 10  0 28 30.0000000  0  8G31G25G14G12G04G02G24G29
  22926399.430    22926392.402   -10972648.39606  -8481233.63347        47.000
        35.000        2927.063        2280.828
  20295073.169    20295069.694   -23063315.95107 -17944275.77548        52.000
        48.000         426.155         332.069
  22372559.241    22372553.375   -13619581.68606 -10558144.20747        46.000
        34.000       -1806.828       -1407.918
  21150883.943    21150877.163   -20103992.04208 -15629951.57948        53.000
        44.000       -1863.899       -1452.389
  24193254.625    24193250.781    -4962292.76404  -3862911.49746        39.000
        21.000       -2296.374       -1789.383
  22586768.020    22586759.577   -13819365.29606 -10763991.94547        45.000
        36.000         358.953         279.704
  23743056.811    23743055.077    -6436264.42705  -4973545.58746        41.000
        28.000       -3565.984       -2778.688
  20890728.893    20890723.485   -20979927.31107 -16508350.30648        52.000
        45.000        2128.030        1658.205
 14  1 10  0 29  0.0000000  0  8G31G25G14G12G04G02G24G29
  22909711.325    22909704.339   -11060346.29007  -8549569.65247        48.000
        35.000        2919.482        2274.921
  20292672.166    20292668.582   -23075934.26908 -17954108.23248        53.000
        47.000         414.975         323.357
  22382919.245    22382913.391   -13565139.44106 -10515721.71147        46.000
        33.000       -1822.666       -1420.259
  21161547.630    21161540.656   -20047952.43808 -15586284.36148        53.000
        44.000       -1872.120       -1458.794
  24206410.591    24206405.944    -4893161.12105  -3809042.72046        40.000
        21.000       -2312.305       -1801.796
  22584767.566    22584759.379   -13829875.83506 -10772181.97347        45.000
        36.000         341.733         266.286
  23763431.391    23763427.946    -6329203.22705  -4890121.26246        41.000
        27.000       -3571.504       -2782.990
  20878622.514    20878616.824   -21043548.55808 -16557925.27948        53.000
        45.000        2113.359        1646.773
 14  1 10  0 29 30.0000000  0  8G31G25G14G12G04G02G24G29
  22893066.848    22893060.182   -11147812.32807  -8617725.01547        48.000
        35.000        2911.519        2268.716
  20290335.340    20290331.646   -23088214.46008 -17963677.21348        54.000
        48.000         403.521         314.432
  22393370.596    22393364.814   -13510217.72306 -10472925.61847        45.000
        34.000       -1838.837       -1432.860
  21172259.665    21172252.824   -19991662.36507 -15542421.97148        52.000
        44.000       -1880.610       -1465.410
  24219657.535    24219651.095    -4823551.66405  -3754801.55345        41.000
        20.000       -2328.334       -1814.287
  22582867.405    22582858.911   -13839863.49407 -10779964.55047        48.000
        36.000         324.058         252.513
  23783834.940    23783832.485    -6221977.46705  -4806568.70946        40.000
        26.000       -3576.972       -2787.251
  20866599.938    20866594.398   -21106727.71307 -16607155.77648        52.000
        46.000        2098.438        1635.146
 14  1 10  0 30  0.0000000  0  8G31G25G14G12G04G02G24G29
  22876466.859    22876460.127   -11235044.30306  -8685697.99247        47.000
        36.000        2903.888        2262.770
  20288062.802    20288059.087   -23100156.26508 -17972982.51848        54.000
        48.000         392.540         305.876
  22403912.619    22403906.897   -13454819.16006 -10429757.97047        45.000
        34.000       -1854.452       -1445.027
  21183018.416    21183011.733   -19935123.14508 -15498365.45448        53.000
        44.000       -1888.734       -1471.741
  24232994.445    24232988.055    -4753466.74305  -3700189.84045        41.000
        20.000       -2343.915       -1826.427
  22581066.255    22581058.032   -13849327.21507 -10787338.84747        49.000
        36.000         306.808         239.071
  23804270.605    23804267.639    -6114588.72805  -4722889.21146        41.000
        28.000       -3582.230       -2791.348
  20854662.084    20854656.397   -21169463.71607 -16656040.96048        51.000
        46.000        2083.942        1623.851
 14  1 10  0 30 30.0000000  0  8G31G25G14G12G04G02G24G29
  22859912.547    22859905.943   -11322039.15606  -8753486.17647        47.000
        36.000        2895.919        2256.560
  20285854.939    20285851.101   -23111758.76408 -17982023.42448        55.000
        48.000         381.080         296.946
  22414545.015    22414539.361   -13398945.28306 -10386219.93147        45.000
        34.000       -1870.360       -1457.424
  21193825.252    21193818.783   -19878334.35207 -15454114.45548        52.000
        44.000       -1897.050       -1478.221
  24246421.172    24246414.831    -4682907.81505  -3645208.83246        41.000
        21.000       -2359.784       -1838.793
  22579365.395    22579357.200   -13858265.69107 -10794303.87747        49.000
        35.000         289.264         225.400
  23824736.183    23824733.670    -6007038.40505  -4639083.75946        41.000
        27.000       -3587.563       -2795.503
  20842807.592    20842802.707   -21231754.71307 -16704579.37448        51.000
        46.000        2068.902        1612.132
 14  1 10  0 31  0.0000000  0  8G31G25G14G12G04G02G24G29
  22843403.854    22843396.589   -11408794.62207  -8821087.84047        48.000
        35.000        2887.782        2250.220
  20283711.751    20283707.928   -23123021.53408 -17990799.61348        54.000
        48.000         369.740         288.109
  22425267.600    22425262.088   -13342597.81906 -10342312.83847        46.000
        34.000       -1886.153       -1469.730
  21204679.218    21204672.451   -19821295.69507 -15409668.75948        52.000
        44.000       -1905.450       -1484.766
  24259937.355    24259931.915    -4611877.18805  -3589860.33245        40.000
        19.000       -2375.431       -1850.985
  22577764.688    22577756.369   -13866678.14207 -10800859.02447        49.000
        35.000         271.654         211.679
  23845233.193    23845230.151    -5899327.98405  -4555153.53446        41.000
        25.000       -3592.896       -2799.659
  20831038.871    20831033.954   -21293599.44507 -16752770.05148        50.000
        45.000        2053.978        1600.503
 14  1 10  0 31 30.0000000  0  8G31G25G14G12G04G02G24G29
  22826940.165    22826933.357   -11495308.70006  -8888501.39847        47.000
        35.000        2879.851        2244.040
  20281633.012    20281629.312   -23133944.55808 -17999311.06048        54.000
        48.000         358.547         279.388
  22436080.126    22436074.251   -13285779.76006 -10298039.02947        46.000
        33.000       -1901.584       -1481.754
  21215580.814    21215573.723   -19764008.73807 -15365029.57248        52.000
        44.000       -1913.518       -1491.053
  24273543.301    24273538.301    -4540377.32905  -3534146.17246        41.000
        22.000       -2390.969       -1863.093
  22576263.735    22576255.784   -13874564.47007 -10807004.20447        49.000
        36.000         254.236         198.106
  23865759.749    23865757.412    -5791459.69004  -4471100.34946        39.000
        27.000       -3598.167       -2803.766
  20819355.774    20819349.773   -21354997.32607 -16800612.53448        52.000
        46.000        2039.187        1588.977
 14  1 10  0 32  0.0000000  0  8G31G25G14G12G04G02G24G29
  22810523.111    22810516.580   -11581579.62406  -8955725.49447        47.000
        36.000        2871.543        2237.566
  20279619.160    20279615.396   -23144527.98108 -18007557.88848        54.000
        48.000         347.051         270.429
  22446981.154    22446975.062   -13228493.64706 -10253400.52347        45.000
        35.000       -1917.368       -1494.053
  21226528.412    21226521.952   -19706474.83607 -15320197.97448        51.000
        44.000       -1921.914       -1497.595
  24287238.325    24287233.006    -4468410.84905  -3478068.43746        42.000
        23.000       -2406.724       -1875.369
  22574863.293    22574855.178   -13881924.43807 -10812739.22247        48.000
        36.000         236.553         184.327
  23886316.332    23886313.737    -5683436.01805  -4386926.07346        40.000
        27.000       -3603.315       -2807.778
  20807757.383    20807751.249   -21415947.47707 -16848106.14548        52.000
        45.000        2024.126        1577.241
 14  1 10  0 32 30.0000000  0  8G31G25G14G12G04G02G24G29
  22794153.083    22794146.818   -11667605.26206  -9022758.44247        47.000
        36.000        2863.357        2231.188
  20277669.919    20277665.623   -23154771.85707 -18015540.13448        52.000
        48.000         335.843         261.696
  22457970.952    22457965.505   -13170742.24006 -10208399.45647        46.000
        35.000       -1932.785       -1506.066
  21237523.982    21237517.650   -19648694.34807 -15275174.22447        50.000
        43.000       -1930.080       -1503.958
  24301022.191    24301016.525    -4395980.65306  -3421629.33546        43.000
        23.000       -2422.067       -1887.325
  22573563.252    22573555.059   -13888757.65906 -10818063.78747        46.000
        36.000         218.982         170.636
  23906901.165    23906898.615    -5575258.95005  -4302632.25246        40.000
        25.000       -3608.298       -2811.661
  20796243.970    20796238.234   -21476449.36107 -16895250.45648        50.000
        46.000        2009.212        1565.620
 14  1 10  0 33  0.0000000  0  8G31G25G14G12G04G02G24G29
  22777830.774    22777824.223   -11753382.94206  -9089598.18947        47.000
        36.000        2855.057        2224.719
  20275785.195    20275781.648   -23164675.21908 -18023257.04348        54.000
        48.000         324.387         252.769
  22469048.043    22469042.566   -13112527.19806 -10163037.10547        45.000
        34.000       -1948.264       -1518.128
  21248566.361    21248559.318   -19590667.68307 -15229958.66147        51.000
        43.000       -1938.274       -1510.343
  24314892.541    24314885.907    -4323088.48205  -3364830.20746        42.000
        21.000       -2437.351       -1899.234
  22572362.931    22572354.664   -13895062.94506 -10822976.98747        47.000
        36.000         201.341         156.889
  23927515.168    23927513.211    -5466929.31604  -4218219.54646        39.000
        26.000       -3613.469       -2815.690
  20784816.429    20784811.145   -21536501.43207 -16942044.25748        51.000
        46.000        1994.251        1553.962
 14  1 10  0 33 30.0000000  0  8G31G25G14G12G04G02G24G29
  22761555.220    22761548.476   -11838909.55206  -9156242.32147        47.000
        36.000        2846.606        2218.135
  20273965.854    20273962.313   -23174237.29308 -18030708.00848        54.000
        48.000         312.983         243.883
  22480215.251    22480209.013   -13053850.71406 -10117315.22347        45.000
        33.000       -1963.579       -1530.062
  21259654.894    21259648.762   -19532394.92507 -15184551.32547        51.000
        43.000       -1946.543       -1516.787
  24328850.783    24328844.957    -4249735.93305  -3307672.29945        40.000
        17.000       -2452.832       -1911.298
  22571264.120    22571255.753   -13900839.55407 -10827478.23547        48.000
        36.000         183.686         143.132
  23948158.843    23948156.800    -5358448.92505  -4133689.38146        40.000
        27.000       -3618.550       -2819.650
  20773475.118    20773469.738   -21596101.81807 -16988486.08648        52.000
        46.000        1979.052        1542.119
 14  1 10  0 34  0.0000000  0  8G31G25G14G12G04G02G24G29
  22745328.086    22745321.450   -11924184.46907  -9222690.28147        48.000
        37.000        2838.407        2211.746
  20272210.829    20272207.028   -23183459.14208 -18037893.85948        54.000
        48.000         301.849         235.207
  22491468.358    22491461.977   -12994716.11906 -10071236.36947        46.000
        33.000       -1978.625       -1541.785
  21270790.208    21270784.278   -19473878.30107 -15138953.97047        50.000
        43.000       -1954.493       -1522.982
  24342895.071    24342890.371    -4175926.65104  -3250158.57045        38.000
        19.000       -2467.740       -1922.915
  22570265.295    22570256.777   -13906088.21306 -10831568.08747        46.000
        36.000         166.210         129.514
  23968830.159    23968827.844    -5249820.43804  -4049043.83046        39.000
        27.000       -3623.341       -2823.383
  20762219.132    20762213.221   -21655251.00707 -17034576.34148        51.000
        46.000        1964.203        1530.548
 14  1 10  0 34 30.0000000  0  8G31G25G14G12G04G02G24G29
  22729149.298    22729142.908   -12009204.36506  -9288939.54747        47.000
        36.000        2829.815        2205.050
  20270520.786    20270517.485   -23192339.56408 -18044813.67448        54.000
        48.000         290.459         226.332
  22502807.444    22502802.167   -12935124.97206 -10024801.77847        45.000
        33.000       -1993.833       -1553.636
  21281972.366    21281966.063   -19415116.43507 -15093165.50847        49.000
        43.000       -1962.715       -1529.388
  24357026.900    24357023.056    -4101662.21804  -3192290.21445        39.000
        20.000       -2483.091       -1934.876
  22569367.174    22569358.833   -13910807.41206 -10835245.37147        46.000
        37.000         148.618         115.806
  23989529.364    23989526.737    -5141044.91104  -3964283.68746        38.000
        24.000       -3628.125       -2827.110
  20751049.672    20751044.171   -21713946.88607 -17080313.38248        51.000
        46.000        1949.077        1518.762
 14  1 10  0 35  0.0000000  0  8G31G25G14G12G04G02G24G29
  22713019.238    22713012.618   -12093967.95506  -9354989.10347        47.000
        36.000        2821.095        2198.256
  20268896.124    20268892.343   -23200879.34408 -18051468.05548        54.000
        48.000         278.923         217.342
  22514233.365    22514227.877   -12875080.71006  -9978014.13647        45.000
        33.000       -2009.056       -1565.498
  21293200.859    21293194.193   -19356111.60207 -15047187.72547        50.000
        43.000       -1970.941       -1535.798
  24371246.388    24371241.070    -4026946.23805  -3134069.98346        42.000
        23.000       -2498.118       -1946.586
  22568569.918    22568561.581   -13914997.84706 -10838510.63547        47.000
        36.000         130.812         101.932
  24010256.298    24010253.296    -5032125.44304  -3879411.36546        39.000
        26.000       -3633.021       -2830.925
  20739966.488    20739961.008   -21772189.83707 -17125697.49048        51.000
        45.000        1933.820        1506.873
 14  1 10  0 35 30.0000000  0  8G31G25G14G12G04G02G24G29
  22696938.843    22696932.337   -12178472.18006  -9420836.54347        47.000
        37.000        2812.442        2191.513
  20267335.926    20267332.065   -23209077.71108 -18057856.39048        55.000
        48.000         267.539         208.472
  22525745.426    22525739.391   -12814585.16306  -9930874.83547        45.000
        34.000       -2023.974       -1577.123
  21304474.848    21304468.427   -19296864.40007 -15001021.08547        50.000
        43.000       -1978.921       -1542.016
  24385550.141    24385544.648    -3951780.36705  -3075499.18346        42.000
        22.000       -2513.042       -1958.214
  22567873.058    22567864.482   -13918658.72906 -10841363.25547        46.000
        36.000         113.116          88.142
  24031010.477    24031007.848    -4923063.28405  -3794427.84546        40.000
        27.000       -3637.773       -2834.628
  20728969.506    20728963.822   -21829977.91007 -17170727.13448        51.000
        46.000        1918.614        1495.024
 14  1 10  0 36  0.0000000  0  8G31G25G14G12G04G02G24G29
  22680907.496    22680901.117   -12262714.52907  -9486479.93547        48.000
        37.000        2803.744        2184.736
  20265840.831    20265837.450   -23216933.62908 -18063977.88748        54.000
        47.000         256.029         199.503
  22537343.154    22537337.285   -12753640.18606  -9883385.30547        44.000
        32.000       -2039.054       -1588.873
  21315795.565    21315789.001   -19237374.22107 -14954665.11047        50.000
        43.000       -1987.081       -1548.375
  24399939.347    24399933.413    -3876166.35905  -3016579.20446        41.000
        21.000       -2528.004       -1969.873
  22567277.224    22567268.823   -13921788.61006 -10843802.10747        46.000
        35.000          95.375          74.318
  24051790.818    24051788.756    -4813859.56704  -3709334.08946        38.000
        25.000       -3642.609       -2838.396
  20718059.950    20718054.416   -21887309.91707 -17215401.41648        52.000
        46.000        1903.329        1483.113
 14  1 10  0 36 30.0000000  0  8G31G25G14G12G04G02G24G29
  22664927.338    22664920.511   -12346693.80606  -9551918.33247        47.000
        37.000        2794.767        2177.740
  20264411.030    20264407.662   -23224448.14908 -18069833.34748        54.000
        48.000         244.708         190.682
  22549025.355    22549019.175   -12692249.42506  -9835548.42147        44.000
        32.000       -2053.822       -1600.381
  21327162.159    21327155.674   -19177643.38007 -14908121.60348        51.000
        44.000       -1995.160       -1554.670
  24414411.575    24414406.531    -3800107.76604  -2957312.74345        38.000
        18.000       -2542.836       -1981.430
  22566782.366    22566773.986   -13924388.72206 -10845828.15247        46.000
        35.000          77.765          60.596
  24072598.590    24072595.347    -4704517.02805  -3624132.09446        40.000
        25.000       -3647.035       -2841.845
  20707236.978    20707231.028   -21944186.05307 -17259720.46248        52.000
        46.000        1888.214        1471.336
 14  1 10  0 37  0.0000000  0  8G31G25G14G12G04G02G24G29
  22648997.487    22648989.901   -12430406.85806  -9617149.27347        46.000
        37.000        2786.076        2170.969
  20263046.026    20263042.331   -23231620.71008 -18075422.36648        54.000
        48.000         233.503         181.951
  22560791.713    22560786.053   -12630414.98906  -9787365.81546        45.000
        31.000       -2068.484       -1611.806
  21338574.701    21338568.005   -19117671.36407 -14861390.17547        51.000
        43.000       -2002.976       -1560.760
  24428970.832    24428963.836    -3723606.90505  -2897701.65345        41.000
        18.000       -2557.229       -1992.646
  22566388.779    22566380.595   -13926458.03006 -10847440.59247        47.000
        36.000          60.198          46.907
  24093431.569    24093428.462    -4595037.58005  -3538823.41546        41.000
        27.000       -3651.502       -2845.326
  20696500.663    20696494.365   -22000605.30307 -17303683.50848        52.000
        46.000        1873.088        1459.549
 14  1 10  0 37 30.0000000  0  8G31G25G14G12G04G02G24G29
  22633117.698    22633110.805   -12513851.92006  -9682171.39547        46.000
        37.000        2776.928        2163.840
  20261746.435    20261742.628   -23238450.65608 -18080744.40148        55.000
        48.000         221.840         172.863
  22572643.054    22572637.111   -12568138.92306  -9738839.09247        43.000
        32.000       -2083.306       -1623.355
  21350032.396    21350025.951   -19057458.91407 -14814471.39247        49.000
        43.000       -2011.177       -1567.151
  24443612.678    24443605.542    -3646665.82306  -2837747.52146        43.000
        21.000       -2572.056       -2004.200
  22566096.285    22566087.633   -13927995.83607 -10848638.87247        48.000
        36.000          42.387          33.029
  24114290.323    24114287.827    -4485422.63504  -3453409.20746        38.000
        25.000       -3656.255       -2849.030
  20685851.471    20685845.410   -22056566.01707 -17347289.23848        51.000
        46.000        1857.636        1447.509
 14  1 10  0 38  0.0000000  0  8G31G25G14G12G04G02G24G29
  22617290.500    22617283.185   -12597026.78706  -9746982.98547        46.000
        37.000        2767.932        2156.830
  20260511.762    20260508.142   -23244938.16508 -18085799.60548        55.000
        48.000         210.447         163.985
  22584577.211    22584570.882   -12505424.40306  -9689970.70547        44.000
        32.000       -2097.932       -1634.752
  21361536.007    21361529.270   -18997007.65507 -14767366.52347        51.000
        43.000       -2019.065       -1573.297
  24458336.555    24458330.783    -3569287.41305  -2777452.64346        41.000
        21.000       -2586.501       -2015.455
  22565904.465    22565896.203   -13929002.73506 -10849423.45647        47.000
        35.000          24.680          19.231
  24135174.332    24135172.209    -4375674.83504  -3367891.45246        39.000
        25.000       -3660.462       -2852.308
  20675289.617    20675284.218   -22112067.84707 -17390537.41448        52.000
        46.000        1842.288        1435.549
 14  1 10  0 38 30.0000000  0  8G31G25G14G12G04G02G24G29
  22601514.472    22601507.879   -12679928.64307  -9811581.83347        48.000
        37.000        2759.031        2149.895
  20259342.566    20259338.900   -23251082.70508 -18090587.55848        55.000
        48.000         199.266         155.272
  22596594.277    22596588.777   -12442273.59006  -9640762.37246        44.000
        31.000       -2111.955       -1645.679
  21373085.262    21373078.558   -18936317.23307 -14720075.29547        51.000
        43.000       -2026.774       -1579.305
  24473142.952    24473138.094    -3491473.67104  -2716818.59945        39.000
        20.000       -2600.773       -2026.577
  22565813.544    22565805.577   -13929477.84106 -10849793.66447        46.000
        35.000           7.234           5.637
  24156084.367    24156081.203    -4265795.18905  -3282270.93146        40.000
        24.000       -3664.558       -2855.500
  20664815.524    20664810.033   -22167109.63007 -17433427.10448        52.000
        46.000        1827.288        1423.861
 14  1 10  0 39  0.0000000  0  8G31G25G14G12G04G02G24G29
  22585791.407    22585784.568   -12762555.22707  -9875966.18647        48.000
        37.000        2749.642        2142.578
  20258238.593    20258235.059   -23256883.86708 -18095107.93848        55.000
        47.000         187.659         146.228
  22608693.964    22608688.241   -12378688.67306  -9591215.75946        43.000
        31.000       -2126.682       -1657.155
  21384679.495    21384672.504   -18875388.12507 -14672598.07647        50.000
        42.000       -2034.924       -1585.655
  24488032.715    24488027.800    -3413227.32805  -2655847.43245        40.000
        18.000       -2615.447       -2038.010
  22565825.411    22565817.050   -13929420.85906 -10849749.24947        47.000
        35.000         -10.686          -8.327
  24177018.332    24177015.267    -4155785.50205  -3196549.12446        40.000
        24.000       -3669.045       -2858.996
  20654429.296    20654423.569   -22221690.37208 -17475957.52948        53.000
        46.000        1811.639        1411.666
 14  1 10  0 39 30.0000000  0  8G31G25G14G12G04G02G24G29
  22570120.573    22570113.797   -12844905.03507  -9940134.87347        48.000
        37.000        2740.410        2135.384
  20257199.707    20257196.284   -23262342.18808 -18099361.17548        54.000
        48.000         176.328         137.398
  22620875.797    22620869.717   -12314673.42106  -9541333.80846        44.000
        31.000       -2140.928       -1668.256
  21396318.963    21396312.341   -18814221.60907 -14624935.85847        51.000
        43.000       -2042.803       -1591.795
  24503004.204    24502999.137    -3334551.58405  -2594541.68045        41.000
        18.000       -2629.517       -2048.974
  22565937.049    22565928.544   -13928832.13506 -10849290.49047        47.000
        37.000         -28.340         -22.083
  24197976.918    24197973.973    -4045648.48805  -3110728.06446        40.000
        25.000       -3673.340       -2862.343
  20644130.792    20644124.805   -22275809.83008 -17518128.53048        53.000
        46.000        1796.357        1399.759
 14  1 10  0 40  0.0000000  0  8G31G25G14G12G04G02G24G29
  22554503.517    22554496.769   -12926975.83106 -10004086.13847        47.000
        38.000        2731.068        2128.105
  20256226.533    20256222.934   -23267457.43308 -18103347.07948        54.000
        48.000         164.842         128.448
  22633139.855    22633133.622   -12250229.90706  -9491118.14146        44.000
        31.000       -2155.090       -1679.291
  21408003.415    21407996.854   -18752818.84607 -14577089.56347        51.000
        43.000       -2050.593       -1597.864
  24518056.978    24518051.025    -3255448.77805  -2532903.04145        42.000
        19.000       -2643.840       -2060.135
  22566149.991    22566142.024   -13927711.49206 -10848417.25147        47.000
        36.000         -46.188         -35.991
  24218958.678    24218955.903    -3935386.35005  -3024809.49646        40.000
        25.000       -3677.458       -2865.551
  20633920.026    20633914.154   -22329467.60708 -17559939.77248        53.000
        46.000        1780.985        1387.780
 14  1 10  0 40 30.0000000  0  8G31G25G14G12G04G02G24G29
  22538939.689    22538932.596   -13008764.05007 -10067817.21747        48.000
        37.000        2721.541        2120.681
  20255318.534    20255315.074   -23272228.16008 -18107064.52948        54.000
        48.000         153.294         119.450
  22645483.725    22645477.051   -12185359.73706  -9440570.01146        44.000
        31.000       -2169.426       -1690.462
  21419732.918    21419726.556   -18691178.98307 -14529058.50447        52.000
        42.000       -2058.581       -1604.089
  24533188.439    24533185.714    -3175920.31104  -2470932.78745        38.000
        19.000       -2658.093       -2071.241
  22566464.623    22566456.841   -13926057.65807 -10847128.54447        48.000
        37.000         -64.006         -49.875
  24239965.347    24239961.886    -3824999.16905  -2938793.52146        40.000
        23.000       -3681.491       -2868.695
  20623797.295    20623792.025   -22382661.27908 -17601389.36848        53.000
        46.000        1765.345        1375.593
 14  1 10  0 41  0.0000000  0  8G31G25G14G12G04G02G24G29
  22523429.672    22523422.925   -13090267.71007 -10131326.56047        48.000
        38.000        2712.040        2113.278
  20254476.293    20254472.771   -23276654.82708 -18110513.88648        54.000
        48.000         141.830         110.517
  22657908.177    22657902.729   -12120066.07406  -9389691.89846        43.000
        31.000       -2183.488       -1701.419
  21431507.907    21431501.345   -18629303.13507 -14480843.57947        51.000
        42.000       -2066.364       -1610.153
  24548404.649    24548400.159    -3095969.23404  -2408633.33545        38.000
        18.000       -2671.852       -2081.962
  22566881.151    22566872.961   -13923870.78706 -10845424.47547        47.000
        36.000         -81.793         -63.735
  24260994.604    24260991.228    -3714490.18005  -2852682.64546        41.000
        25.000       -3685.738       -2872.004
  20613763.512    20613757.472   -22435390.80908 -17642477.29348        53.000
        46.000        1750.013        1363.647
 14  1 10  0 41 30.0000000  0  8G31G25G14G12G04G02G24G29
  22507974.531    22507968.069   -13171485.51607 -10194613.16847        48.000
        38.000        2702.292        2105.682
  20253699.212    20253695.854   -23280737.82508 -18113695.43448        55.000
        47.000         130.202         101.456
  22670413.394    22670407.762   -12054352.28806  -9338486.40146        44.000
        31.000       -2197.542       -1712.371
  21443326.837    21443320.587   -18567193.54307 -14432446.50247        51.000
        43.000       -2074.442       -1616.448
  24563698.950    24563693.722    -3015598.88605  -2346007.04246        40.000
        21.000       -2685.984       -2092.975
  22567398.179    22567390.107   -13921151.64506 -10843305.65947        47.000
        36.000         -99.666         -77.662
  24282045.665    24282043.321    -3603861.54205  -2766478.51646        41.000
        26.000       -3689.754       -2875.133
  20603817.504    20603811.581   -22487656.36108 -17683203.68348        54.000
        46.000        1734.338        1351.432
 14  1 10  0 42  0.0000000  0  8G31G25G14G12G04G02G24G29
  22492574.117    22492567.107   -13252415.03206 -10257675.12347        46.000
        37.000        2692.763        2098.257
  20252987.694    20252984.181   -23284476.93808 -18116609.02948        54.000
        48.000         118.911          92.658
  22682998.432    22682992.185   -11988220.84006  -9286955.44346        43.000
        31.000       -2211.475       -1723.227
  21455190.583    21455183.884   -18504849.40307 -14383866.66747        50.000
        42.000       -2082.022       -1622.355
  24579071.768    24579067.093    -2934811.88405  -2283056.10445        42.000
        20.000       -2699.819       -2103.755
  22568017.410    22568008.818   -13917900.22706 -10840772.08447        47.000
        36.000        -117.359         -91.448
  24303118.972    24303117.893    -3493114.89505  -2680182.46446        41.000
        23.000       -3693.526       -2878.072
  20593960.328    20593954.254   -22539456.91808 -17723567.73948        53.000
        47.000        1718.896        1339.400
 14  1 10  0 42 30.0000000  0  8G31G25G14G12G04G02G24G29
  22477228.964    22477222.227   -13333053.48507 -10320510.29247        48.000
        38.000        2682.963        2090.621
  20252342.145    20252338.502   -23287871.01608 -18119253.76748        55.000
        48.000         107.397          83.686
  22695661.743    22695655.510   -11921673.82806  -9235100.66046        43.000
        31.000       -2225.181       -1733.908
  21467098.735    21467092.257   -18442270.72707 -14335104.06547        50.000
        42.000       -2089.903       -1628.496
  24594523.916    24594519.279    -2853609.79505  -2219781.68145        40.000
        18.000       -2713.653       -2114.535
  22568737.338    22568728.949   -13914115.26906 -10837822.74747        47.000
        36.000        -135.113        -105.283
  24324216.708    24324213.743    -3382251.43105  -2593795.35046        42.000
        22.000       -3697.457       -2881.135
  20584191.592    20584185.992   -22590790.89708 -17763568.22448        53.000
        47.000        1703.310        1327.254
 14  1 10  0 43  0.0000000  0  8G31G25G14G12G04G02G24G29
  22461939.687    22461933.064   -13413398.83307 -10383117.05447        48.000
        38.000        2673.290        2083.083
  20251761.747    20251757.967   -23290920.33208 -18121629.84748        56.000
        48.000          95.956          74.771
  22708403.781    22708397.989   -11854714.16106  -9182924.35546        43.000
        30.000       -2238.770       -1744.496
  21479051.493    21479045.279   -18379459.09607 -14286159.95547        50.000
        42.000       -2097.594       -1634.488
  24610055.434    24610049.728    -2771995.54204  -2156186.17045        39.000
        17.000       -2727.442       -2125.280
  22569559.218    22569550.448   -13909797.24106 -10834458.04447        47.000
        36.000        -152.828        -119.087
  24345335.909    24345333.123    -3271273.69905  -2507319.20346        42.000
        25.000       -3701.183       -2884.038
  20574511.557    20574506.277   -22641658.23908 -17803205.09448        53.000
        46.000        1687.763        1315.140
 14  1 10  0 43 30.0000000  0  8G31G25G14G12G04G02G24G29
  22446707.156    22446699.564   -13493448.52807 -10445493.43747        49.000
        38.000        2663.331        2075.323
  20251247.150    20251243.430   -23293624.51108 -18123737.00448        55.000
        48.000          84.425          65.785
  22721223.793    22721218.143   -11787344.33806  -9130428.46446        43.000
        31.000       -2252.499       -1755.194
  21491048.323    21491041.883   -18316415.35307 -14237034.96747        50.000
        42.000       -2105.268       -1640.468
  24625663.176    24625658.510    -2689971.71904  -2092271.52845        38.000
        19.000       -2740.907       -2135.772
  22570481.953    22570473.821   -13904946.09206 -10830677.91747        46.000
        36.000        -170.502        -132.859
  24366474.990    24366473.124    -3160183.26805  -2420755.27846        40.000
        23.000       -3704.911       -2886.944
  20564921.263    20564915.632   -22692057.87108 -17842477.52648        53.000
        46.000        1672.281        1303.076
 14  1 10  0 44  0.0000000  0  8G31G25G14G12G04G02G24G29
  22431530.365    22431523.618   -13573201.11707 -10507638.31247        49.000
        38.000        2653.524        2067.681
  20250798.119    20250794.549   -23295984.09708 -18125575.64048        55.000
        48.000          72.977          56.865
  22734121.097    22734116.015   -11719567.90806  -9077615.72547        43.000
        32.000       -2265.861       -1765.606
  21503089.573    21503082.825   -18253140.10907 -14187729.59347        52.000
        42.000       -2112.897       -1646.413
  24641350.658    24641344.522    -2607541.64805  -2028040.36346        40.000
        21.000       -2754.318       -2146.222
  22571506.791    22571498.263   -13899562.11606 -10826482.60647        46.000
        36.000        -188.249        -146.687
  24387636.677    24387633.293    -3048982.71005  -2334105.51046        41.000
        23.000       -3708.376       -2889.643
  20555419.483    20555413.850   -22741989.97908 -17881385.65048        53.000
        47.000        1656.727        1290.956
 14  1 10  0 44 30.0000000  0  8G31G25G14G12G04G02G24G29
  22416410.998    22416403.884   -13652654.04107 -10569549.68147        48.000
        38.000        2643.510        2059.878
  20250414.604    20250410.838   -23297998.53308 -18127145.32948        54.000
        48.000          61.484          47.910
  22747095.773    22747090.163   -11651387.08806  -9024487.86946        43.000
        30.000       -2279.219       -1776.015
  21515174.261    21515167.403   -18189633.66107 -14138244.05847        51.000
        43.000       -2120.645       -1652.451
  24657113.698    24657107.186    -2524707.50105  -1963494.23545        41.000
        20.000       -2767.661       -2156.619
  22572632.924    22572624.371   -13893645.45806 -10821872.20247        46.000
        36.000        -205.958        -160.486
  24408817.686    24408814.044    -2937673.66205  -2247371.11946        41.000
        25.000       -3712.095       -2892.542
  20546006.746    20546001.194   -22791453.39708 -17919928.57648        54.000
        47.000        1641.079        1278.763
 14  1 10  0 45  0.0000000  0  8G31G25G14G12G04G02G24G29
  22401349.516    22401342.548   -13731804.19307 -10631225.12247        48.000
        38.000        2633.487        2052.068
  20250097.113    20250093.758   -23299666.95908 -18128445.39948        55.000
        48.000          49.932          38.908
  22760147.028    22760141.385   -11582803.87206  -8971046.44246        43.000
        30.000       -2292.641       -1786.474
  21527303.068    21527296.158   -18125896.05007 -14088578.39547        51.000
        42.000       -2128.222       -1658.355
  24672952.735    24672946.311    -2441471.52005  -1898635.01945        41.000
        18.000       -2781.054       -2167.055
  22573860.358    22573851.777   -13887195.19606 -10816846.00447        46.000
        36.000        -223.705        -174.316
  24430017.479    24430016.807    -2826257.41704  -2160553.28246        38.000
        23.000       -3715.449       -2895.155
  20536683.644    20536677.940   -22840446.84308 -17958105.28148        53.000
        46.000        1625.411        1266.554
 14  1 10  0 45 30.0000000  0  8G31G25G14G12G04G02G24G29
  22386345.900    22386338.508   -13810649.83407 -10692663.27647        48.000
        39.000        2623.159        2044.020
  20249845.460    20249841.556   -23300989.80008 -18129476.18448        55.000
        48.000          38.471          29.978
  22773273.351    22773267.943   -11513821.77006  -8917294.18446        43.000
        30.000       -2305.874       -1796.785
  21539475.726    21539469.000   -18061929.46807 -14038734.30847        51.000
        41.000       -2135.987       -1664.405
  24688867.486    24688860.820    -2357836.73404  -1833465.01145        38.000
        16.000       -2794.278       -2177.359
  22575189.148    22575180.436   -13880211.91506 -10811404.47047        46.000
        36.000        -241.538        -188.212
  24451241.078    24451238.016    -2714736.32605  -2073653.77846        41.000
        25.000       -3719.058       -2897.967
  20527450.114    20527444.484   -22888970.44208 -17995915.87048        53.000
        47.000        1609.668        1254.286
 14  1 10  0 46  0.0000000  0  8G31G25G14G12G04G02G24G29
  22371399.823    22371393.256   -13889188.79707 -10753862.47147        48.000
        38.000        2612.789        2035.940
  20249659.483    20249655.779   -23301966.78308 -18130237.46548        54.000
        48.000          26.788          20.874
  22786475.239    22786470.463   -11444443.33306  -8863233.08046        43.000
        31.000       -2319.203       -1807.171
  21551691.562    21551685.024   -17997733.60307 -13988711.56547        51.000
        42.000       -2143.671       -1670.393
  24704858.630    24704851.556    -2273805.77805  -1767986.33845        40.000
        18.000       -2807.538       -2187.692
  22576619.361    22576610.394   -13872695.73306 -10805547.68147        47.000
        37.000        -259.432        -202.155
  24472482.948    24472478.650    -2603112.17805  -1986673.90746        40.000
        22.000       -3722.567       -2900.702
  20518305.874    20518299.886   -22937023.48908 -18033359.80548        53.000
        47.000        1593.917        1242.014
 14  1 10  0 46 30.0000000  0  8G31G25G14G12G04G02G24G29
  22356513.487    22356506.629   -13967418.72807 -10814820.85447        49.000
        39.000        2602.522        2027.939
  20249539.461    20249535.797   -23302597.44908 -18130728.88948        55.000
        48.000          15.295          11.918
  22799753.198    22799747.474   -11374670.95406  -8808865.02346        44.000
        30.000       -2332.249       -1817.337
  21563951.399    21563944.819   -17933308.54107 -13938510.22747        51.000
        42.000       -2151.238       -1676.289
  24720923.682    24720917.883    -2189381.09405  -1702200.88745        41.000
        20.000       -2820.730       -2197.971
  22578150.997    22578142.236   -13864646.43906 -10799275.49347        47.000
        36.000        -277.205        -216.004
  24493742.306    24493740.286    -2491387.23304  -1899615.49646        39.000
        21.000       -3725.740       -2903.174
  20509251.184    20509245.422   -22984605.17808 -18070436.43548        54.000
        47.000        1578.239        1229.797
 14  1 10  0 47  0.0000000  0  8G31G25G14G12G04G02G24G29
  22341685.647    22341679.241   -14045337.21007 -10875536.55047        48.000
        39.000        2592.061        2019.788
  20249485.571    20249481.707   -23302881.96908 -18130950.58848        55.000
        48.000           3.619           2.820
  22813104.745    22813099.602   -11304507.80005  -8754192.47946        42.000
        30.000       -2345.214       -1827.440
  21576254.222    21576247.707   -17868655.99207 -13888131.63247        52.000
        42.000       -2158.881       -1682.245
  24737063.406    24737057.556    -2104565.47605  -1636110.84446        41.000
        21.000       -2833.730       -2208.101
  22579783.987    22579774.844   -13856064.49306 -10792588.26247        47.000
        36.000        -294.975        -229.851
  24515022.786    24515019.654    -2379563.57405  -1812480.20846        41.000
        25.000       -3729.072       -2905.770
  20500286.632    20500280.847   -23031715.15908 -18107145.49548        53.000
        47.000        1562.422        1217.472
 14  1 10  0 47 30.0000000  0  8G31G25G14G12G04G02G24G29
  22326918.274    22326911.402   -14122941.94206 -10936007.77147        47.000
        39.000        2581.566        2011.610
  20249497.171    20249493.603   -23302819.79908 -18130902.14848        55.000
        48.000          -7.984          -6.222
  22826530.167    22826524.538   -11233956.51506  -8699217.47146        43.000
        30.000       -2358.302       -1837.638
  21588600.637    21588594.163   -17803775.71207 -13837575.58247        51.000
        42.000       -2166.568       -1688.235
  24753276.231    24753271.769    -2019361.41403  -1569718.07145        37.000
        18.000       -2846.637       -2218.159
  22581518.393    22581509.626   -13846949.69906 -10785485.82247        47.000
        36.000        -312.813        -243.751
  24536319.826    24536317.202    -2267642.60304  -1725269.05546        39.000
        22.000       -3732.311       -2908.294
  20491411.769    20491406.125   -23078352.17608 -18143486.02148        54.000
        47.000        1546.625        1205.162
 14  1 10  0 48  0.0000000  0  8G31G25G14G12G04G02G24G29
  22312210.787    22312204.189   -14200230.60807 -10996232.70447        48.000
        39.000        2571.090        2003.447
  20249575.075    20249571.493   -23302410.74308 -18130583.39748        54.000
        48.000         -19.300         -15.039
  22840028.784    22840023.515   -11163019.71706  -8643942.06646        43.000
        30.000       -2370.839       -1847.407
  21600989.983    21600983.853   -17738668.33207 -13786842.57347        51.000
        41.000       -2173.929       -1693.971
  24769563.514    24769558.867    -1933771.43302  -1503024.53745        34.000
        15.000       -2859.364       -2228.076
  22583354.832    22583345.448   -13837302.12306 -10777968.21847        47.000
        37.000        -330.360        -257.423
  24557635.878    24557633.033    -2155626.34804  -1637983.68146        38.000
        21.000       -3735.350       -2910.663
  20482627.004    20482621.441   -23124516.03308 -18179457.85348        53.000
        47.000        1531.046        1193.023
 14  1 10  0 48 30.0000000  0  8G31G25G14G12G04G02G24G29
  22297563.560    22297557.049   -14277201.70507 -11056210.18147        48.000
        39.000        2560.449        1995.155
  20249718.854    20249715.019   -23301655.32408 -18129994.75948        54.000
        48.000         -30.874         -24.058
  22853600.629    22853595.258   -11091700.84706  -8588368.95346        43.000
        30.000       -2383.506       -1857.277
  21613422.591    21613415.933   -17673335.62207 -13735933.99447        51.000
        42.000       -2181.455       -1699.835
  24785922.895    24785919.500    -1847799.13404  -1436033.09045        38.000
        16.000       -2872.149       -2238.038
  22585291.213    22585282.612   -13827122.72006 -10770036.20447        47.000
        36.000        -348.081        -271.232
  24578970.314    24578966.934    -2043517.25905  -1550625.92146        41.000
        22.000       -3738.355       -2913.004
  20473932.544    20473926.946   -23170206.96508 -18215061.15348        53.000
        47.000        1515.200        1180.675
 14  1 10  0 49  0.0000000  0  8G31G25G14G12G04G02G24G29
  22282977.239    22282970.265   -14353852.19007 -11115937.82647        49.000
        39.000        2549.664        1986.751
  20249928.679    20249924.749   -23300552.64508 -18129135.52848        55.000
        47.000         -42.533         -33.143
  22867243.665    22867238.366   -11020002.01605  -8532499.78346        42.000
        29.000       -2396.215       -1867.180
  21625897.873    21625891.714   -17607777.48207 -13684849.73247        51.000
        42.000       -2188.944       -1705.671
  24802356.052    24802351.055    -1761446.58105  -1368745.32646        40.000
        21.000       -2884.726       -2247.838
  22587329.516    22587320.332   -13816410.67307 -10761689.14347        48.000
        36.000        -365.922        -285.134
  24600320.236    24600318.951    -1931316.72305  -1463196.95446        40.000
        23.000       -3741.474       -2915.434
  20465327.783    20465322.387   -23215423.70208 -18250294.97048        54.000
        47.000        1499.312        1168.295
 14  1 10  0 49 30.0000000  0  8G31G25G14G12G04G02G24G29
  22268452.807    22268445.914   -14430179.60407 -11175413.72347        48.000
        39.000        2538.916        1978.376
  20250204.577    20250200.836   -23299102.47608 -18128005.52548        54.000
        48.000         -54.087         -42.145
  22880959.507    22880954.027   -10947926.28705  -8476336.91546        42.000
        29.000       -2408.720       -1876.925
  21638416.078    21638409.458   -17541994.19407 -13633590.05047        51.000
        42.000       -2196.381       -1711.466
  24818859.942    24818854.733    -1674716.46104  -1301163.42445        39.000
        20.000       -2897.280       -2257.620
  22589469.723    22589460.564   -13805166.26607 -10752927.25547        48.000
        36.000        -383.588        -298.900
  24621689.106    24621685.773    -1819026.28805  -1375697.94446        40.000
        21.000       -3744.292       -2917.630
  20456813.819    20456807.889   -23260165.56708 -18285158.74948        53.000
        47.000        1483.594        1156.047
 14  1 10  0 50  0.0000000  0  8G31G25G14G12G04G02G24G29
  22253990.269    22253983.591   -14506182.03706 -11234636.39347        47.000
        39.000        2528.045        1969.905
  20250546.733    20250542.692   -23297304.95908 -18126604.85848        54.000
        47.000         -65.549         -51.077
  22894746.614    22894741.328   -10875476.76706  -8419882.77846        43.000
        29.000       -2421.047       -1886.530
  21650976.665    21650970.008   -17475986.80407 -13582155.72847        51.000
        42.000       -2203.810       -1717.255
  24835435.632    24835430.747    -1587611.41404  -1233289.42045        38.000
        19.000       -2909.572       -2267.199
  22591710.739    22591701.258   -13793390.24306 -10743751.12147        47.000
        36.000        -401.335        -312.728
  24643074.275    24643070.323    -1706648.59405  -1288130.86346        41.000
        21.000       -3747.131       -2919.842
  20448390.062    20448384.325   -23304432.31307 -18319652.31248        52.000
        47.000        1467.767        1143.714
 14  1 10  0 50 30.0000000  0  8G31G25G14G12G04G02G24G29
  22239589.554    22239582.381   -14581856.99907 -11293603.89647        48.000
        39.000        2517.088        1961.368
  20250954.942    20250950.925   -23295159.60808 -18124933.14948        54.000
        48.000         -77.165         -60.128
  22908604.083    22908598.509   -10802655.54206  -8363139.00746        43.000
        30.000       -2433.458       -1896.201
  21663579.762    21663573.515   -17409755.59507 -13530546.99547        51.000
        41.000       -2211.344       -1723.125
  24852081.347    24852078.257    -1500133.96603  -1165125.28745        36.000
        16.000       -2921.866       -2276.779
  22594052.358    22594043.956   -13781082.48406 -10734160.63947        47.000
        36.000        -419.010        -326.502
  24664475.190    24664471.790    -1594185.33305  -1200497.12746        41.000
        22.000       -3749.919       -2922.015
  20440056.937    20440051.424   -23348223.14307 -18353775.01348        52.000
        48.000        1451.888        1131.341
 14  1 10  0 51  0.0000000  0  8G31G25G14G12G04G02G24G29
  22225252.094    22225245.355   -14657202.00607 -11352314.28947        48.000
        39.000        2505.931        1952.673
  20251429.523    20251425.613   -23292665.94608 -18122990.03348        54.000
        47.000         -88.898         -69.272
  22922531.162    22922526.536   -10729465.49405  -8306107.81546        42.000
        30.000       -2445.812       -1905.828
  21676226.598    21676219.608   -17343300.53807 -13478763.85447        51.000
        41.000       -2218.840       -1728.966
  24868799.341    24868794.794    -1412286.70104  -1096672.84945        39.000
        15.000       -2934.450       -2286.584
  22596495.605    22596487.091   -13768242.53506 -10724155.47747        46.000
        36.000        -436.843        -340.397
  24685890.824    24685889.354    -1481637.71604  -1112797.72346        38.000
        22.000       -3752.956       -2924.381
  20431814.550    20431808.594   -23391537.62708 -18387526.54948        53.000
        48.000        1435.916        1118.896
 14  1 10  0 51 30.0000000  0  8G31G25G14G12G04G02G24G29
  22210977.197    22210970.877   -14732215.98606 -11410766.73247        47.000
        40.000        2495.089        1944.225
  20251970.037    20251966.316   -23289825.17308 -18120776.44248        54.000
        48.000        -100.419         -78.249
  22936528.901    22936523.565   -10655910.71006  -8248792.44646        43.000
        30.000       -2457.812       -1915.178
  21688914.142    21688907.466   -17276624.06807 -13426808.18347        50.000
        40.000       -2226.142       -1734.656
  24885586.865    24885580.119    -1324073.36905  -1027934.97645        40.000
        16.000       -2946.406       -2295.900
  22599039.975    22599031.777   -13754872.67207 -10713737.40647        48.000
        36.000        -454.364        -354.050
  24707324.483    24707322.217    -1369008.89305  -1025035.05346        40.000
        23.000       -3755.575       -2926.422
  20423662.849    20423656.769   -23434376.38108 -18420907.38448        53.000
        48.000        1420.108        1106.578
 14  1 10  0 52  0.0000000  0  8G31G25G14G12G04G02G24G29
  22196766.244    22196759.502   -14806895.59606 -11468958.63247        47.000
        39.000        2483.688        1935.341
  20252576.709    20252573.586   -23286636.22708 -18118291.53748        53.000
        47.000        -112.148         -87.388
  22950594.593    22950589.715   -10581993.00806  -8191194.24146        44.000
        29.000       -2469.975       -1924.656
  21701644.553    21701637.810   -17209725.75007 -13374679.64247        50.000
        41.000       -2233.637       -1740.496
  24902440.679    24902435.328    -1235496.12504   -958913.80445        38.000
        18.000       -2958.691       -2305.473
  22601685.505    22601676.906   -13740972.02006 -10702905.71547        47.000
        37.000        -472.157        -367.915
  24728771.957    24728768.897    -1256300.32104   -937210.12745        39.000
        20.000       -3758.173       -2928.446
  20415601.656    20415595.415   -23476738.15508 -18453916.54748        53.000
        48.000        1403.980        1094.011
 14  1 10  0 52 30.0000000  0  8G31G25G14G12G04G02G24G29
  22182619.394    22182612.742   -14881238.76507 -11526888.36947        48.000
        40.000        2472.754        1926.821
  20253249.764    20253246.325   -23283098.61508 -18115534.95548        53.000
        48.000        -123.452         -96.196
  22964729.592    22964724.197   -10507715.31806  -8133315.55246        43.000
        29.000       -2481.548       -1933.674
  21714417.209    21714410.183   -17142606.38307 -13322378.86447        48.000
        41.000       -2240.805       -1746.082
  24919365.762    24919360.479    -1146557.11104   -889610.76045        38.000
        19.000       -2970.347       -2314.556
  22604431.633    22604423.238   -13726540.52106 -10691660.38847        47.000
        37.000        -489.585        -381.495
  24750233.853    24750231.503    -1143514.05503   -849324.70545        36.000
        20.000       -3760.620       -2930.353
  20407631.284    20407625.370   -23518622.28108 -18486553.50848        54.000
        48.000        1388.452        1081.911
 14  1 10  0 53  0.0000000  0  8G31G25G14G12G04G02G24G29
  22168536.731    22168529.681   -14955243.30206 -11584554.24147        47.000
        40.000        2461.071        1917.718
  20253989.450    20253985.966   -23279212.55708 -18112506.85848        54.000
        48.000        -135.340        -105.460
  22978931.864    22978926.633   -10433080.74906  -8075158.76546        43.000
        29.000       -2493.782       -1943.207
  21727231.566    21727224.844   -17075266.50907 -13269906.26147        50.000
        41.000       -2248.377       -1751.982
  24936358.353    24936353.292    -1057259.82804   -820028.45845        38.000
        19.000       -2982.537       -2324.055
  22607279.172    22607270.489   -13711578.98206 -10680002.03947        47.000
        37.000        -507.581        -395.518
  24771711.823    24771709.127    -1030652.12604   -761380.38846        39.000
        23.000       -3763.255       -2932.406
  20399751.526    20399745.901   -23560029.09007 -18518818.53048        52.000
        48.000        1372.282        1069.311
 14  1 10  0 53 30.0000000  0  8G31G25G14G12G04G02G24G29
  22154518.605    22154512.354   -15028907.67807 -11641955.04547        48.000
        39.000        2450.071        1909.146
  20254795.353    20254791.633   -23274978.42508 -18109207.52748        53.000
        47.000        -146.696        -114.309
  22993201.657    22993196.218   -10358092.66906  -8016726.51846        44.000
        30.000       -2505.163       -1952.075
  21740087.657    21740080.995   -17007707.05707 -13217262.55047        50.000
        41.000       -2255.363       -1757.426
  24953419.182    24953413.970     -967607.38805   -750169.39245        40.000
        19.000       -2994.152       -2333.105
  22610226.568    22610218.358   -13696088.29106 -10667931.37947        46.000
        36.000        -524.899        -409.013
  24793201.699    24793199.699     -917716.08903   -673378.24946        37.000
        21.000       -3765.525       -2934.175
  20391963.254    20391957.695   -23600958.04308 -18550711.20148        53.000
        48.000        1356.614        1057.102
 14  1 10  0 54  0.0000000  0  8G31G25G14G12G04G02G24G29
  22140566.270    22140559.458   -15102228.09107 -11699087.82847        48.000
        40.000        2438.261        1899.944
  20255667.531    20255663.833   -23270394.73208 -18105635.81748        54.000
        47.000        -158.472        -123.485
  23007537.903    23007533.343   -10282752.67206  -7958020.06046        44.000
        28.000       -2517.026       -1961.319
  21752986.091    21752979.279   -16939927.42707 -13164447.27247        50.000
        41.000       -2262.871       -1763.276
  24970545.979    24970541.712     -877600.69703   -680034.25045        36.000
        16.000       -3006.182       -2342.479
  22613275.025    22613266.661   -13680067.55406 -10655447.67947        47.000
        36.000        -542.710        -422.891
  24814707.113    24814704.429     -804707.78803   -585319.75945        37.000
        19.000       -3767.891       -2936.019
  20384265.992    20384260.177   -23641407.51708 -18582230.25548        54.000
        48.000        1340.366        1044.441
 14  1 10  0 54 30.0000000  0  8G31G25G14G12G04G02G24G29
  22126679.770    22126673.023   -15175202.59107 -11755951.08047        48.000
        40.000        2426.923        1891.109
  20256606.340    20256602.379   -23265461.75908 -18101791.94648        54.000
        48.000        -170.084        -132.533
  23021941.655    23021936.516   -10207064.28206  -7899042.11346        44.000
        29.000       -2528.482       -1970.246
  21765925.197    21765918.573   -16871929.43107 -13111461.84247        50.000
        41.000       -2270.045       -1768.866
  24987739.495    24987736.249     -787244.10402   -609626.48042        34.000
        13.000       -3017.354       -2351.185
  22616424.331    22616416.001   -13663517.55506 -10642551.56147        47.000
        36.000        -560.274        -436.577
  24836225.140    24836223.485     -691628.92604   -497206.40146        39.000
        22.000       -3770.211       -2937.827
  20376659.758    20376654.003   -23681377.79708 -18613375.90148        53.000
        48.000        1324.584        1032.143
 14  1 10  0 55  0.0000000  0  8G31G25G14G12G04G02G24G29
  22112859.571    22112852.952   -15247829.31707 -11812543.31747        48.000
        40.000        2415.189        1881.965
  20257611.515    20257607.745   -23260179.60408 -18097675.97848        53.000
        48.000        -181.808        -141.669
  23036410.967    23036405.010   -10131030.40706  -7839794.95246        44.000
        29.000       -2540.109       -1979.306
  21778906.625    21778899.565   -16803713.13407 -13058306.30047        49.000
        41.000       -2277.340       -1774.551
  25005000.402    25004996.838     -696539.16202   -538947.35545        34.000
        15.000       -3029.376       -2360.553
  22619674.234    22619665.810   -13646438.94606 -10629243.53247        46.000
        37.000        -578.009        -450.397
  24857755.382    24857753.733     -578482.03303   -409040.00646        37.000
        22.000       -3772.536       -2939.638
  20369144.951    20369139.349   -23720868.81308 -18644148.09148        53.000
        48.000        1308.387        1019.522
 14  1 10  0 55 30.0000000  0  8G31G25G14G12G04G02G24G29
  22099105.722    22099098.899   -15320107.21207 -11868863.75547        50.000
        40.000        2403.473        1872.836
  20258682.547    20258678.911   -23254549.14008 -18093288.59848        54.000
        47.000        -193.367        -150.676
  23050944.569    23050938.849   -10054654.92806  -7780281.59046        43.000
        29.000       -2551.453       -1988.146
  21791928.698    21791921.878   -16735280.23807 -13004981.98347        49.000
        41.000       -2284.583       -1780.195
  25022327.750    25022322.891     -605491.03904   -468000.78645        39.000
        18.000       -3040.628       -2369.321
  22623024.470    22623016.474   -13628833.31106 -10615524.84947        47.000
        37.000        -595.404        -463.951
  24879298.143    24879298.140     -465269.90901   -320822.80145        33.000
        20.000       -3774.676       -2941.306
  20361720.933    20361715.144   -23759881.35808 -18674547.43948        54.000
        48.000        1292.531        1007.167
 14  1 10  0 56  0.0000000  0  7G31G25G14G12G02G24G29
  22085418.406    22085411.342   -15392032.85507 -11924909.69947        49.000
        40.000        2391.520        1863.522
  20259820.709    20259817.133   -23248569.12608 -18088628.85048        54.000
        48.000        -205.292        -159.967
  23065542.515    23065537.471    -9977940.04306  -7720503.78946        44.000
        29.000       -2562.972       -1997.121
  21804992.144    21804985.211   -16666630.35007 -12951488.59047        50.000
        41.000       -2292.044       -1786.009
  22626475.322    22626466.421   -13610700.05506 -10601395.03947        47.000
        36.000        -613.343        -477.930
  24900856.056    24900852.572     -351993.36703   -232555.26645        37.000
        18.000       -3777.249       -2943.311
  20354388.365    20354382.641   -23798413.94308 -18704572.80148        53.000
        48.000        1276.296         994.516
 14  1 10  0 56 30.0000000  0  7G31G25G14G12G02G24G29
  22071798.578    22071791.803   -15463603.89407 -11980679.34047        49.000
        40.000        2379.920        1854.483
  20261025.152    20261021.576   -23242239.14808 -18083696.39648        54.000
        48.000        -216.696        -168.854
  23080205.373    23080200.192    -9900888.35006  -7660463.54146        44.000
        30.000       -2573.884       -2005.624
  21818097.277    21818090.776   -16597764.05107 -12897826.56347        50.000
        40.000       -2298.996       -1791.425
  22630026.047    22630017.233   -13592039.31506 -10586854.19747        45.000
        36.000        -630.720        -491.470
  24922425.100    24922420.506     -238654.00004   -144238.96746        38.000
        22.000       -3778.991       -2944.668
  20347147.276    20347141.704   -23836466.10608 -18734223.80648        53.000
        48.000        1260.452         982.171
 14  1 10  0 57  0.0000000  0  7G31G25G14G12G02G24G29
  22058247.241    22058240.714   -15534817.85507 -12036170.73947        49.000
        40.000        2367.785        1845.027
  20262296.386    20262292.740   -23235559.28008 -18078491.30148        54.000
        48.000        -228.573        -178.108
  23094931.332    23094925.871    -9823502.86606  -7600163.18646        44.000
        29.000       -2585.027       -2014.307
  21831243.258    21831236.509   -16528681.99007 -12843996.39547        48.000
        40.000       -2306.336       -1797.145
  22633677.002    22633668.355   -13572851.75106 -10571902.83047        46.000
        35.000        -648.406        -505.252
  24944003.371    24944000.428     -125254.22702    -55875.44345        35.000
        19.000       -3780.873       -2946.135
  20339997.674    20339991.886   -23874037.64608 -18763500.29248        53.000
        48.000        1244.343         969.618
 14  1 10  0 57 30.0000000  0  7G31G25G14G12G02G24G29
  22044763.998    22044756.929   -15605672.79407 -12091382.36747        50.000
        40.000        2355.698        1835.609
  20263634.243    20263630.564   -23228529.52808 -18073013.57248        54.000
        48.000        -240.317        -187.260
  23109720.056    23109714.363    -9745786.73905  -7539605.17046        42.000
        29.000       -2596.084       -2022.923
  21844430.315    21844423.605   -16459384.86907 -12789998.66047        49.000
        40.000       -2313.564       -1802.777
  22637428.689    22637419.966   -13553137.97206 -10556541.44547        46.000
        36.000        -665.977        -518.943
  24965594.579    24965590.874      -11796.08404     32533.43646        39.000
        21.000       -3782.808       -2947.642
  20332939.694    20332933.458   -23911128.43708 -18792402.18048        53.000
        48.000        1228.257         957.083
 14  1 10  0 58  0.0000000  0  7G31G25G14G12G02G24G29
  22031349.700    22031342.651   -15676166.63607 -12146312.63147        50.000
        40.000        2343.690        1826.252
  20265038.191    20265034.820   -23221149.82208 -18067263.14348        53.000
        48.000        -251.818        -196.222
  23124571.056    23124565.477    -9667743.03805  -7478791.91146        42.000
        28.000       -2606.881       -2031.336
  21857657.894    21857651.230   -16389873.41607 -12735833.92847        49.000
        41.000       -2320.602       -1808.261
  22641280.265    22641271.494   -13532898.77506 -10540770.63747        46.000
        35.000        -683.385        -532.508
  24987194.112    24987191.012      101718.19003    120986.29745        36.000
        18.000       -3784.679       -2949.101
  20325972.723    20325966.987   -23947738.24408 -18820929.27848        53.000
        48.000        1212.274         944.629
 14  1 10  0 58 30.0000000  0  7G31G25G14G12G02G24G29
  22018004.273    22017997.387   -15746296.94207 -12200959.61347        50.000
        41.000        2331.621        1816.847
  20266509.385    20266505.447   -23213419.64208 -18061239.63148        55.000
        47.000        -263.550        -205.364
  23139484.825    23139478.837    -9589374.42106  -7417725.47146        44.000
        29.000       -2617.764       -2039.816
  21870926.047    21870919.512   -16320148.11807 -12681502.54747        49.000
        40.000       -2327.779       -1813.853
  22645231.750    22645222.582   -13512134.29906 -10524590.52447        46.000
        36.000        -700.816        -546.090
  25008806.575    25008803.428      215287.12503    209481.51746        37.000
        21.000       -3786.592       -2950.591
  20319097.943    20319092.183   -23983866.56508 -18849081.19548        53.000
        48.000        1196.250         932.143
 14  1 10  0 59  0.0000000  0  7G31G25G14G12G02G24G29
  22004728.596    22004721.747   -15816061.43207 -12255321.55447        50.000
        41.000        2319.403        1807.327
  20268047.367    20268043.602   -23205338.95208 -18054942.98948        54.000
        47.000        -275.104        -214.367
  23154458.354    23154453.192    -9510683.75206  -7356408.07746        43.000
        28.000       -2628.386       -2048.093
  21884235.137    21884228.215   -16250209.26807 -12627004.76247        49.000
        41.000       -2334.841       -1819.356
  22649282.471    22649273.868   -13490845.19906 -10508001.59647        45.000
        36.000        -718.293        -559.709
  25030426.801    25030425.444      328909.24502    298018.24645        35.000
        20.000       -3788.044       -2951.722
  20312314.490    20312308.715   -24019513.15608 -18876857.73548        54.000
        49.000        1180.203         919.639
 14  1 10  0 59 30.0000000  0  7G31G25G14G12G02G24G29
  21991522.682    21991515.425   -15885458.16107 -12309396.92047        50.000
        41.000        2307.213        1797.828
  20269651.663    20269647.685   -23196907.93408 -18048373.36548        53.000
        47.000        -286.674        -223.382
  23169494.190    23169488.174    -9431674.47306  -7294842.40846        43.000
        28.000       -2638.734       -2056.157
  21897584.246    21897577.333   -16180058.16807 -12572341.59047        48.000
        40.000       -2341.762       -1824.749
  22653433.712    22653424.955   -13469032.48506 -10491004.67047        45.000
        35.000        -735.658        -573.240
  25052057.195    25052056.485      442581.83702    386594.24145        34.000
        20.000       -3789.604       -2952.938
  20305622.765    20305616.728   -24054678.34108 -18904259.14948        53.000
        49.000        1164.259         907.215
 14  1 10  1  0  0.0000000  0  7G31G25G14G12G02G24G29
  21978387.387    21978380.536   -15954484.83507 -12363183.93047        50.000
        41.000        2294.983        1788.298
  20271322.367    20271318.822   -23188126.60808 -18041530.76848        53.000
        48.000        -298.332        -232.467
  23184588.786    23184583.227    -9352349.78406  -7233030.96946        43.000
        28.000       -2649.124       -2064.252
  21910973.605    21910966.825   -16109695.35707 -12517513.44947        48.000
        40.000       -2348.718       -1830.170
  22657684.248    22657675.594   -13446696.80206 -10473600.24447        46.000
        36.000        -752.942        -586.708
  25073699.059    25073695.535      556302.67803    475208.14245        36.000
        17.000       -3791.296       -2954.257
  20299022.732    20299017.018   -24089362.08408 -18931285.41748        54.000
        49.000        1148.352         894.820
 14  1 10  1  0 30.0000000  0  7G31G25G14G12G02G24G29
  21965323.033    21965315.977   -16023138.45107 -12416680.25047        51.000
        41.000        2282.085        1778.248
  20273060.672    20273056.721   -23178993.87508 -18034414.35648        54.000
        47.000        -310.322        -241.809
  23199742.955    23199737.808    -9272711.51005  -7170975.16546        42.000
        28.000       -2659.897       -2072.647
  21924403.653    21924397.086   -16039120.59807 -12462520.16547        49.000
        40.000       -2356.157       -1835.966
  22662033.711    22662025.589   -13423837.93106 -10455788.13247        46.000
        36.000        -771.703        -601.327
  25095349.164    25095345.620      670071.21402    563858.88945        34.000
        19.000       -3792.910       -2955.514
  20292514.454    20292508.672   -24123563.17908 -18957935.60148        54.000
        49.000        1131.919         882.015
 14  1 10  1  1  0.0000000  0  7G31G25G14G12G02G24G29
  21952329.550    21952322.511   -16091418.25407 -12469885.28947        50.000
        42.000        2269.763        1768.647
  20274865.273    20274861.287   -23169510.79108 -18027024.94448        53.000
        47.000        -321.956        -250.874
  23214956.783    23214951.431    -9192764.04105  -7108678.42746        41.000
        27.000       -2670.007       -2080.525
  21937873.687    21937867.369   -15968335.86307 -12407363.26447        48.000
        40.000       -2363.015       -1841.311
  22666483.030    22666474.394   -13400457.90406 -10437569.92947        46.000
        36.000        -788.035        -614.053
  25117005.814    25117003.417      783883.91602    652544.05746        34.000
        21.000       -3794.544       -2956.787
  20286097.828    20286092.115   -24157282.53508 -18984210.40148        53.000
        49.000        1115.979         869.594
 14  1 10  1  1 30.0000000  0  7G31G25G14G12G02G24G29
  21939408.183    21939401.250   -16159320.76807 -12522796.34047        50.000
        41.000        2257.079        1758.763
  20276736.264    20276732.744   -23159676.16508 -18019361.59648        54.000
        48.000        -333.795        -260.100
  23230228.535    23230223.015    -9112509.32105  -7046142.27246        41.000
        26.000       -2680.309       -2088.552
  21951383.751    21951377.703   -15897340.16007 -12352041.96247        49.000
        40.000       -2370.119       -1846.846
  22671031.423    22671022.748   -13376556.24006 -10418945.24647        46.000
        35.000        -805.441        -627.616
  25138671.197    25138669.594      897740.16502    741263.24745        35.000
        20.000       -3795.983       -2957.909
  20279773.079    20279767.787   -24190518.94908 -19010108.87548        54.000
        49.000        1099.745         856.944
 14  1 10  1  2  0.0000000  0  7G31G25G14G12G02G24G29
  21926559.507    21926552.493   -16226841.26407 -12575409.70247        51.000
        41.000        2244.420        1748.898
  20278675.214    20278671.298   -23149487.64008 -18011422.48748        53.000
        47.000        -345.297        -269.063
  23245558.640    23245553.902    -9031948.05605  -6983367.27946        42.000
        27.000       -2690.185       -2096.248
  21964934.047    21964927.967   -15826132.25407 -12296555.29947        48.000
        40.000       -2376.889       -1852.121
  22675678.941    22675670.802   -13352131.32606 -10399912.83447        45.000
        36.000        -822.670        -641.042
  25160345.141    25160343.956            .00010  38885616.28245
        18.000       -3797.348       -2958.972
  20273540.498    20273534.920   -24223270.27408 -19035629.35748        53.000
        49.000        1083.814         844.531
 14  1 10  1  2 30.0000000  0  8G31G21G25G14G12G02G24G29
  21913782.370    21913775.184   -16293986.02107 -12627730.28747        50.000
        41.000        2231.824        1739.084
  25268649.712                      -25376.37603                          .00051
        37.000        3292.684        2565.728
  20280680.186    20280676.151   -23138953.30408 -18003213.91948        54.000
        48.000        -356.940        -278.135
  23260945.509    23260939.575    -8951091.55705  -6920362.20546        42.000
        27.000       -2700.221       -2104.068
  21978523.261    21978517.259   -15754721.15007 -12240910.30147        48.000
        39.000       -2383.854       -1857.549
  22680424.928    22680416.492   -13327191.88106 -10380479.50547        45.000
        36.000        -839.904        -654.471
  25182028.364    25182024.684    49963593.08704  38974395.42945        38.000
        20.000       -3798.239       -2959.667
  20267399.073    20267393.092   -24255544.47008 -19060778.04448        54.000
        49.000        1067.777         832.034
 14  1 10  1  3  0.0000000  0  8G31G21G25G14G12G02G24G29
  21901078.711    21901071.477   -16360745.05807 -12679750.30447        50.000
        41.000        2218.924        1729.032
  25249850.927    25249845.321     -124169.33704    -72968.62045        38.000
        19.000        3293.792        2566.591
  20282751.824    20282748.006   -23128065.21108 -17994729.68548        54.000
        47.000        -368.737        -287.327
  23276388.884    23276383.162    -8869935.01305  -6857123.34146        42.000
        27.000       -2710.006       -2111.693
  21992152.243    21992146.080   -15683098.97807 -12185100.83347        50.000
        40.000       -2390.929       -1863.062
  22685269.971    22685261.258   -13301731.06606 -10360639.91247        46.000
        36.000        -857.243        -667.981
  25203715.287    25203713.771    50077565.76002  39063205.36245        35.000
        20.000       -3799.523       -2960.667
  20261349.619    20261343.831   -24287333.48508 -19085548.66948        53.000
        49.000        1051.620         819.444
 14  1 10  1  3 30.0000000  0  8G31G21G25G14G12G02G24G29
  21888448.193    21888441.174   -16427118.12407 -12731469.57347        51.000
        41.000        2206.030        1718.984
  25231040.622    25231038.667     -223000.64300   -149979.87545        28.000
        16.000        3294.990        2567.525
  20284890.873    20284886.957   -23116825.28908 -17985971.31248        55.000
        47.000        -380.479        -296.477
  23291888.468    23291882.867    -8788483.51405  -6793654.61946        41.000
        27.000       -2719.912       -2119.412
  22005821.556    22005814.911   -15611268.60907 -12129129.12647        50.000
        40.000       -2397.720       -1868.353
  22690213.618    22690204.590   -13275751.49106 -10340396.07947        46.000
        35.000        -875.531        -682.232
  25225411.282    25225408.148    50191573.68703  39152042.67945        37.000
        18.000       -3800.860       -2961.709
  20255392.383    20255386.694   -24318639.36408 -19109942.83248        54.000
        49.000        1035.537         806.912
 14  1 10  1  4  0.0000000  0  8G31G21G25G14G12G02G24G29
  21875891.982    21875885.086   -16493100.95207 -12782884.76647        50.000
        41.000        2192.858        1708.721
  25212230.586    25212224.253     -321866.30404   -227017.93545        39.000
        16.000        3296.052        2568.352
  20287097.105    20287093.084   -23105231.51908 -17976937.21448        55.000
        47.000        -392.327        -305.710
  23307444.373    23307438.841    -8706738.00005  -6729956.83646        41.000
        27.000       -2729.676       -2127.020
  22019529.954    22019523.970   -15539228.77607 -12072994.20547        51.000
        39.000       -2404.783       -1873.857
  22695256.420    22695247.376   -13249252.25206 -10319747.30947        46.000
        35.000        -891.937        -695.016
  25247111.046    25247110.263            .00010  39240907.79845
        17.000       -3801.712       -2962.373
  20249527.135    20249521.553   -24349460.23908 -19133959.08648        53.000
        49.000        1019.245         794.217
 14  1 10  1  4 30.0000000  0  8G31G21G25G14G12G02G24G29
  21863409.755    21863402.950   -16558696.24707 -12833997.96947        50.000
        41.000        2180.041        1698.733
  25193409.817                     -420768.41904                          .00051
        38.000        3297.258        2569.292
  20289369.755    20289366.217   -23093288.19708 -17967630.72948        55.000
        47.000        -403.938        -314.757
  23323054.677    23323048.519    -8624706.05605  -6666035.84646        41.000
        26.000       -2739.173       -2134.420
  22033277.213    22033271.489   -15466985.02507 -12016700.39747        49.000
        39.000       -2411.555       -1879.134
  22700397.150    22700388.185   -13222238.56506 -10298697.67147        45.000
        35.000        -908.992        -708.305
  25268819.918    25268817.614    50419690.05604  39329795.70745        39.000
        19.000       -3803.069       -2963.430
  20243753.791    20243748.284   -24379800.38608 -19157600.73348        53.000
        49.000        1003.362         781.840
 14  1 10  1  5  0.0000000  0  7G31G21G25G14G12G02G29
  21851001.808    21850995.355   -16623898.41707 -12884804.85147        50.000
        41.000        2166.964        1688.543
  25174583.045    25174577.397     -519702.46800   -367742.11945        32.000
        16.000        3298.380        2570.166
  20291709.780    20291705.917   -23080991.95308 -17958049.24348        55.000
        47.000        -415.732        -323.947
  23338719.540    23338713.391    -8542387.65005  -6601891.63246        42.000
        27.000       -2748.583       -2141.753
  22047064.371    22047058.157   -15394534.07407 -11960245.14747        50.000
        39.000       -2418.388       -1884.458
  22705635.849    22705626.913   -13194707.87506 -10277245.18847        45.000
        35.000        -926.220        -721.730
  20238072.016    20238066.646   -24409656.65808 -19180865.35648        54.000
        49.000         987.237         769.276
 14  1 10  1  5 30.0000000  0  7G31G21G25G14G12G02G29
  21838669.353    21838662.420   -16688706.68107 -12935304.80147        50.000
        42.000        2153.707        1678.214
  25155751.481    25155745.273     -618666.99005   -444857.29846        40.000
        22.000        3299.342        2570.916
  20294116.328    20294112.868   -23068344.33408 -17948193.95848        55.000
        47.000        -427.460        -333.086
  23354437.446    23354432.252    -8459787.22605  -6537527.66046        41.000
        27.000       -2757.865       -2148.986
  22060890.786    22060883.999   -15321878.49107 -11903630.41547        50.000
        39.000       -2425.287       -1889.834
  22710972.789    22710963.859   -13166662.71506 -10255391.80947        45.000
        35.000        -943.339        -735.069
  20232482.612    20232476.726   -24439030.38608 -19203753.96148        54.000
        49.000         971.154         756.743
 14  1 10  1  6  0.0000000  0  7G31G21G25G14G12G02G29
  21826411.990    21826404.838   -16753118.45707 -12985495.79247        50.000
        41.000        2140.413        1667.854
  25136912.647                     -717659.63603                          .00051
        36.000        3300.217        2571.598
  20296590.144    20296586.428   -23055344.98208 -17938064.60148        54.000
        47.000        -439.216        -342.247
  23370208.899    23370203.454    -8376907.71205  -6472946.22346        41.000
        25.000       -2767.278       -2156.320
  22074755.328    22074749.034   -15249018.29607 -11846856.25947        49.000
        40.000       -2432.097       -1895.141
  22716407.206    22716398.139   -13138103.54006 -10233137.89547        45.000
        35.000        -960.608        -748.526
  20226984.974    20226979.068   -24467921.38808 -19226266.41948        53.000
        49.000         955.012         744.165
 14  1 10  1  6 30.0000000  0  7G31G21G25G14G12G02G29
  21814231.171    21814224.097   -16817130.61807 -13035375.38547        50.000
        42.000        2126.948        1657.362
  25118070.365                     -816677.05803                          .00051
        37.000        3300.757        2572.018
  20299130.902    20299127.122   -23041992.53908 -17927660.09948        55.000
        47.000        -451.094        -351.501
  23386032.960    23386028.196    -8293750.87305  -6408148.69846        41.000
        26.000       -2780.562       -2166.672
  22088659.014    22088652.651   -15175953.18207 -11789922.41647        50.000
        39.000       -2439.023       -1900.538
  22721939.634    22721930.685   -13109030.04706 -10210483.21647        45.000
        35.000        -977.768        -761.897
  20221579.140    20221573.378   -24496328.49408 -19248401.81048        53.000
        49.000         938.750         731.494
 14  1 10  1  7  0.0000000  0  7G31G21G25G14G12G02G29
  21802126.265    21802119.186   -16880742.90307 -13084943.40247        51.000
        41.000        2113.767        1647.091
  25099224.348    25099218.394     -915718.71805   -632640.23546        40.000
        23.000        3301.809        2572.838
  20301738.699    20301735.157   -23028288.73008 -17916981.81548        55.000
        47.000        -462.615        -360.479
  23401908.904    23401904.035    -8210321.55205  -6343138.81246        41.000
        26.000       -2785.442       -2170.474
  22102601.408    22102595.156   -15102685.28107 -11732830.57647        49.000
        39.000       -2445.662       -1905.710
  22727569.360    22727561.023   -13079444.86006 -10187429.83247        46.000
        36.000        -994.631        -775.037
  20216265.123    20216259.317   -24524253.54708 -19270161.56448        54.000
        49.000         922.874         719.122
 14  1 10  1  7 30.0000000  0  7G31G21G25G14G12G02G29
  21790097.584    21790091.119   -16943952.15307 -13134197.36247        51.000
        42.000        2100.486        1636.742
  25080372.357    25080367.868    -1014781.26702   -709831.82245        35.000
        17.000        3302.693        2573.527
  20304413.463    20304409.785   -23014232.49308 -17906028.90048        55.000
        47.000        -474.148        -369.466
  23417837.141    23417831.163    -8126621.91205  -6277918.29946        42.000
        26.000       -2794.114       -2177.231
  22116582.825    22116576.349   -15029214.67107 -11675580.77847        49.000
        39.000       -2452.102       -1910.729
  22733296.781    22733288.409   -13049348.21706 -10163977.89547        45.000
        36.000       -1011.369        -788.080
  20211043.458    20211037.436   -24551695.63608 -19291545.01048        53.000
        49.000         906.956         706.719
 14  1 10  1  8  0.0000000  0  7G31G21G25G14G12G02G29
  21778146.778    21778140.141   -17006754.89007 -13183134.55047        51.000
        42.000        2086.692        1625.994
  25061517.619                    -1113861.97603                          .00051
        37.000        3303.142        2573.877
  20307155.437    20307151.814   -22999822.65708 -17894800.45248        54.000
        47.000        -486.155        -378.822
  23433814.947    23433809.688    -8042653.97105  -6212488.73046        41.000
        25.000       -2803.343       -2184.423
  22130602.409    22130596.195   -14955540.47907 -11618172.33347        49.000
        38.000       -2459.075       -1916.162
  22739121.382    22739112.855   -13018739.76106 -10140127.15147        45.000
        34.000       -1028.645        -801.542
  20205913.051    20205907.406   -24578653.54408 -19312551.16548        53.000
        49.000         890.588         693.965
 14  1 10  1  8 30.0000000  0  7G31G21G25G14G12G02G29
  21766273.238    21766266.438   -17069150.87407 -13231754.80747        52.000
        42.000        2072.926        1615.267
  25042660.715    25042651.861    -1212959.74905   -843627.69145        40.000
        20.000        3303.219        2573.937
  20309964.769    20309961.195   -22985060.97808 -17883297.85248        54.000
        47.000        -498.055        -388.095
  23449843.447    23449838.539    -7958422.44005  -6146853.78046        41.000
        26.000       -2812.245       -2191.360
  22144660.703    22144653.908   -14881665.15406 -11560607.16447        47.000
        38.000       -2466.024       -1921.577
  22745042.808    22745033.675   -12987622.28806 -10115879.76447        46.000
        35.000       -1045.804        -814.912
  20200875.147    20200869.048   -24605129.24608 -19333181.56748        54.000
        49.000         874.405         681.355
 14  1 10  1  9  0.0000000  0  7G31G21G25G14G12G02G29
  21754477.709    21754470.555   -17131137.20907 -13280055.85247        51.000
        42.000        2059.251        1604.612
  25023799.352    25023794.006    -1312072.14901   -920858.09145        33.000
        18.000        3303.773        2574.369
  20312840.722    20312837.211   -22969946.75808 -17871520.54448        55.000
        47.000        -509.767        -397.221
  23465922.079    23465917.118    -7873929.95805  -6081015.46446        41.000
        26.000       -2820.954       -2198.146
  22158756.336    22158750.144   -14807589.03307 -11502885.53447        48.000
        38.000       -2472.638       -1926.731
  22751060.998    22751052.269   -12955996.40906 -10091236.21547        45.000
        34.000       -1062.721        -828.094
  20195928.613    20195922.761   -24631122.44008 -19353435.98448        53.000
        49.000         858.294         668.801
 14  1 10  1  9 30.0000000  0  7G31G21G25G14G12G02G29
  21742760.472    21742753.824   -17192711.33307 -13328035.69647        51.000
        42.000        2045.523        1593.914
  25004937.968    25004932.270    -1411196.03405   -998097.39842        40.000
        14.000        3304.243        2574.735
  20315784.451    20315780.635   -22954478.91708 -17859467.68448        54.000
        47.000        -521.416        -406.298
  23482049.933    23482044.751    -7789178.72005  -6014975.54446        41.000
        25.000       -2829.204       -2204.574
  22172890.994    22172884.714   -14733311.22207 -11445006.75647        48.000
        38.000       -2479.243       -1931.878
  22757175.681    22757166.797   -12923861.91606 -10066196.34747        45.000
        35.000       -1079.619        -841.261
  20191074.486    20191068.676   -24656631.96308 -19373313.51448        53.000
        49.000         842.256         656.304
 14  1 10  1 10  0.0000000  0  7G31G21G25G14G12G02G29
  21731121.709    21731115.321   -17253872.28007 -13375693.56247        51.000
        42.000        2031.573        1583.044
  24986073.829    24986066.376    -1510330.40805  -1075345.21345        40.000
        18.000        3304.566        2574.987
  20318794.321    20318791.097   -22938658.78608 -17847140.30748        55.000
        48.000        -533.295        -415.555
  23498224.945    23498220.696    -7704173.48005  -5948737.69246        41.000
        25.000       -2837.871       -2211.328
  22187064.117    22187057.723   -14658833.91407 -11386972.51647        48.000
        38.000       -2486.054       -1937.185
  22763387.407    22763378.507   -12891221.11606 -10040761.94747        45.000
        35.000       -1096.630        -854.517
  20186311.837    20186305.726   -24681659.40608 -19392815.40748        53.000
        49.000         826.011         643.645
 14  1 10  1 10 30.0000000  0  7G31G21G25G14G12G02G29
  21719562.475    21719555.758   -17314617.25607 -13423027.30347        52.000
        43.000        2017.952        1572.430
  24967203.771    24967201.837    -1609472.74900  -1152598.86745        32.000
        16.000        3304.915        2575.259
  20321872.236    20321868.293   -22922485.87508 -17834538.03848        53.000
        47.000        -545.046        -424.711
  23514449.695    23514444.413    -7618916.08705  -5882303.34546        42.000
        26.000       -2846.149       -2217.779
  22201274.461    22201268.035   -14584157.31906 -11328782.98047        47.000
        39.000       -2492.536       -1942.236
  22769695.502    22769686.214   -12858074.63006 -10014933.51047        46.000
        35.000       -1113.356        -867.550
  20181640.688    20181634.963   -24706204.78508 -19411941.66948        54.000
        49.000         810.101         631.247
 14  1 10  1 11  0.0000000  0  7G31G21G25G14G12G02G29
  21708082.841    21708075.704   -17374944.09807 -13470035.23247        52.000
        42.000        2003.857        1561.447
  24948340.172    24948334.190    -1708620.59105  -1229856.80845        40.000
        20.000        3304.902        2575.248
  20325017.051    20325013.720   -22905959.88108 -17821660.64248        54.000
        47.000        -556.758        -433.837
  23530721.230    23530715.283    -7533410.25205  -5815675.41646        42.000
        24.000       -2854.341       -2224.162
  22215522.659    22215516.354   -14509282.02507 -11270438.60847        49.000
        38.000       -2499.175       -1947.409
  22776098.486    22776089.688   -12824422.98006  -9988711.43747        45.000
        35.000       -1130.151        -880.638
  20177061.900    20177055.969   -24730267.65508 -19430691.93748        54.000
        49.000         795.023         619.499
 14  1 10  1 11 30.0000000  0  7G31G21G25G14G12G02G29
  21696682.929    21696675.907   -17434850.66807 -13516715.67447        51.000
        42.000        1989.920        1550.587
  24929471.910    24929465.510    -1807771.57902  -1307117.56945        35.000
        15.000        3305.076        2575.384
  20328229.275    20328225.624   -22889080.80308 -17808508.11848        54.000
        47.000        -568.420        -442.925
  23547039.215    23547033.989    -7447658.87105  -5748856.14546        41.000
        25.000       -2862.150       -2230.247
  22229808.694    22229802.311   -14434208.55906 -11211939.83247        47.000
        37.000       -2505.603       -1952.418
  22782598.253    22782589.512   -12790267.85606  -9962097.04647        45.000
        35.000       -1146.711        -893.541
  20172574.860    20172568.755   -24753848.05608 -19449066.26848        54.000
        50.000         778.079         606.296
 14  1 10  1 12  0.0000000  0  7G31G21G25G14G12G02G29
  21685363.854    21685356.857   -17494333.86707 -13563066.22447        52.000
        42.000        1975.720        1539.522
  24910603.314    24910598.268    -1906922.63802  -1384378.04345        35.000
        18.000        3304.944        2575.281
  20331508.435    20331504.985   -22871847.29508 -17795079.40648        54.000
        47.000        -580.320        -452.197
  23563403.435    23563397.563    -7361663.71705  -5681846.93246        41.000
        24.000       -2870.535       -2236.780
  22244132.378    22244125.695   -14358936.04806 -11153285.96247        47.000
        38.000       -2512.341       -1957.669
  22789193.685    22789185.391   -12755608.81506  -9935090.00047        46.000
        35.000       -1163.664        -906.752
  20168179.370    20168173.702   -24776945.14108 -19467063.97748        54.000
        50.000         761.951         593.728
 14  1 10  1 12 30.0000000  0  7G31G21G25G14G12G02G29
  21674124.978    21674118.217   -17553393.95107 -13609087.06547        52.000
        43.000        1961.746        1528.633
  24891735.933    24891730.800    -2006073.27904  -1461638.25946        38.000
        21.000        3305.179        2575.464
  20334854.797    20334851.208   -22854261.71108 -17781376.35248        53.000
        47.000        -591.891        -461.214
  23579812.443    23579807.640    -7275430.12105  -5614651.92546        40.000
        23.000       -2878.322       -2242.849
  22258493.896    22258487.368   -14283467.64906 -11094479.44247        47.000
        38.000       -2518.742       -1962.656
  22795884.511    22795875.661   -12720449.43606  -9907693.09347        45.000
        35.000       -1180.138        -919.588
  20163875.757    20163869.859   -24799561.52208 -19484687.10948        54.000
        50.000         745.955         581.264
 14  1 10  1 13  0.0000000  0  7G31G21G25G14G12G02G29
  21662967.603    21662960.668   -17612027.40907 -13654775.47247        51.000
        42.000        1947.254        1517.340
  24872868.525    24872863.497    -2105220.12002  -1538895.64345        34.000
        17.000        3304.695        2575.087
  20338268.612    20338265.131   -22836322.84208 -17767398.01748        54.000
        47.000        -603.831        -470.517
  23596267.147    23596262.676    -7188960.14905  -5547272.71846        40.000
        24.000       -2886.301       -2249.066
  22272891.726    22272885.770   -14207803.17207 -11035520.14147        48.000
        37.000       -2525.330       -1967.789
  22802670.214    22802661.283   -12684789.52106  -9879906.14747        45.000
        35.000       -1196.980        -932.711
  20159663.670    20159657.846   -24821696.14308 -19501934.85848        53.000
        50.000         729.758         568.643
 14  1 10  1 13 30.0000000  0  7G31G21G25G14G12G02G29
  21651891.400    21651885.060   -17670231.47107 -13700129.28347        51.000
        42.000        1932.937        1506.185
  24854002.937                    -2204361.08502                          .00051
        35.000        3304.773        2575.148
  20341749.540    20341746.110   -22818029.83408 -17753143.72948        54.000
        47.000        -615.583        -479.675
  23612767.098    23612760.998    -7102256.36405  -5479711.30646        41.000
        22.000       -2894.011       -2255.074
  22287327.849    22287322.044   -14131942.24006 -10976407.76347        47.000
        37.000       -2532.024       -1973.006
  22809551.321    22809541.646   -12648629.54106  -9851729.51447        46.000
        34.000       -1213.728        -945.762
  20155543.352    20155537.615   -24843348.51708 -19518806.83548        55.000
        50.000         713.704         556.133
 14  1 10  1 14  0.0000000  0  7G31G21G25G14G12G02G29
  21640897.214    21640890.683   -17728005.77707 -13745148.22447        52.000
        43.000        1918.773        1495.147
  24835139.424    24835132.393    -2303494.30404  -1653057.00746        39.000
        21.000        3304.261        2574.749
  20345297.668    20345294.262   -22799384.18108 -17738614.64348        54.000
        47.000        -627.268        -488.780
  23629309.935    23629304.313    -7015323.52205  -5411971.44646        41.000
        23.000       -2901.501       -2260.910
  22301801.161    22301794.871   -14055886.51907 -10917143.59747        48.000
        37.000       -2538.298       -1977.894
  22816526.344    22816517.477   -12611972.22806  -9823165.36247        46.000
        34.000       -1230.134        -958.546
  20151514.618    20151508.294   -24864520.42408 -19535304.39948        55.000
        50.000         697.874         543.798
 14  1 10  1 14 30.0000000  0  7G31G21G25G14G12G02G29
  21629985.651    21629979.123   -17785347.04807 -13789829.73447        52.000
        42.000        1904.062        1483.684
  24816276.109    24816270.395    -2402616.90602  -1730295.35245        35.000
        16.000        3303.554        2574.198
  20348913.600    20348909.786   -22780384.64408 -17723809.81648        53.000
        47.000        -639.351        -498.196
  23645896.059    23645890.389    -6928163.13805  -5344054.26846        41.000
        24.000       -2909.161       -2266.879
  22316311.334    22316304.976   -13979635.53206 -10857727.27947        47.000
        38.000       -2544.996       -1983.114
  22823596.791    22823587.912   -12574817.25806  -9794213.43247        46.000
        34.000       -1246.929        -971.633
  20147577.490    20147571.117   -24885210.88108 -19551426.82448        55.000
        50.000         681.586         531.106
 14  1 10  1 15  0.0000000  0  7G31G21G25G14G12G02G29
  21619156.882    21619149.834   -17842253.66507 -13834172.55247        52.000
        42.000        1889.661        1472.463
  24797416.310    24797410.457    -2501727.09702  -1807524.17745        35.000
        15.000        3303.245        2573.957
  20352596.258    20352592.538   -22761031.58308 -17708729.51348        53.000
        47.000        -651.003        -507.275
  23662523.729    23662518.256    -6840778.67905  -5275962.47046        41.000
        22.000       -2916.467       -2272.572
  22330859.019    22330852.365   -13903190.40707 -10798159.67947        48.000
        38.000       -2551.331       -1988.050
  22830761.888    22830752.888   -12537166.53606  -9764875.20847        46.000
        35.000       -1263.196        -984.308
  20143731.562    20143725.616   -24905420.80908 -19567174.81148        55.000
        50.000         665.720         518.743
 14  1 10  1 15 30.0000000  0  7G31G21G25G14G12G02G29
  21608411.193    21608403.739   -17898723.69707 -13878175.17847        52.000
        43.000        1875.100        1461.117
  24778559.648    24778552.672    -2600822.65404  -1884741.52046        38.000
        21.000        3302.864        2573.660
  20356346.194    20356342.531   -22741325.21508 -17693373.90248        54.000
        47.000        -662.669        -516.365
  23679195.795    23679189.562    -6753173.85905  -5207698.98446        41.000
        23.000       -2923.728       -2278.230
  22345442.141    22345436.234   -13826552.50706 -10738441.88847        47.000
        38.000       -2557.742       -1993.046
  22838020.402    22838012.034   -12499021.21406  -9735151.57747        45.000
        34.000       -1279.612        -997.100
  20139977.408    20139971.131   -24925149.96908 -19582548.17048        55.000
        50.000         649.670         506.237
 14  1 10  1 16  0.0000000  0  7G31G21G25G14G12G02G29
  21597748.355    21597741.532   -17954754.39607 -13921835.45447        51.000
        43.000        1860.315        1449.596
  24759704.692    24759699.145    -2699900.92202  -1961945.25445        35.000
        17.000        3302.464        2573.348
  20360163.443    20360159.811   -22721264.74308 -17677742.37348        54.000
        47.000        -674.587        -525.652
  23695906.789    23695901.541    -6665351.08005  -5139265.64046        41.000
        23.000       -2930.949       -2283.856
  22360062.644    22360056.491   -13749721.06307 -10678573.28647        48.000
        37.000       -2564.245       -1998.113
  22845373.049    22845364.891   -12460381.79606  -9705042.93647        45.000
        34.000       -1296.233       -1010.051
  20136314.286    20136308.139   -24944398.60708 -19597547.10348        55.000
        50.000         633.562         493.685
 14  1 10  1 16 30.0000000  0  7G31G21G25G14G12G02G29
  21587169.928    21587162.930   -18010344.86807 -13965152.69647        52.000
        43.000        1845.557        1438.096
  24740855.478    24740848.734    -2798960.34704  -2039134.45245        39.000
        18.000        3301.680        2572.738
  20364048.010    20364044.832   -22700851.14008 -17661835.67148        54.000
        47.000        -686.450        -534.896
  23712660.103    23712654.471    -6577314.13405  -5070665.40146        41.000
        22.000       -2938.251       -2289.547
  22374719.839    22374713.220   -13672697.79607 -10618555.18347        48.000
        37.000       -2570.732       -2003.168
  22852819.554    22852811.830   -12421250.74906  -9674551.21047        45.000
        35.000       -1312.636       -1022.833
  20132742.766    20132736.684   -24963167.75408 -19612172.39048        54.000
        50.000         617.549         481.207
 14  1 10  1 17  0.0000000  0  7G31G21G25G14G12G02G29
  21576675.571    21576668.828   -18065492.11607 -14008124.57347        52.000
        42.000        1830.793        1426.592
  24722010.589    24722002.362    -2897997.63103  -2116306.54345        37.000
        18.000        3301.076        2572.267
  20367999.857    20367996.037   -22680083.41708 -17645653.03348        54.000
        47.000        -698.245        -544.087
  23729453.367    23729448.118    -6489065.50305  -5001900.25346        41.000
        25.000       -2945.144       -2294.918
  22389413.269    22389407.143   -13595482.39907 -10558387.37447        48.000
        37.000       -2577.102       -2008.132
  22860359.339    22860351.198   -12381628.40806  -9643676.64647        46.000
        33.000       -1328.938       -1035.536
  20129262.350    20129255.988   -24981456.75408 -19626423.54948        54.000
        50.000         601.589         468.771
 14  1 10  1 17 30.0000000  0  7G31G21G25G14G12G02G29
  21566266.357    21566259.655   -18120193.78007 -14050749.24647        52.000
        43.000        1815.981        1415.050
  24703166.551    24703161.598    -2997010.61703  -2193459.42845        36.000
        19.000        3300.233        2571.610
  20372019.692    20372015.948   -22658961.33008 -17629194.27448        54.000
        47.000        -709.903        -553.171
  23746286.509    23746280.404    -6400607.91505  -4932972.25846        42.000
        23.000       -2952.066       -2300.311
  22404143.375    22404137.452   -13518075.40707 -10498070.27747        48.000
        37.000       -2583.375       -2013.019
  22867992.837    22867983.811   -12341515.61506  -9612419.91847        45.000
        33.000       -1345.172       -1048.186
  20125873.603    20125867.406   -24999265.63908 -19640300.58748        55.000
        50.000         585.712         456.399
 14  1 10  1 18  0.0000000  0  7G31G21G25G14G12G02G29
  21555942.448    21555935.933   -18174448.14707 -14093025.36847        52.000
        42.000        1800.874        1403.279
  24684330.367    24684324.656    -3095997.01504  -2270591.68346        38.000
        21.000        3298.955        2570.615
  20376106.235    20376102.346   -22637485.10208 -17612459.55348        54.000
        47.000        -721.806        -562.446
  23763157.639    23763152.327    -6311944.71305  -4863884.08246        41.000
        23.000       -2958.877       -2305.618
  22418909.782    22418904.109   -13440477.51307 -10437604.43447        48.000
        37.000       -2589.849       -2018.064
  22875718.845    22875709.615   -12300914.11906  -9580782.38847        44.000
        33.000       -1361.591       -1060.980
  20122575.648    20122569.688   -25016595.21208 -19653804.14448        54.000
        50.000         569.639         443.874
 14  1 10  1 18 30.0000000  0  7G31G21G25G14G12G02G29
  21545703.104    21545696.479   -18228254.34008 -14134952.27947        53.000
        43.000        1785.987        1391.678
  24665498.253    24665492.830    -3194955.60202  -2347702.34245        35.000
        16.000        3298.164        2569.998
  20380260.288    20380256.294   -22615655.78208 -17595449.69248        54.000
        47.000        -733.491        -571.551
  23780067.876    23780063.660    -6223080.43205  -4794639.20546        40.000
        24.000       -2965.532       -2310.804
  22433712.226    22433705.982   -13362690.85507 -10376991.49347        49.000
        37.000       -2596.045       -2022.892
  22883537.852    22883528.813   -12259825.86706  -9548765.56147        44.000
        33.000       -1377.724       -1073.551
  20119368.745    20119362.670   -25033446.82408 -19666935.25148        54.000
        50.000         553.765         431.505
 14  1 10  1 19  0.0000000  0  7G31G21G25G14G12G02G29
  21535550.252    21535543.183   -18281609.83407 -14176527.98347        52.000
        43.000        1770.958        1379.968
  24646673.315    24646668.321    -3293883.78102  -2424789.21745        35.000
        18.000        3297.179        2569.231
  20384481.302    20384477.923   -22593472.89008 -17578164.32748        54.000
        47.000        -745.306        -580.758
  23797015.995    23797011.206    -6134017.56205  -4725239.52346        40.000
        22.000       -2972.040       -2315.875
  22448550.863    22448544.493   -13284714.92207 -10316231.04947        48.000
        36.000       -2602.406       -2027.849
  22891449.162    22891440.402   -12218251.96706  -9516370.30047        46.000
        34.000       -1393.875       -1086.137
  20116252.779    20116246.731   -25049820.35608 -19679693.83948        54.000
        50.000         537.809         419.072
 14  1 10  1 19 30.0000000  0  7G31G21G25G14G12G02G29
  21525483.030    21525476.006   -18334512.58307 -14217750.89547        52.000
        43.000        1755.699        1368.077
  24627854.488    24627848.946    -3392778.78603  -2501850.23446        37.000
        22.000        3295.895        2568.229
  20388770.190    20388766.689   -22570936.01708 -17560603.13548        54.000
        47.000        -757.289        -590.095
  23814001.534    23813997.012    -6044758.50205  -4655687.03746        41.000
        22.000       -2978.705       -2321.069
  22463424.598    22463418.944   -13206549.95106 -10255323.29047        47.000
        36.000       -2608.695       -2032.750
  22899452.672    22899443.859   -12176193.40306  -9483597.38847        45.000
        34.000       -1410.097       -1098.776
  20113228.158    20113222.036   -25065715.71208 -19692079.81848        54.000
        50.000         521.817         406.611
 14  1 10  1 20  0.0000000  0  7G31G21G25G14G12G02G29
  21515502.563    21515495.327   -18386959.79408 -14258618.85447        53.000
        43.000        1740.567        1356.286
  24609041.903    24609035.564    -3491638.55602  -2578883.83545        35.000
        16.000        3294.717        2567.312
  20393126.217    20393122.350   -22548044.60008 -17542765.66748        54.000
        47.000        -769.023        -599.239
  23831024.363    23831018.732    -5955306.33905  -4585984.04146        41.000
        22.000       -2984.887       -2325.886
  22478334.996    22478329.168   -13128196.51006 -10194268.68847        47.000
        37.000       -2614.946       -2037.620
  22907548.140    22907539.554   -12133650.80206  -9450447.29347        46.000
        34.000       -1426.138       -1111.276
  20110294.454    20110288.273   -25081132.85908 -19704093.16548        54.000
        50.000         505.894         394.203
 14  1 10  1 20 30.0000000  0  7G31G21G25G14G12G02G29
  21505608.990    21505602.001   -18438949.96408 -14299130.67447        53.000
        43.000        1725.590        1344.616
  24590236.506    24590230.960    -3590460.81303  -2655888.20745        37.000
        18.000        3293.652        2566.482
  20397549.793    20397546.350   -22524799.14908 -17524652.33748        54.000
        47.000        -780.621        -608.276
  23848082.157    23848076.496    -5865664.54605  -4516133.33345        40.000
        20.000       -2991.109       -2330.734
  22493280.980    22493275.027   -13049655.44606 -10133067.92147        47.000
        37.000       -2621.021       -2042.354
  22915735.487    22915727.007   -12090626.05406  -9416921.52347        45.000
        33.000       -1441.983       -1123.623
  20107451.301    20107445.392   -25096072.68308 -19715734.58048        54.000
        50.000         490.249         382.012
 14  1 10  1 21  0.0000000  0  7G31G21G25G14G12G02G29
  21495802.809    21495796.105   -18490481.59607 -14339285.18247        52.000
        43.000        1709.796        1332.309
  24571439.677    24571433.903    -3689243.01304  -2732861.35445        38.000
        20.000        3291.925        2565.136
  20402040.416    20402036.967   -22501199.93008 -17506263.32948        55.000
        47.000        -792.757        -617.733
  23865175.606    23865170.803    -5775836.75105  -4446137.59146        40.000
        22.000       -2997.513       -2335.725
  22508262.664    22508256.346   -12970927.74306 -10071721.70547        47.000
        36.000       -2627.621       -2047.497
  22924014.164    22924005.755   -12047120.56106  -9383021.13447        45.000
        33.000       -1458.338       -1136.368
  20104699.051    20104693.359   -25110535.85208 -19727004.57048        54.000
        50.000         473.888         369.263
 14  1 10  1 21 30.0000000  0  7G31G21G25G14G12G02G29
  21486084.241    21486077.430   -18541552.83908 -14379080.95747        53.000
        43.000        1694.618        1320.482
  24552650.236    24552644.162    -3787983.10403  -2809801.63945        37.000
        18.000        3290.507        2564.031
  20406598.511    20406595.021   -22477247.00508 -17487598.71748        54.000
        47.000        -804.381        -626.790
  23882305.205    23882298.440    -5685825.80005  -4375999.16746        42.000
        22.000       -3003.414       -2340.323
  22523279.022    22523272.689   -12892013.52706 -10010230.14547        46.000
        36.000       -2633.629       -2052.178
  22932383.785    22932375.354   -12003136.30106  -9348747.69447        45.000
        32.000       -1474.224       -1148.746
  20102037.328    20102031.366   -25124522.93108 -19737903.57848        54.000
        50.000         458.241         357.071
 14  1 10  1 22  0.0000000  0  7G31G21G25G14G12G02G29
  21476454.100    21476447.208   -18592161.13508 -14418515.98847        53.000
        43.000        1679.193        1308.462
  24533869.697    24533862.289    -3886678.10904  -2886706.89845        39.000
        20.000        3288.963        2562.828
  20411224.169    20411220.195   -22452939.97508 -17468658.18348        54.000
        47.000        -816.120        -635.937
  23899468.140    23899462.769    -5595634.62605  -4305720.40246        41.000
        22.000       -3009.347       -2344.946
  22538331.359    22538325.283   -12812913.34406  -9948593.67747        45.000
        36.000       -2639.743       -2056.943
  22940845.245    22940836.088   -11958674.12506  -9314101.82847        46.000
        32.000       -1490.016       -1161.052
  20099466.530    20099460.259   -25138033.91308 -19748431.60348        54.000
        50.000         442.459         344.774
 14  1 10  1 22 30.0000000  0  7G31G21G25G14G12G02G29
  21466911.724    21466905.081   -18642305.12407 -14457589.22447        52.000
        43.000        1663.600        1296.312
  24515096.410    24515091.370    -3985326.87002  -2963576.08946        35.000
        21.000        3287.320        2561.548
  20415916.762    20415913.253   -22428278.91108 -17449441.77448        54.000
        47.000        -828.051        -645.234
  23916663.965    23916658.726    -5505266.31704  -4235303.50746        38.000
        21.000       -3015.463       -2349.711
  22553419.132    22553412.712   -12733628.00706  -9886812.95047        46.000
        35.000       -2646.073       -2061.875
  22949396.606    22949387.720   -11913735.28306  -9279084.52947        44.000
        32.000       -1505.995       -1173.502
  20096985.790    20096979.849   -25151069.19008 -19758588.95448        54.000
        50.000         426.446         332.296
 14  1 10  1 23  0.0000000  0  7G31G21G25G14G12G02G29
  21457458.297    21457451.772   -18691983.00308 -14496299.25748        53.000
        44.000        1648.067        1284.208
  24496332.742    24496328.156    -4083927.08902  -3040407.33545        35.000
        20.000        3285.840        2560.395
  20420676.908    20420673.647   -22403264.11608 -17429949.72248        55.000
        47.000        -839.785        -654.378
  23933893.282    23933888.418    -5414724.16804  -4164751.16346        39.000
        22.000       -3021.025       -2354.046
  22568541.457    22568535.233   -12654158.29506  -9824888.53147        45.000
        36.000       -2652.163       -2066.620
  22958038.403    22958029.746   -11868321.64306  -9243697.27747        45.000
        33.000       -1521.782       -1185.804
  20094595.897    20094589.818   -25163629.45008 -19768376.16348        54.000
        50.000         410.718         320.040
 14  1 10  1 23 30.0000000  0  7G31G21G25G14G12G02G29
  21448094.229    21448087.723   -18741192.13108 -14534644.03347        53.000
        43.000        1632.458        1272.045
  24477581.359    24477574.558    -4182475.96804  -3117198.67345        38.000
        20.000        3284.143        2559.072
  20425504.661    20425501.317   -22377895.17608 -17410181.71848        53.000
        47.000        -851.492        -663.500
  23951156.633    23951150.772    -5324011.11605  -4094065.71146        42.000
        26.000       -3026.355       -2358.199
  22583698.735    22583693.208   -12574504.62506  -9762820.77147        45.000
        36.000       -2658.191       -2071.318
  22966770.780    22966762.403   -11822434.22006  -9207940.83947        44.000
        33.000       -1537.395       -1197.970
  20092295.969    20092290.255   -25175715.00108 -19777793.46448        54.000
        50.000         395.022         307.809
 14  1 10  1 24  0.0000000  0  7G31G21G25G14G12G02G29
  21438819.735    21438812.861   -18789931.03807 -14572622.39847        52.000
        43.000        1616.936        1259.950
  24458836.908    24458830.978    -4280970.90003  -3193948.03145        36.000
        19.000        3282.576        2557.851
  20430399.611    20430395.779   -22352172.23808 -17390137.87348        54.000
        47.000        -863.171        -672.601
  23968451.078    23968444.097    -5233130.18905  -4023249.40446        42.000
        21.000       -3031.833       -2362.467
  22598891.635    22598885.681   -12494667.55206  -9700610.08447        46.000
        36.000       -2664.084       -2075.910
  22975592.355    22975584.177   -11776074.58406  -9171816.45147        43.000
        32.000       -1553.005       -1210.134
  20090086.344    20090080.124   -25187326.55508 -19786841.41648        55.000
        50.000         379.329         295.581
 14  1 10  1 24 30.0000000  0  7G31G21G25G14G12G02G29
  21429635.000    21429628.236   -18838197.10408 -14610232.32547        53.000
        43.000        1600.794        1247.372
  24440104.530    24440099.179    -4379409.61103  -3270653.47146        37.000
        21.000        3280.179        2555.983
  20435362.057    20435358.591   -22326094.72108 -17369817.73448        55.000
        47.000        -875.417        -682.143
  23985774.803    23985770.149    -5142084.45604  -3952304.69446        39.000
        21.000       -3037.927       -2367.216
  22614118.919    22614113.137   -12414647.18506  -9638256.55747        47.000
        36.000       -2670.558       -2080.955
  22984504.142    22984495.530   -11729243.86506  -9135324.98747        43.000
        33.000       -1569.045       -1222.632
  20087967.092    20087960.896   -25198463.88508 -19795519.84448        55.000
        51.000         363.211         283.022
 14  1 10  1 25  0.0000000  0  7G31G21G25G14G12G02G29
  21420540.044    21420533.665   -18885990.42708 -14647473.87447        53.000
        43.000        1585.202        1235.222
  24421385.071    24421378.198    -4477791.25104  -3347314.48046        38.000
        21.000        3278.342        2554.552
  20440391.488    20440387.400   -22299664.28208 -17349222.59448        55.000
        47.000        -886.908        -691.097
  24003130.776    24003125.439    -5050878.38005  -3881234.90446        40.000
        21.000       -3042.899       -2371.090
  22629380.812    22629375.009   -12334445.67006  -9575761.90447        47.000
        36.000       -2676.375       -2085.487
  22993505.005    22993495.994   -11681944.86406  -9098468.61147        44.000
        32.000       -1584.437       -1234.626
  20085937.346    20085931.497   -25209129.56208 -19803830.75448        55.000
        51.000         347.609         270.864
 14  1 10  1 25 30.0000000  0  7G31G21G25G14G12G02G29
  21411536.246    21411529.203   -18933307.31408 -14684344.17147        53.000
        43.000        1569.440        1222.940
  24402673.810    24402667.427    -4576111.97203  -3423928.08045        36.000
        19.000        3276.535        2553.144
  20445488.259    20445484.436   -22272879.32908 -17328351.20148        54.000
        47.000        -898.568        -700.183
  24020517.868    24020511.802    -4959513.22305  -3810041.37846        41.000
        22.000       -3047.904       -2374.990
  22644677.553    22644671.756   -12254061.45406  -9513124.87747        47.000
        36.000       -2682.406       -2090.186
  23002595.011    23002585.998   -11634177.55306  -9061247.31547        43.000
        32.000       -1599.906       -1246.680
  20083998.081    20083991.900   -25219321.52508 -19811772.52848        54.000
        51.000         331.955         258.666
 14  1 10  1 26  0.0000000  0  7G31G21G25G14G12G02G29
  21402623.024    21402616.405   -18980145.79508 -14720841.68047        53.000
        43.000        1553.373        1210.421
  24383976.430    24383970.234    -4674369.57704  -3500492.42146        39.000
        22.000        3274.198        2551.323
  20450652.901    20450649.501   -22245739.77108 -17307203.50148        54.000
        47.000        -910.416        -709.415
  24037933.325    24037927.472    -4867992.14605  -3738726.20546        40.000
        21.000       -3053.023       -2378.979
  22660008.978    22660002.469   -12173495.66106  -9450346.37647        47.000
        35.000       -2688.399       -2094.856
  23011773.241    23011764.460   -11585943.28406  -9023662.16447        43.000
        32.000       -1615.513       -1258.842
  20082148.464    20082142.169   -25229040.61808 -19819345.84348        55.000
        51.000         316.215         246.401
 14  1 10  1 26 30.0000000  0  7G31G21G25G14G12G02G29
  21393801.084    21393794.391   -19026505.14008 -14756965.84247        53.000
        43.000        1537.229        1197.841
  24365291.028    24365285.223    -4772562.72204  -3577006.56946        38.000
        22.000        3271.907        2549.538
  20455884.673    20455880.967   -22218246.82208 -17285780.42748        54.000
        47.000        -922.371        -718.730
  24055377.303    24055373.226    -4776319.79704  -3667293.23646        38.000
        21.000       -3058.274       -2383.070
  22675374.178    22675368.154   -12092750.03306  -9387427.73547        47.000
        35.000       -2694.406       -2099.538
  23021040.022    23021032.078   -11537245.02306  -8985715.48347        44.000
        33.000       -1631.008       -1270.915
  20080388.730    20080382.610   -25238288.71408 -19826552.14348        55.000
        51.000         300.437         234.107
 14  1 10  1 27  0.0000000  0  7G31G21G25G14G12G02G29
  21385070.756    21385063.780   -19072383.64308 -14792715.32547        53.000
        43.000        1521.379        1185.490
  24346618.357    24346611.955    -4870689.15203  -3653468.70945        37.000
        19.000        3269.856        2547.939
  20461183.502    20461179.841   -22190400.35008 -17264081.88148        53.000
        47.000        -934.065        -727.843
  24072850.658    24072846.399    -4684498.95804  -3595744.48746        38.000
        23.000       -3063.167       -2386.883
  22690773.220    22690767.084   -12011825.06806  -9324369.35347        47.000
        34.000       -2700.330       -2104.153
  23030395.772    23030387.057   -11488083.71006  -8947407.97747        44.000
        33.000       -1646.350       -1282.870
  20078718.475    20078712.270   -25247066.18408 -19833391.72448        55.000
        51.000         284.792         221.916
 14  1 10  1 27 30.0000000  0  7G31G21G25G14G12G02G29
  21376432.469    21376425.436   -19117778.71808 -14828088.10947        53.000
        43.000        1504.947        1172.686
  24327959.103    24327951.879    -4968745.29905  -3729876.10945        40.000
        20.000        3267.218        2545.884
  20466550.423    20466546.611   -22162199.75408 -17242107.39448        54.000
        46.000        -945.990        -737.135
  24090352.827    24090345.045    -4592531.89505  -3524081.79545        41.000
        19.000       -3067.948       -2390.609
  22706207.496    22706201.299   -11930720.49306  -9261171.02347        47.000
        35.000       -2706.566       -2109.013
  23039838.573    23039829.985   -11438460.25006  -8908740.32947        45.000
        32.000       -1661.903       -1294.990
  20077137.537    20077131.451   -25255373.23808 -19839864.74848        55.000
        51.000         268.985         209.599
 14  1 10  1 28  0.0000000  0  7G31G21G25G14G12G02G29
  21367886.118    21367879.492   -19162689.25108 -14863083.32848        53.000
        44.000        1488.985        1160.248
  24309312.950    24309307.155    -5066729.99904  -3806227.81646        39.000
        22.000        3264.923        2544.095
  20471983.592    20471980.225   -22133645.77608 -17219857.54648        53.000
        47.000        -957.694        -746.255
  24107879.135    24107875.252    -4500422.49504  -3452308.35046        39.000
        22.000       -3072.548       -2394.193
  22721674.760    22721669.228   -11849437.52806  -9197833.69947        46.000
        35.000       -2712.308       -2113.487
  23049368.578    23049359.561   -11388377.26806  -8869714.62247        44.000
        32.000       -1677.055       -1306.796
  20075646.237    20075640.319   -25263210.90608 -19845972.01548        55.000
        51.000         253.492         197.526
 14  1 10  1 28 30.0000000  0  7G31G21G25G14G12G02G29
  21359432.581    21359425.941   -19207113.07708 -14897699.30648        54.000
        44.000        1472.591        1147.474
  24290680.414    24290675.185    -5164640.70903  -3882521.80646        37.000
        21.000        3262.245        2542.009
  20477484.629    20477480.799   -22104738.06108 -17197332.05948        54.000
        47.000        -969.562        -755.503
  24125434.121    24125426.458    -4408173.57605  -3380425.91646        40.000
        21.000       -3077.272       -2397.874
  22737176.466    22737170.545   -11767976.42806  -9134357.53747        45.000
        35.000       -2718.336       -2118.184
  23058986.555    23058978.030   -11337835.84106  -8830331.68747        43.000
        32.000       -1692.414       -1318.764
  20074243.874    20074237.948   -25270579.26608 -19851713.58448        54.000
        51.000         237.743         185.254
 14  1 10  1 29  0.0000000  0  7G31G21G25G14G12G02G29
  21351072.060    21351065.049   -19251047.94408 -14931934.26448        54.000
        44.000        1456.262        1134.749
  24272063.488    24272056.692    -5262474.75705  -3958756.17146        40.000
        21.000        3259.563        2539.919
  20483053.031    20483049.316   -22075476.14608 -17174530.57148        53.000
        46.000        -981.390        -764.719
  24143015.125    24143009.563    -4315787.78105  -3308437.12646        40.000
        25.000       -3081.829       -2401.425
  22752712.016    22752705.893   -11686337.61606  -9070742.91047        46.000
        34.000       -2724.393       -2122.903
  23068691.406    23068683.269   -11286836.93906  -8790592.27547        44.000
        32.000       -1707.615       -1330.609
  20072931.030    20072924.930   -25277478.85408 -19857089.87948        55.000
        51.000         222.111         173.074
 14  1 10  1 29 30.0000000  0  7G31G21G25G14G12G02G29
  21342804.922    21342797.931   -19294492.50108 -14965787.16547        53.000
        43.000        1439.927        1122.021
  24253460.685    24253455.516    -5360229.98504  -4034929.09846        38.000
        22.000        3257.017        2537.936
  20488688.771    20488685.295   -22045860.41608 -17151453.37848        54.000
        47.000        -993.104        -773.848
  24160620.086    24160614.429    -4223268.59503  -3236344.14745        36.000
        19.000       -3086.137       -2404.782
  22768280.783    22768274.820   -11604521.91606  -9006990.44247        45.000
        34.000       -2730.175       -2127.409
  23078482.509    23078474.601   -11235382.65306  -8750498.03247        44.000
        32.000       -1722.699       -1342.363
  20071707.207    20071701.060   -25283910.30008 -19862101.38748        54.000
        51.000         206.476         160.890
 14  1 10  1 30  0.0000000  0  7G31G21G25G14G12G02G29
  21334631.406    21334624.294   -19337445.11008 -14999256.72547        53.000
        43.000        1423.333        1109.091
  24234874.636    24234868.839    -5457904.36204  -4111038.95846        38.000
        23.000        3254.041        2535.616
  20494391.818    20494388.440   -22015890.95608 -17128100.55548        53.000
        46.000       -1005.056        -783.160
  24178251.477    24178246.454    -4130618.96304  -3164149.74146        38.000
        24.000       -3090.764       -2408.387
  22783883.271    22783877.479   -11522530.03806  -8943100.68847        44.000
        33.000       -2736.179       -2132.087
  23088360.409    23088351.869   -11183474.58706  -8710050.19447        43.000
        32.000       -1738.020       -1354.301
  20070572.075    20070566.153   -25289873.99708 -19866748.42148        54.000
        51.000         190.809         148.682
 14  1 10  1 30 30.0000000  0  7G31G21G25G14G12G02G29
  21326551.747    21326544.953   -19379904.33708 -15032341.83748        53.000
        44.000        1407.058        1096.409
  24216303.886    24216297.552    -5555496.06305  -4187084.42946        40.000
        22.000        3251.741        2533.824
  20500161.640    20500158.440   -21985568.57408 -17104472.72348        54.000
        47.000       -1016.628        -792.178
  24195906.266    24195899.330    -4037842.78604  -3091856.54645        39.000
        18.000       -3094.606       -2411.382
  22799519.320    22799513.779   -11440362.95106  -8879074.41347        44.000
        34.000       -2741.838       -2136.497
  23098324.584    23098315.705   -11131114.98306  -8669250.51147        44.000
        32.000       -1752.805       -1365.822
  20069525.933    20069519.934   -25295371.66008 -19871032.31648        54.000
        51.000         175.486         136.743
 14  1 10  1 31  0.0000000  0  7G31G21G25G14G12G02G29
  21318565.943    21318559.191   -19421868.22308 -15065040.96548        53.000
        44.000        1390.177        1083.255
  24197747.972    24197741.767    -5653002.64204  -4263063.61646        38.000
        22.000        3248.454        2531.262
  20505999.094    20505995.781   -21954892.81408 -17080569.53948        53.000
        47.000       -1028.744        -801.618
  24213583.752    24213579.497    -3944942.53703  -3019466.81146        37.000
        22.000       -3098.988       -2414.796
  22815188.527    22815182.370   -11358020.91906  -8814911.83747        44.000
        34.000       -2748.045       -2141.334
  23108373.621    23108364.807   -11078305.20606  -8628100.01147        43.000
        32.000       -1768.065       -1377.713
  20068568.414    20068562.381   -25300403.41608 -19874953.16048        54.000
        51.000         159.669         124.418
 14  1 10  1 31 30.0000000  0  7G31G21G25G14G12G02G29
  21310675.241    21310668.016   -19463334.53808 -15097352.38248        53.000
        44.000        1374.056        1070.693
  24179210.135    24179205.089    -5750420.40904  -4338973.52746        38.000
        23.000        3245.760        2529.164
  20511903.915    20511900.290   -21923862.92308 -17056390.40748        53.000
        47.000       -1040.138        -810.497
  24231286.307    24231278.989    -3851921.00005  -2946982.43045        40.000
        19.000       -3102.555       -2417.575
  22830891.707    22830884.959   -11275503.82906  -8750612.83747        44.000
        34.000       -2753.400       -2145.506
  23118508.659    23118499.747   -11025046.15506  -8586599.45347        43.000
        32.000       -1782.751       -1389.156
  20067699.453    20067693.845   -25304969.10108 -19878510.82548        54.000
        51.000         144.520         112.613
 14  1 10  1 32  0.0000000  0  7G31G21G25G14G12G02G29
  21302879.401    21302872.308   -19504301.90307 -15129275.00747        52.000
        43.000        1357.273        1057.615
  24160691.143    24160683.846    -5847747.78505  -4414813.02546        40.000
        23.000        3242.766        2526.831
  20517876.010    20517872.308   -21892479.59608 -17031935.86548        54.000
        46.000       -1051.956        -819.706
  24249007.774    24249004.329    -3758781.60603  -2874406.33446        36.000
        21.000       -3106.858       -2420.928
  22846626.446    22846620.637   -11192812.58506  -8686178.11547        44.000
        34.000       -2759.265       -2150.077
  23128728.087    23128719.880   -10971339.74006  -8544750.29747        43.000
        32.000       -1797.580       -1400.712
  20066919.370    20066913.376   -25309070.06608 -19881706.37748        55.000
        51.000         128.992         100.513
 14  1 10  1 32 30.0000000  0  7G31G21G25G14G12G02G29
  21295178.735    21295171.981   -19544769.18607 -15160807.96547        52.000
        43.000        1340.501        1044.546
  24142186.181    24142179.793    -5944983.27704  -4490580.93146        38.000
        22.000        3239.617        2524.377
  20523915.505    20523911.570   -21860743.31008 -17007206.28948        53.000
        46.000       -1063.742        -828.890
  24266755.565    24266748.846    -3665527.80105  -2801741.03445        40.000
        20.000       -3110.613       -2423.854
  22862394.650    22862389.557   -11109948.83506  -8621608.98547        43.000
        34.000       -2765.139       -2154.654
  23139033.410    23139024.565   -10917188.11406  -8502554.23347        43.000
        32.000       -1812.527       -1412.358
  20066227.297    20066220.949   -25312707.53208 -19884540.76648        54.000
        51.000         113.499          88.440
 14  1 10  1 33  0.0000000  0  7G31G21G25G14G12G02G29
  21287573.399    21287566.714   -19584733.84908 -15191949.25348        53.000
        44.000        1323.734        1031.481
  24123700.831    24123694.105    -6042124.03504  -4566275.08346        38.000
        22.000        3236.317        2521.806
  20530021.848    20530018.353   -21828653.19608 -16982201.02548        54.000
        46.000       -1075.616        -838.143
  24284522.854    24284515.737    -3572161.82503  -2728988.32345        37.000
        19.000       -3114.049       -2426.532
  22878196.636    22878190.985   -11026911.54806  -8556904.62847        44.000
        34.000       -2770.855       -2159.108
  23149422.703    23149413.406   -10862592.15806  -8460011.91846        43.000
        31.000       -1827.350       -1423.909
  20065623.145    20065617.005   -25315881.18208 -19887013.73348        54.000
        51.000          98.055          76.407
 14  1 10  1 33 30.0000000  0  7G31G21G25G14G12G02G29
  21280064.144    21280057.368   -19624196.65508 -15222699.49348        53.000
        44.000        1307.211        1018.606
  24105234.457    24105228.279    -6139169.75904  -4641895.11746        39.000
        23.000        3233.266        2519.428
  20536195.223    20536191.849   -21796212.13408 -16956922.28748        54.000
        46.000       -1087.130        -847.114
  24302308.996    24302303.097    -3478689.68604  -2656152.82646        38.000
        22.000       -3117.222       -2429.004
  22894030.843    22894024.932   -10943704.49106  -8492067.99247        44.000
        34.000       -2776.285       -2163.339
  23159895.237    23159886.426   -10807556.21206  -8417126.75747        44.000
        32.000       -1841.670       -1435.068
  20065106.913    20065100.966   -25318594.60108 -19889128.07648        55.000
        51.000          82.910          64.605
 14  1 10  1 34  0.0000000  0  7G31G21G25G14G12G02G29
  21272651.457    21272644.522   -19663152.21308 -15253054.48048        53.000
        44.000        1290.087        1005.263
  24086785.266    24086779.844    -6236114.39903  -4717436.37946        37.000
        22.000        3229.750        2516.689
  20542436.311    20542432.528   -21763416.30708 -16931367.09748        53.000
        46.000       -1099.131        -856.466
  24320117.580    24320110.082    -3385110.24806  -2583233.80046        43.000
        22.000       -3121.060       -2431.995
  22909897.160    22909890.959   -10860324.68706  -8427096.71847        45.000
        34.000       -2782.217       -2167.961
  23170452.972    23170443.758   -10752078.31506  -8373897.22347        43.000
        32.000       -1856.641       -1446.734
  20064678.640    20064672.647   -25320844.56408 -19890881.29248        55.000
        51.000          67.255          52.407
 14  1 10  1 34 30.0000000  0  7G31G21G25G14G12G02G29
  21265334.691    21265327.720   -19701601.33408 -15283014.83048        53.000
        44.000        1273.112         992.036
  24068357.969    24068351.139    -6332957.55305  -4792898.55346        40.000
        22.000        3226.389        2514.069
  20548744.040    20548740.236   -21730267.99808 -16905537.24948        53.000
        46.000       -1110.838        -865.588
  24337942.518    24337937.888    -3291429.21403  -2510235.61145        36.000
        20.000       -3124.065       -2434.337
  22925795.682    22925790.650   -10776774.19206  -8361992.42547        44.000
        34.000       -2787.855       -2172.354
  23181093.320    23181084.394   -10696162.48206  -8330326.45547        43.000
        32.000       -1871.165       -1458.051
  20064338.242    20064332.111   -25322633.54308 -19892275.29948        54.000
        51.000          51.989          40.511
 14  1 10  1 35  0.0000000  0  7G31G21G25G14G12G02G29
  21258114.847    21258107.921   -19739541.73608 -15312578.78248        53.000
        44.000        1256.241         978.889
  24049948.759    24049942.177    -6429697.15505  -4868280.06446        42.000
        24.000        3222.916        2511.363
  20555119.210    20555115.794   -21696766.66308 -16879432.31448        53.000
        46.000       -1122.538        -874.705
  24355790.894    24355783.368    -3197648.71006  -2437159.78246        43.000
        22.000       -3127.738       -2437.198
  22941727.391    22941722.157   -10693053.31906  -8296755.40847        44.000
        34.000       -2793.554       -2176.795
  23191815.847    23191807.803   -10639809.57105  -8286415.08747        42.000
        32.000       -1885.731       -1469.401
  20064085.456    20064079.422   -25323962.24008 -19893310.64248        54.000
        51.000          36.656          28.563
 14  1 10  1 35 30.0000000  0  7G31G21G25G14G12G02G29
  21250992.169    21250985.359   -19776971.06508 -15341744.49648        53.000
        45.000        1239.108         965.539
  24031560.114    24031554.142    -6526329.99705  -4943578.36646        41.000
        24.000        3219.294        2508.541
  20561561.591    20561557.589   -21662911.88408 -16853051.97348        53.000
        46.000       -1134.373        -883.927
  24373653.505    24373649.139    -3103771.40003  -2364008.76546        36.000
        21.000       -3130.823       -2439.602
  22957691.768    22957685.951   -10609162.36706  -8231385.89347        45.000
        34.000       -2799.280       -2181.257
  23202622.878    23202614.312   -10583021.31405  -8242164.50147        42.000
        32.000       -1900.257       -1480.719
  20063920.209    20063913.989   -25324830.70408 -19893987.35848        55.000
        51.000          21.267          16.571
 14  1 10  1 36  0.0000000  0  7G31G21G25G14G12G02G29
  21243966.795    21243960.144   -19813889.38308 -15370512.01448        53.000
        44.000        1222.181         952.349
  24013192.141    24013185.781    -6622855.27105  -5018792.80846        42.000
        22.000        3215.887        2505.886
  20568070.904    20568067.235   -21628705.26408 -16826397.47548        53.000
        46.000       -1145.968        -892.962
  24391535.610    24391528.618    -3009802.04904  -2290785.75445        39.000
        19.000       -3133.674       -2441.823
  22973688.101    22973681.664   -10525103.27206  -8165885.33147        45.000
        33.000       -2804.669       -2185.457
  23213511.834    23213502.725   -10525800.27406  -8197576.67946        43.000
        31.000       -1914.425       -1491.760
  20063842.105    20063835.430   -25325241.21908 -19894307.23648        54.000
        51.000           6.117           4.766
 14  1 10  1 36 30.0000000  0  7G31G21G25G14G12G02G29
  21237039.094    21237032.627   -19850294.20508 -15398879.41348        53.000
        44.000        1205.018         938.975
  23994845.175    23994838.098    -6719269.73005  -5093920.98846        42.000
        23.000        3212.010        2502.865
  20574647.140    20574643.491   -21594145.79508 -16799468.01548        53.000
        46.000       -1157.687        -902.094
  24409434.421    24409428.712    -2915742.16804  -2217492.44146        38.000
        21.000       -3136.837       -2444.289
  22989716.227    22989709.534   -10440875.44006  -8100253.26847        46.000
        33.000       -2810.255       -2189.809
  23224483.210    23224474.148   -10468147.14706  -8152652.16147        43.000
        32.000       -1928.722       -1502.900
  20063851.194    20063844.587   -25325193.25508 -19894269.85948        54.000
        51.000          -9.103          -7.093
 14  1 10  1 37  0.0000000  0  7G31G21G25G14G12G02G29
  21230209.892    21230202.868   -19886184.28008 -15426845.70648        53.000
        44.000        1187.947         925.673
  23976519.251    23976512.319    -6815571.58405  -5168961.41046        40.000
        23.000        3208.167        2499.870
  20581290.850    20581287.032   -21559234.13208 -16772264.12948        54.000
        46.000       -1169.367        -911.195
  24427350.314    24427344.590    -2821595.90803  -2144131.74746        37.000
        21.000       -3139.245       -2446.165
  23005775.113    23005769.427   -10356480.13906  -8034490.72447        46.000
        33.000       -2815.773       -2194.109
  23235535.931    23235527.037   -10410064.54806  -8107392.98346        43.000
        30.000       -1942.971       -1514.003
  20063947.099    20063941.162   -25324688.18808 -19893876.29448        54.000
        51.000         -24.206         -18.862
 14  1 10  1 37 30.0000000  0  7G31G21G25G14G12G02G29
  21223478.164    21223471.621   -19921557.26208 -15454409.07248        53.000
        44.000        1170.619         912.170
  23958214.906    23958209.327    -6911758.06405  -5243911.87446        40.000
        24.000        3204.408        2496.941
  20588001.442    20587997.887   -21523969.64808 -16744785.32048        53.000
        46.000       -1181.173        -920.395
  24445280.382    24445276.003    -2727365.01702  -2070704.97745        34.000
        19.000       -3142.184       -2448.455
  23021867.997    23021862.232   -10271917.28906  -7968597.62247        46.000
        33.000       -2821.417       -2198.507
  23246669.661    23246661.519   -10351553.31205  -8061799.81546        42.000
        30.000       -1957.213       -1525.101
  20064130.143    20064124.151   -25323726.41108 -19893126.85348        53.000
        51.000         -39.450         -30.740
 14  1 10  1 38  0.0000000  0  7G31G21G25G14G12G02G29
  21216845.585    21216838.917   -19956412.02908 -15481568.62548        53.000
        44.000        1153.084         898.507
  23939934.284    23939927.739    -7007826.68205  -5318770.49946        41.000
        23.000        3200.184        2493.650
  20594779.110    20594775.194   -21488352.67408 -16717031.83548        53.000
        46.000       -1193.195        -929.762
  24463228.913    24463223.764    -2633053.34203  -1997215.47746        37.000
        22.000       -3145.011       -2450.658
  23037991.691    23037985.591   -10187187.81906  -7902574.66747        46.000
        34.000       -2827.248       -2203.050
  23257885.644    23257876.821   -10292615.80306  -8015874.49746        43.000
        31.000       -1971.813       -1536.478
  20064399.946    20064393.948   -25322308.54408 -19892022.02048        53.000
        51.000         -54.943         -42.813
 14  1 10  1 38 30.0000000  0  7G31G21G25G14G12G02G29
  21210311.802    21210304.907   -19990748.41908 -15508324.25948        53.000
        44.000        1136.010         885.202
  23921675.163    23921668.777    -7103776.58404  -5393536.67546        39.000
        23.000        3196.346        2490.660
  20601623.477    20601619.599   -21452384.53707 -16689004.71748        52.000
        46.000       -1204.693        -938.722
  24481188.940    24481183.983    -2538664.87702  -1923665.91945        35.000
        18.000       -3147.296       -2452.438
  23054146.065    23054140.195   -10102293.20306  -7836423.02547        46.000
        33.000       -2832.531       -2207.167
  23269181.318    23269172.830   -10233254.82705  -7969619.17646        42.000
        30.000       -1985.592       -1547.214
  20064756.102    20064750.236   -25320436.88608 -19890563.58248        54.000
        51.000         -69.825         -54.409
 14  1 10  1 39  0.0000000  0  7G31G21G25G14G12G02G29
  21203876.801    21203870.200   -20024563.63907 -15534673.78548        52.000
        44.000        1118.627         871.657
  23903439.404    23903433.524    -7199604.42204  -5468207.67746        39.000
        23.000        3192.386        2487.574
  20608535.083    20608531.240   -21416064.44108 -16660703.35548        53.000
        46.000       -1216.442        -947.877
  24499165.632    24499160.771    -2444201.83603  -1850058.34846        37.000
        22.000       -3149.908       -2454.474
  23070332.081    23070326.205   -10017233.18606  -7770142.51147        44.000
        32.000       -2837.951       -2211.390
  23280557.714    23280549.097   -10173471.42805  -7923034.69646        42.000
        31.000       -1999.645       -1558.165
  20065198.677    20065192.384   -25318111.90208 -19888751.90348        54.000
        51.000         -84.904         -66.159
 14  1 10  1 39 30.0000000  0  7G31G21G25G14G12G02G29
  21197541.577    21197534.714   -20057856.06807 -15560615.93648        52.000
        45.000        1100.981         857.908
  23885227.613    23885222.533    -7295307.51805  -5542781.50046        40.000
        26.000        3188.086        2484.223
  20615513.366    20615509.914   -21379391.99308 -16632127.42548        53.000
        46.000       -1230.281        -958.661
  24517155.429    24517149.776    -2349666.64003  -1776394.62546        36.000
        21.000       -3152.227       -2456.281
  23086549.697    23086545.044    -9932007.91606  -7703733.23947        44.000
        33.000       -2843.633       -2215.818
  23292014.110    23292005.688   -10113266.86305  -7876122.04446        42.000
        31.000       -2013.774       -1569.175
  20065727.389    20065721.377   -25315332.78008 -19886586.34948        54.000
        51.000        -100.181         -78.063
 14  1 10  1 40  0.0000000  0  7G31G21G25G14G12G02G29
  21191305.609    21191299.117   -20090625.20107 -15586150.33048        52.000
        44.000        1083.346         844.166
  23867040.807    23867034.230    -7390884.50605  -5617257.07146        40.000
        26.000        3183.610        2480.735
  20622558.707    20622555.464   -21342368.40907 -16603277.87748        52.000
        46.000       -1240.096        -966.309
  24535157.070    24535151.219    -2255063.64403  -1702677.88445        37.000
        19.000       -3154.617       -2458.143
  23102799.526    23102793.840    -9846619.40506  -7637196.73847        45.000
        34.000       -2849.081       -2220.063
  23303550.574    23303542.145   -10052643.60805  -7828883.15146        42.000
        31.000       -2027.845       -1580.139
  20066342.297    20066336.642   -25312101.93508 -19884068.81248        54.000
        51.000        -115.301         -89.845
 14  1 10  1 40 30.0000000  0  7G31G21G25G14G12G02G29
  21185170.083    21185163.175   -20122868.57307 -15611275.03548        52.000
        44.000        1066.163         830.776
  23848877.838    23848870.651    -7486332.46405  -5691632.08246        40.000
        23.000        3179.561        2477.580
  20629671.223    20629667.720   -21304992.98607 -16574154.17548        52.000
        46.000       -1251.571        -975.250
  24553172.572    24553166.610    -2160394.71503  -1628909.93646        36.000
        21.000       -3156.693       -2459.761
  23119079.437    23119073.013    -9761067.29406  -7570532.77647        46.000
        34.000       -2854.354       -2224.172
  23315166.397    23315157.668    -9991603.29805  -7781319.28047        42.000
        32.000       -2041.557       -1590.823
  20067042.922    20067036.506   -25308419.53708 -19881199.40948        53.000
        51.000        -130.072        -101.355
 14  1 10  1 41  0.0000000  0  7G31G21G25G14G12G02G29
  21179134.571    21179127.623   -20154585.51807 -15635989.54448        52.000
        44.000        1048.430         816.959
  23830739.109    23830732.893    -7581649.31405  -5765904.95346        41.000
        25.000        3175.076        2474.085
  20636850.354    20636846.691   -21267266.23507 -16544756.70648        52.000
        46.000       -1263.328        -984.411
  24571199.307    24571193.557    -2065663.48803  -1555093.42546        37.000
        22.000       -3158.582       -2461.232
  23135389.876    23135383.830    -9675352.68306  -7503742.18047        44.000
        32.000       -2859.822       -2228.433
  23326860.842    23326851.858    -9930148.09805  -7733432.10046        42.000
        31.000       -2055.422       -1601.628
  20067829.438    20067823.497   -25304286.61908 -19877978.95248        53.000
        51.000        -145.276        -113.202
 14  1 10  1 41 30.0000000  0  7G31G21G25G14G12G02G29
  21173199.467    21173192.794   -20185773.92407 -15660292.19748        51.000
        44.000        1030.836         803.249
  23812625.959    23812620.511    -7676832.88605  -5840073.93846        41.000
        25.000        3170.504        2470.523
  20644096.449    20644093.053   -21229187.96407 -16515085.32848        51.000
        46.000       -1275.096        -993.582
  24589236.129    24589231.456    -1970872.78002  -1481230.46245        34.000
        16.000       -3160.316       -2462.584
  23151731.709    23151726.132    -9589475.43606  -7436824.85547        45.000
        32.000       -2865.194       -2232.619
  23338633.444    23338624.894    -9868279.34605  -7685222.67846        42.000
        30.000       -2069.115       -1612.297
  20068701.651    20068695.173   -25299703.75107 -19874407.88148        52.000
        51.000        -160.145        -124.788
 14  1 10  1 42  0.0000000  0  7G31G21G25G14G12G02G29
  21167365.409    21167358.721   -20216433.19907 -15684182.54248        52.000
        45.000        1013.263         789.555
  23794539.028    23794532.839    -7771881.16905  -5914137.49946        41.000
        24.000        3166.134        2467.117
  20651409.080    20651405.237   -21190759.16507 -16485140.82248        51.000
        46.000       -1286.752       -1002.664
  24607285.639    24607280.583    28056953.38203  21917075.60546        37.000
        21.000       -3161.967       -2463.870
  23168104.727    23168098.129    -9503436.81706  -7369781.77447        44.000
        33.000       -2870.512       -2236.762
  23350485.632    23350476.100    -9805999.69505  -7636693.07346        42.000
        29.000       -2082.728       -1622.905
  20069659.222    20069652.590   -25294672.96107 -19870487.79248        52.000
        51.000        -175.062        -136.412
 14  1 10  1 42 30.0000000  0  7G31G21G25G14G12G02G29
  21161631.699    21161624.959   -20246561.78107 -15707659.36248        52.000
        44.000         995.492         775.708
  23776477.766    23776471.808    -7866791.70105  -5988093.78146        42.000
        25.000        3161.390        2463.421
  20658788.661    20658784.557   -21151979.52507 -16454922.92848        52.000
        46.000       -1298.541       -1011.850
  24625344.915    24625339.405    28151853.05504  21991023.36846        38.000
        22.000       -3164.245       -2465.645
  23184508.173    23184502.164    -9417237.39306  -7302613.39447        44.000
        33.000       -2875.866       -2240.934
  23362414.370    23362405.988    -9743310.71505  -7587844.50246        42.000
        30.000       -2096.452       -1633.599
  20070701.643    20070695.347   -25289194.29308 -19866218.69348        54.000
        51.000        -190.070        -148.106
 14  1 10  1 43  0.0000000  0  7G31G21G25G14G12G02G29
  21156000.144    21155993.431   -20276157.53407 -15730720.98848        52.000
        45.000         977.634         761.793
  23758443.989    23758438.266    -7961561.58106  -6061940.42146        43.000
        25.000        3156.511        2459.619
  20666235.187    20666231.273   -21112848.52008 -16424431.24248        53.000
        45.000       -1310.301       -1021.013
  24643411.516    24643406.981    28246803.41601  22065010.82045        33.000
        15.000       -3165.633       -2466.727
  23200941.432    23200936.055    -9330877.10106  -7235319.66947        45.000
        32.000       -2881.453       -2245.288
  23374421.648    23374413.244    -9680213.64806  -7538677.97146        43.000
        31.000       -2110.012       -1644.166
  20071829.333    20071822.733   -25283268.13308 -19861600.90048        55.000
        51.000        -205.057        -159.784
 14  1 10  1 43 30.0000000  0  7G31G21G25G14G12G02G29
  21150469.773    21150462.973   -20305219.89007 -15753366.98348        52.000
        44.000         959.724         747.837
  23740436.941    23740431.070    -8056189.70506  -6135676.58746        43.000
        26.000        3151.643        2455.826
  20673748.309    20673744.373   -21073367.17507 -16393666.56748        52.000
        46.000       -1322.073       -1030.187
  24661490.079    24661485.107    28341800.93803  22139034.78546        36.000
        21.000       -3167.717       -2468.351
  23217405.447    23217399.881    -9244357.35506  -7167901.68547        45.000
        32.000       -2886.824       -2249.473
  23386505.432    23386497.234    -9616711.34806  -7489195.65746        43.000
        30.000       -2123.606       -1654.758
  20073041.520    20073035.648   -25276896.43108 -19856635.93848        54.000
        51.000        -219.973        -171.408
 14  1 10  1 44  0.0000000  0  7G31G21G25G14G12G02G29
  21145040.934    21145034.214   -20333748.03007 -15775596.70648        52.000
        45.000         941.944         733.983
  23722457.274    23722450.954    -8150673.62306  -6209300.39946        43.000
        23.000        3146.979        2452.191
  20681327.372    20681323.831   -21033536.18007 -16362629.43648        51.000
        46.000       -1333.563       -1039.140
  24679576.056    24679571.405    28436841.72803  22213092.53346        37.000
        21.000       -3168.710       -2469.125
  23233900.355    23233894.113    -9157679.26206  -7100360.29247        45.000
        32.000       -2891.923       -2253.446
  23398666.175    23398657.506    -9552805.97805  -7439399.25246        42.000
        29.000       -2136.884       -1665.104
  20074338.695    20074332.328   -25270080.58508 -19851324.88748        53.000
        51.000        -234.584        -182.793
 14  1 10  1 44 30.0000000  0  7G31G21G25G14G12G02G29
  21139714.565    21139707.438   -20361739.28307 -15797408.07448        52.000
        45.000         924.229         720.178
  23704505.607    23704498.959    -8245010.20905  -6282809.41646        42.000
        25.000        3142.222        2448.485
  20688973.925    20688970.572   -20993354.29507 -16331318.88848        51.000
        46.000       -1345.024       -1048.071
  24697667.955    24697664.675    28531924.65200  22287183.11945        32.000
        15.000       -3169.892       -2470.046
  23250424.578    23250418.370    -9070842.22706  -7032695.04647        45.000
        32.000       -2897.109       -2257.488
  23410903.843    23410894.519    -9488498.31005  -7389289.38946        42.000
        29.000       -2150.151       -1675.442
  20075720.246    20075714.239   -25262819.89807 -19845667.20848        52.000
        51.000        -249.311        -194.269
 14  1 10  1 45  0.0000000  0  8G31G21G25G14G12G05G02G29
  21134490.307    21134483.354   -20389193.30407 -15818800.82548        52.000
        45.000         906.308         706.214
  23686581.664    23686576.330    -8339198.32005  -6356202.73146        42.000
        26.000        3137.207        2444.577
  20696686.978    20696683.303   -20952822.65007 -16299735.79848        51.000
        45.000       -1356.807       -1057.252
  24715770.564    24715765.799    28627045.14503  22361303.02845        36.000
        19.000       -3171.284       -2471.131
  23266979.090    23266973.095    -8983847.71606  -6964907.11347        45.000
        32.000       -2902.354       -2261.574
  25247625.953    25247619.797     -560612.20105   -434651.96646        40.000
        22.000        2277.427        1774.618
  23423217.343    23423207.979    -9423791.06005  -7338868.14146        42.000
        29.000       -2163.462       -1685.815
  20077186.241    20077180.321   -25255116.38907 -19839664.46748        52.000
        51.000        -264.068        -205.767
 14  1 10  1 45 30.0000000  0  8G31G21G25G14G12G05G02G29
  21129368.164    21129361.341   -20416110.39408 -15839775.18548        53.000
        44.000         888.398         692.258
  23668686.988    23668681.086    -8433236.59405  -6429479.27646        42.000
        25.000        3132.187        2440.665
  20704466.250    20704462.373   -20911942.83707 -16267881.40248        52.000
        45.000       -1368.399       -1066.285
  24733877.308    24733872.594    28722199.25600  22435449.04245        32.000
        18.000       -3172.174       -2471.824
  23283563.789    23283557.937    -8896698.04306  -6896998.27447        46.000
        33.000       -2907.506       -2265.589
  25234649.932    25234644.441     -628802.07805   -487786.99145        40.000
        19.000        2268.676        1767.799
  23435605.899    23435597.553    -9358687.51906  -7288138.11946        43.000
        29.000       -2176.661       -1696.100
  20078735.961    20078730.203   -25246972.42208 -19833318.51848        54.000
        51.000        -278.663        -217.140
 14  1 10  1 46  0.0000000  0  8G31G21G25G14G12G05G02G29
  21124349.460    21124342.166   -20442485.66507 -15860327.34348        52.000
        45.000         870.180         678.062
  23650821.832    23650815.766    -8527119.27905  -6502634.60546        41.000
        26.000        3126.742        2436.422
  20712312.251    20712308.448   -20870711.61207 -16235753.17348        51.000
        45.000       -1380.240       -1075.512
  24751991.445    24751986.135    28817387.20801  22509621.46445        33.000
        17.000       -3173.409       -2472.786
  23300177.054    23300171.579    -8809390.21006  -6828966.18747        45.000
        32.000       -2912.945       -2269.828
  25221725.304    25221719.672     -696722.52505   -540712.01945        40.000
        19.000        2259.506        1760.654
  23448070.737    23448061.690    -9293186.35905  -7237098.25546        42.000
        29.000       -2190.025       -1706.513
  20080369.949    20080364.108   -25238385.45807 -19826627.37248        52.000
        51.000        -293.580        -228.764
 14  1 10  1 46 30.0000000  0  8G31G21G25G14G12G05G02G29
  21119432.943    21119425.908   -20468319.70007 -15880457.76448        51.000
        44.000         852.219         664.067
  23632986.021    23632979.576    -8620846.43305  -6575668.74046        42.000
        25.000        3121.760        2432.541
  20720224.815    20720221.061   -20829131.00307 -16203352.70748        52.000
        45.000       -1391.726       -1084.462
  24770110.460    24770105.463            .00010  22583816.60645
        17.000       -3174.299       -2473.480
  23316821.089    23316814.863    -8721926.12906  -6760812.34046        44.000
        31.000       -2918.044       -2273.801
  25208852.720    25208847.321     -764372.58705   -593426.35346        42.000
        23.000        2250.378        1753.542
  23460609.213    23460601.048    -9227291.43605  -7185751.55746        42.000
        29.000       -2203.015       -1716.635
  20082087.614    20082081.756   -25229358.96408 -19819593.73948        54.000
        51.000        -308.186        -240.145
 14  1 10  1 47  0.0000000  0  8G31G21G25G14G12G05G02G29
  21114619.948    21114613.223   -20493611.98007 -15900166.03748        52.000
        45.000         834.072         649.926
  23615179.980    23615173.967    -8714416.40505  -6648580.37946        41.000
        25.000        3116.430        2428.387
  20728203.625    20728199.683   -20787202.00607 -16170680.77048        51.000
        45.000       -1403.389       -1093.550
  24788233.917    24788229.237    29007846.61402  22658031.39645        35.000
        18.000       -3175.122       -2474.121
  23333494.461    23333487.636    -8634307.75906  -6692538.29047        45.000
        32.000       -2923.184       -2277.806
  25196030.324    25196025.296     -831750.70305   -645928.82246        41.000
        22.000        2241.455        1746.588
  23473224.188    23473215.105    -9161005.48805  -7134100.16946        42.000
        30.000       -2215.977       -1726.735
  20083888.891    20083883.261   -25219893.43507 -19812218.00048        52.000
        51.000        -322.818        -251.546
 14  1 10  1 47 30.0000000  0  8G31G21G25G14G12G05G02G29
  21109910.592    21109903.701   -20518360.27207 -15919450.42248        51.000
        44.000         815.746         635.646
  23597404.757    23597399.303    -8807825.57905  -6721366.71746        41.000
        26.000        3110.668        2423.897
  20736248.965    20736245.471   -20744923.32008 -16137736.35148        53.000
        45.000       -1415.191       -1102.746
  24806362.321    24806357.991    29103112.65902  22732264.68245        35.000
        18.000       -3176.197       -2474.959
  23350197.378    23350191.313    -8546534.20306  -6624143.31047        45.000
        33.000       -2928.433       -2281.896
  25183261.250    25183256.871     -898852.02004   -698215.56046        39.000
        22.000        2231.972        1739.199
  23485912.072    23485903.074    -9094328.99805  -7082144.45246        42.000
        30.000       -2229.136       -1736.990
  20085773.961    20085768.189   -25209989.03608 -19804500.28648        54.000
        51.000        -337.525        -263.007
 14  1 10  1 48  0.0000000  0  8G31G21G25G14G12G05G02G29
  21105304.896    21105297.941   -20542563.90207 -15938310.38748        52.000
        44.000         797.650         621.546
  23579661.018    23579654.552    -8901072.21905  -6794026.43246        42.000
        25.000        3105.482        2419.856
  20744360.640    20744356.925   -20702296.01507 -16104520.28448        52.000
        45.000       -1426.725       -1111.734
  24824495.666    24824490.891    29198398.62003  22806513.43145        37.000
        19.000       -3176.705       -2475.354
  23366928.802    23366923.913    -8458606.76906  -6555628.41747        44.000
        32.000       -2933.448       -2285.804
  25170545.650    25170540.374     -965674.81005   -750285.28446        40.000
        21.000        2222.777        1732.034
  23498673.856    23498665.514    -9027264.65006  -7029886.51646        43.000
        30.000       -2241.900       -1746.935
  20087741.727    20087735.711   -25199647.61107 -19796442.03548        52.000
        51.000        -351.993        -274.280
 14  1 10  1 48 30.0000000  0  8G31G21G25G14G12G05G02G29
  21100802.996    21100796.166   -20566221.05607 -15956744.53548        52.000
        45.000         779.676         607.540
  23561948.581    23561941.536    -8994153.67405  -6866557.43646        42.000
        26.000        3100.115        2415.674
  20752538.850    20752535.059   -20659319.73607 -16071032.28048        52.000
        45.000       -1438.185       -1120.664
  24842630.631    24842625.825    29293702.17502  22880775.98845        35.000
        19.000       -3176.852       -2475.469
  23383689.771    23383684.846    -8370525.76806  -6486993.87246        44.000
        31.000       -2938.542       -2289.773
  25157882.769    25157878.309    -1032215.32204   -802135.03945        39.000
        19.000        2213.328        1724.672
  23511508.605    23511500.707    -8959813.96805  -6977327.56246        41.000
        29.000       -2254.596       -1756.828
  20089792.708    20089786.631   -25188870.19108 -19788044.04148        53.000
        51.000        -366.369        -285.482
 14  1 10  1 49  0.0000000  0  8G31G21G25G14G12G05G02G29
  21096405.185    21096398.223   -20589331.49307 -15974752.67048        52.000
        45.000         761.169         593.119
  23544266.845    23544261.031    -9087068.56106  -6938958.63946        43.000
        27.000        3094.353        2411.184
  20760783.370    20760779.623   -20615995.47408 -16037273.12348        53.000
        46.000       -1449.969       -1129.846
  24860769.655    24860763.969    29389019.81803  22955049.45545        36.000
        19.000       -3177.586       -2476.041
  23400480.060    23400474.481    -8282292.60506  -6418240.77746        45.000
        31.000       -2943.626       -2293.735
  25145275.227    25145269.179    -1098471.44905   -853763.26745        41.000
        19.000        2203.776        1717.228
  23524417.874    23524408.453    -8891979.77205  -6924469.73246        42.000
        28.000       -2267.679       -1767.022
  20091926.256    20091920.107   -25177657.54608 -19779306.91448        53.000
        51.000        -381.082        -296.947
 14  1 10  1 49 30.0000000  0  8G31G21G25G14G12G05G02G29
  21092111.548    21092104.379   -20611894.22607 -15992334.02948        51.000
        44.000         742.912         578.892
  23526616.767    23526611.857    -9179814.90205  -7011228.48846        42.000
        27.000        3088.722        2406.796
  20769093.663    20769089.881   -20572323.54407 -16003243.05248        51.000
        45.000       -1461.537       -1138.860
  24878909.764    24878903.906    29484348.38903  23029331.44846        37.000
        21.000       -3177.758       -2476.175
  23417300.098    23417294.287    -8193907.93106  -6349369.62846        44.000
        31.000       -2948.568       -2297.585
  25132722.006    25132716.065    -1164440.60805   -905167.84745        40.000
        19.000        2194.054        1709.653
  23537398.908    23537389.601    -8823764.25906  -6871314.77346        43.000
        28.000       -2279.969       -1776.599
  20094142.248    20094136.372   -25166011.25707 -19770231.88148        52.000
        51.000        -395.331        -308.050
 14  1 10  1 50  0.0000000  0  8G31G21G25G14G12G05G02G29
  21087922.481    21087915.883   -20633907.35007 -16009487.11448        51.000
        45.000         724.527         564.567
  23509002.137    23508995.347    -9272389.63806  -7083364.61246        43.000
        27.000        3082.818        2402.196
  20777470.470    20777467.199   -20528303.49807 -15968941.72548        51.000
        45.000       -1473.158       -1147.916
  24897050.533    24897046.438    29579685.39302  23103620.03845        35.000
        18.000       -3178.046       -2476.400
  23434146.910    23434141.376    -8105371.80406  -6280380.45347        45.000
        32.000       -2953.700       -2301.584
  25120223.657    25120218.372    -1230118.99805   -956345.85846        40.000
        21.000        2184.327        1702.073
  23550451.777    23550442.993    -8755168.81006  -6817863.76546        43.000
        29.000       -2292.738       -1786.549
  20096440.901    20096434.993   -25153932.06907 -19760819.52448        52.000
        51.000        -409.872        -319.381
 14  1 10  1 50 30.0000000  0  8G31G21G25G14G12G05G02G29
  21083838.597    21083831.936   -20655370.37007 -16026211.53748        52.000
        45.000         706.337         550.392
  23491417.820    23491411.740    -9364791.28405  -7155365.89046        42.000
        26.000        3077.216        2397.831
  20785913.343    20785909.757   -20483936.13307 -15934369.76348        52.000
        45.000       -1484.615       -1156.843
  24915195.197    24915189.430    29675027.53403  23177912.58145        36.000
        19.000       -3177.999       -2476.363
  23451024.329    23451018.311    -8016685.38406  -6211274.18046        45.000
        31.000       -2958.712       -2305.490
  25107780.990    25107775.837    -1295504.26905  -1007295.50146        41.000
        21.000        2174.598        1694.492
  23563576.891    23563568.454    -8686195.85506  -6764118.60646        43.000
        30.000       -2305.177       -1796.242
  20098821.529    20098815.567   -25141421.70508 -19751071.18148        53.000
        51.000        -424.113        -330.477
 14  1 10  1 51  0.0000000  0  8G31G21G25G14G12G05G02G29
  21079859.121    21079852.321   -20676281.34807 -16042505.80848        51.000
        45.000         687.749         535.908
  23473867.608    23473861.974    -9457016.20805  -7227229.44346        42.000
        27.000        3071.127        2393.086
  20794422.247    20794418.662   -20439220.66107 -15899526.54448        52.000
        45.000       -1496.406       -1166.031
  24933337.871    24933332.419    29770372.43104  23252207.30745        38.000
        19.000       -3178.203       -2476.522
  23467929.098    23467921.971    -7927847.94206  -6142050.23146        44.000
        30.000       -2963.701       -2309.378
  25095395.250    25095389.289    -1360592.80705  -1058013.87446        40.000
        22.000        2164.531        1686.648
  23576773.945    23576765.363    -8616846.42406  -6710080.10446        43.000
        30.000       -2317.945       -1806.191
  20101284.569    20101278.610   -25128478.97307 -19740985.94448        52.000
        51.000        -438.628        -341.788
 14  1 10  1 51 30.0000000  0  8G31G21G25G14G12G05G02G29
  21075985.089    21075978.154   -20696640.01107 -16058369.70248        52.000
        45.000         669.237         521.483
  23456352.068    23456346.170    -9549063.31806  -7298954.43246        43.000
        27.000        3065.106        2388.394
  20802997.527    20802993.622   -20394158.43507 -15864413.12948        51.000
        45.000       -1508.044       -1175.099
  24951481.901    24951475.863    29865716.44603  23326501.27145        37.000
        18.000       -3178.292       -2476.592
  23484863.340    23484856.595    -7838861.61906  -6072710.25446        46.000
        31.000       -2968.786       -2313.340
  25083065.578    25083060.498    -1425382.76505  -1108499.54746        40.000
        22.000        2154.461        1678.801
  23590041.867    23590032.775    -8547123.45205  -6655750.52746        42.000
        29.000       -2330.182       -1815.726
  20103829.125    20103823.526   -25115106.57908 -19730565.90148        53.000
        51.000        -453.053        -353.029
 14  1 10  1 52  0.0000000  0  8G31G21G25G14G12G05G02G29
  21072216.641    21072209.706   -20716444.96907 -16073802.13648        52.000
        45.000         650.991         507.265
  23438870.821    23438863.915    -9640930.02306  -7370538.85746        43.000
        26.000        3059.238        2383.822
  20811638.320    20811634.396   -20348749.15907 -15829029.28148        50.000
        45.000       -1519.381       -1183.933
  24969624.601    24969618.564    29961057.13304  23400792.76145        39.000
        18.000       -3177.892       -2476.279
  23501825.315    23501819.392    -7749726.31706  -6003254.17346        45.000
        31.000       -2973.565       -2317.063
  25070794.270    25070789.288    -1489870.97604  -1158750.12846        38.000
        21.000        2144.643        1671.150
  23603380.461    23603370.722    -8477028.80405  -6601131.31446        42.000
        28.000       -2342.554       -1825.367
  20106455.467    20106449.809   -25101305.36407 -19719811.69948        52.000
        51.000        -467.105        -363.978
 14  1 10  1 52 30.0000000  0  8G31G21G25G14G12G05G02G29
  21068553.221    21068546.310   -20735695.22007 -16088802.33448        50.000
        45.000         632.451         492.819
  23421423.332    23421416.841    -9732614.42506  -7441981.23846        44.000
        28.000        3053.115        2379.051
  20820345.390    20820341.754   -20302993.44107 -15793375.48648        52.000
        45.000       -1530.904       -1192.912
  24987765.875    24987760.598    30056391.27603  23475079.10745        37.000
        19.000       -3177.725       -2476.149
  23518814.379    23518809.084    -7660443.14206  -5933682.90846        44.000
        31.000       -2978.565       -2320.960
  25058580.939    25058576.555    -1554054.18304  -1208763.04746        39.000
        22.000        2134.394        1663.164
  23616788.835    23616779.402    -8406564.94805  -6546224.37746        42.000
        28.000       -2355.015       -1835.077
  20109163.128    20109156.931   -25087076.61707 -19708724.35948        52.000
        51.000        -481.441        -375.149
 14  1 10  1 53  0.0000000  0  8G31G21G25G14G12G05G02G29
  21064995.696    21064988.674   -20754390.23307 -16103369.88148        50.000
        45.000         613.834         478.312
  23404011.723    23404005.286    -9824114.31106  -7513279.83546        43.000
        28.000        3046.758        2374.097
  20829118.237    20829114.818   -20256891.40807 -15757451.83048        51.000
        45.000       -1542.558       -1201.993
  25005904.487    25005900.178    30151716.21403  23549358.21645        37.000
        19.000       -3177.080       -2475.646
  23535832.262    23535826.587    -7571012.77106  -5863996.93846        44.000
        31.000       -2983.432       -2324.752
  25046425.813    25046420.685    -1617929.72804  -1258536.26046        39.000
        22.000        2124.048        1655.103
  23630266.741    23630258.700    -8335733.77705  -6491031.26246        41.000
        27.000       -2367.319       -1844.664
  20111951.853    20111945.926   -25072421.37907 -19697304.69648        52.000
        50.000        -495.581        -386.167
 14  1 10  1 53 30.0000000  0  8G31G21G25G14G12G05G02G29
  21061544.057    21061536.748   -20772529.04607 -16117504.03048        51.000
        45.000         595.367         463.923
  23386635.365    23386629.409    -9915427.33706  -7584432.80146        44.000
        28.000        3040.602        2369.300
  20837957.052    20837953.381   -20210443.49607 -15721258.66748        51.000
        45.000       -1554.032       -1210.934
  25024043.193    25024037.710    30247028.56604  23623627.62445        39.000
        19.000       -3176.908       -2475.513
  23552878.934    23552872.730    -7481435.79006  -5794196.70446        45.000
        31.000       -2988.324       -2328.564
  25034329.902    25034324.612    -1681495.22505  -1308067.85545        41.000
        20.000        2113.605        1646.965
  23643815.778    23643806.668    -8264537.45705  -6435553.62546        41.000
        28.000       -2379.242       -1853.955
  20114821.445    20114815.637   -25057341.39908 -19685554.06548        53.000
        50.000        -509.735        -397.196
 14  1 10  1 54  0.0000000  0  7G31G21G25G12G05G02G29
  21058198.810    21058191.869   -20790107.41407 -16131201.46348        51.000
        45.000         576.919         449.547
  23369295.427    23369289.281   -10006548.37606  -7655436.20046        43.000
        27.000        3034.361        2364.437
  20846862.302    20846858.576   -20163646.72507 -15684793.66048        52.000
        45.000       -1565.537       -1219.899
  23569953.250    23569947.192    -7391709.69806  -5724280.25846        45.000
        31.000       -2993.154       -2332.328
  25022293.753    25022288.771    -1744744.49005  -1357353.07345        40.000
        20.000        2103.228        1638.879
  23657433.885    23657424.942    -8192974.49705  -6379790.27246        42.000
        27.000       -2391.303       -1863.353
  20117772.910    20117766.366   -25041833.58308 -19673470.05048        53.000
        50.000        -523.735        -408.105
 14  1 10  1 54 30.0000000  0  7G31G21G25G12G05G02G29
  21054959.553    21054952.316   -20807130.03507 -16144465.83848        50.000
        45.000         558.183         434.948
  23351991.186    23351985.085   -10097481.06006  -7726292.82746        43.000
        26.000        3027.988        2359.471
  20855832.609    20855828.903   -20116507.20807 -15648061.56748        52.000
        45.000       -1576.973       -1228.810
  23587054.352    23587048.361    -7301841.09406  -5654252.77846        44.000
        30.000       -2997.955       -2336.069
  25010316.591    25010311.731    -1807680.42903  -1406394.13245        37.000
        18.000        2092.695        1630.671
  23671119.975    23671110.462    -8121053.11905  -6323747.63446        41.000
        27.000       -2403.311       -1872.710
  20120803.390    20120797.642   -25025905.10607 -19661058.25148        52.000
        51.000        -537.881        -419.128
 14  1 10  1 55  0.0000000  0  7G31G21G25G12G05G02G29
  21051826.355    21051819.771   -20823593.45907 -16157294.48648        50.000
        45.000         539.314         420.245
  23334724.344    23334718.845   -10188220.22806  -7796998.65046        44.000
        28.000        3021.224        2354.200
  20864868.664    20864865.333   -20069022.49807 -15611060.50248        51.000
        45.000       -1588.718       -1237.962
  23604183.981    23604177.559    -7211827.60706  -5584112.40546        45.000
        29.000       -3002.985       -2339.989
  24998402.180    24998395.392    -1870297.37204  -1455186.59345        39.000
        19.000        2081.819        1622.197
  23684874.713    23684864.973    -8048772.45205  -6267425.01246        41.000
        26.000       -2415.539       -1882.238
  20123915.246    20123909.146   -25009554.49607 -19648317.51048        52.000
        50.000        -552.111        -430.217
 14  1 10  1 55 30.0000000  0  7G31G21G25G12G05G02G29
  21048800.345    21048793.616   -20839496.29907 -16169686.30548        50.000
        45.000         520.500         405.584
  23317494.592    23317488.136   -10278764.08106  -7867552.27346        44.000
        29.000        3014.611        2349.047
  20873970.298    20873966.963   -20021192.87707 -15573790.67548        52.000
        45.000       -1600.331       -1247.011
  23621340.247    23621333.843    -7121670.09906  -5513859.79346        46.000
        29.000       -3007.894       -2343.813
  24986546.895    24986541.633    -1932592.80504  -1503728.44546        38.000
        21.000        2070.842        1613.643
  23698697.086    23698688.308    -7976135.09405  -6210824.46546        42.000
        28.000       -2427.401       -1891.481
  20127106.720    20127100.295   -24992783.25108 -19635249.00848        53.000
        50.000        -566.273        -441.252
 14  1 10  1 56  0.0000000  0  7G31G21G25G12G05G02G29
  21045880.622    21045874.321   -20854838.55507 -16181641.30948        51.000
        45.000         502.153         391.288
  23300302.184    23300295.634   -10369110.61006  -7937952.17246        44.000
        29.000        3008.344        2344.165
  20883137.772    20883133.978   -19973018.88707 -15536252.50648        52.000
        45.000       -1611.421       -1255.653
  23638523.807    23638517.799    -7031369.37906  -5443495.57446        45.000
        28.000       -3012.290       -2347.239
  24974754.245    24974750.398    -1994563.88604  -1552017.58046        38.000
        22.000        2060.376        1605.488
  23712587.297    23712578.286    -7903143.16905  -6153947.64546        42.000
        28.000       -2438.823       -1900.382
  20130377.989    20130372.004   -24975592.41408 -19621853.55048        53.000
        50.000        -579.903        -451.872
 14  1 10  1 56 30.0000000  0  7G31G21G25G12G05G02G29
  21043068.478    21043061.795   -20869618.66907 -16193158.28148        50.000
        45.000         483.208         376.525
  23283147.928    23283141.730   -10459256.71706  -8008195.88046        44.000
        29.000        3001.328        2338.697
  20892370.756    20892366.804   -19924500.21307 -15498445.76248        52.000
        45.000       -1623.111       -1264.762
  23655733.951    23655728.086    -6940925.68706  -5373019.98046        43.000
        28.000       -3017.271       -2351.120
  24963024.633    24963019.568    -2056207.24705  -1600051.40246        40.000
        22.000        2049.082        1596.687
  23726543.326    23726535.127    -7829797.85405  -6096795.44246        42.000
        27.000       -2450.879       -1909.776
  20133729.114    20133723.152   -24957981.98007 -19608131.13048        52.000
        50.000        -594.136        -462.963
 14  1 10  1 57  0.0000000  0  7G31G21G25G12G05G02G29
  21040362.875    21040355.941   -20883836.50907 -16204237.12148        51.000
        45.000         464.596         362.023
  23266031.828    23266026.454   -10549201.22106  -8078282.49146        45.000
        29.000        2994.762        2333.581
  20901668.763    20901664.851   -19875637.96407 -15460371.28548        51.000
        45.000       -1634.495       -1273.633
  23672971.913    23672966.289    -6850340.38206  -5302434.07546        44.000
        29.000       -3021.869       -2354.703
  24951357.879    24951351.278    -2117520.97505  -1647828.36646        41.000
        22.000        2038.302        1588.288
  23740567.906    23740558.853    -7756102.36505  -6039370.36246        41.000
        27.000       -2462.371       -1918.731
  20137159.244    20137153.211   -24939954.39608 -19594083.66448        53.000
        50.000        -607.855        -473.653
 14  1 10  1 57 30.0000000  0  7G31G21G25G12G05G02G29
  21037764.562    21037757.217   -20897491.01307 -16214877.00248        51.000
        46.000         445.664         347.271
  23248954.906    23248948.602   -10638941.45906  -8148209.94546        44.000
        29.000        2987.886        2328.223
  20911032.306    20911028.278   -19826432.18907 -15422029.12748        51.000
        45.000       -1645.991       -1282.590
  23690237.096    23690230.394    -6759613.71106  -5231737.99746        45.000
        29.000       -3026.675       -2358.448
  24939752.115    24939746.382    -2178501.96604  -1695345.96546        39.000
        21.000        2026.880        1579.387
  23754658.195    23754649.222    -7682058.60105  -5981673.90546        41.000
        28.000       -2473.843       -1927.670
  20140669.191    20140663.010   -24921510.98908 -19579712.17848        53.000
        50.000        -621.763        -484.490
 14  1 10  1 58  0.0000000  0  7G31G21G25G12G05G02G29
  21035273.598    21035266.538   -20910580.61007 -16225076.68948        51.000
        45.000         426.894         332.644
  23231917.655    23231911.177   -10728475.00306  -8217976.34246        45.000
        29.000        2980.966        2322.831
  20920461.390    20920457.731   -19776882.69107 -15383419.13848        52.000
        44.000       -1657.467       -1291.532
  23707527.911    23707522.620    -6668746.02006  -5160932.04746        44.000
        29.000       -3031.236       -2362.002
  24928211.859    24928206.133    -2239147.13904  -1742601.90246        39.000
        21.000        2015.878        1570.814
  23768813.573    23768805.467    -7607668.28505  -5923707.44646        41.000
        27.000       -2485.401       -1936.676
  20144257.826    20144251.830   -24902651.93608 -19565016.80648        53.000
        50.000        -635.572        -495.251
 14  1 10  1 58 30.0000000  0  7G31G21G25G12G05G02G29
  21032889.979    21032883.097   -20923105.14407 -16234836.07548        50.000
        45.000         408.144         318.034
  23214919.318    23214913.085   -10817800.22506  -8287580.39246        44.000
        30.000        2974.199        2317.557
  20929955.540    20929951.632   -19726990.25107 -15344541.92448        50.000
        44.000       -1668.711       -1300.295
  23724846.410    23724841.014    -6577738.45106  -5090017.08246        43.000
        27.000       -3035.816       -2365.571
  24916735.160    24916729.676    -2299454.27004  -1789594.45645        38.000
        19.000        2004.755        1562.147
  23783034.975    23783027.197    -7532933.76205  -5865472.74546        41.000
        28.000       -2496.704       -1945.484
  20147925.696    20147919.390   -24883378.95307 -19549998.90348        52.000
        50.000        -649.278        -505.931
 14  1 10  1 59  0.0000000  0  7G31G21G25G12G05G02G29
  21030614.471    21030607.614   -20935063.58007 -16244154.33148        50.000
        45.000         389.119         303.210
  23197962.237    23197955.731   -10906914.24406  -8357019.87646        45.000
        29.000        2966.814        2311.803
  20939514.845    20939511.025   -19676754.65207 -15305397.29948        50.000
        44.000       -1680.266       -1309.298
  23742191.581    23742186.125    -6486591.25806  -5018993.33146        44.000
        29.000       -3040.613       -2369.309
  24905325.860    24905318.746    -2359419.90105  -1836320.96845        40.000
        19.000        1993.015        1552.999
  23797322.598    23797313.455    -7457856.76605  -5806971.19646        41.000
        28.000       -2508.347       -1954.556
  20151671.673    20151665.466   -24863692.38107 -19534658.71948        52.000
        50.000        -663.156        -516.745
 14  1 10  1 59 30.0000000  0  7G31G21G25G12G05G02G29
  21028446.467    21028439.530   -20946455.84807 -16253031.43348        50.000
        45.000         370.324         288.564
  23181043.964    23181038.068   -10995815.77106  -8426293.77646        44.000
        30.000        2959.879        2306.399
  20949139.599    20949135.758   -19626177.06507 -15265986.20348        51.000
        44.000       -1691.546       -1318.088
  23759562.829    23759557.286    -6395305.47606  -4947861.57546        44.000
        28.000       -3045.116       -2372.817
  24893978.963    24893973.468    -2419042.19704  -1882779.90345        39.000
        20.000        1981.647        1544.141
  23811673.105    23811664.205    -7382440.13905  -5748204.98546        41.000
        25.000       -2519.525       -1963.266
  20155496.302    20155489.918   -24843594.69607 -19518998.18548        52.000
        50.000        -676.688        -527.289
 14  1 10  2  0  0.0000000  0  7G31G21G25G12G05G02G29
  21026386.849    21026379.935   -20957280.84807 -16261466.49448        51.000
        45.000         351.522         273.913
  23164168.076    23164160.928   -11084502.50506  -8495400.31346        45.000
        30.000        2952.679        2300.789
  20958829.190    20958825.538   -19575257.56907 -15226308.68448        50.000
        45.000       -1702.907       -1326.940
  23776959.699    23776953.987    -6303882.03606  -4876622.57546        44.000
        29.000       -3049.699       -2376.389
  24882699.203    24882694.063    -2478317.93004  -1928968.81345        39.000
        20.000        1970.155        1535.186
  23826088.876    23826079.882    -7306686.09105  -5689175.82046        41.000
        27.000       -2530.646       -1971.932
  20159398.770    20159392.948   -24823086.41807 -19503017.71148        52.000
        50.000        -690.426        -537.994
 14  1 10  2  0 30.0000000  0  7G31G21G25G12G05G02G29
  21024435.230    21024428.499   -20967537.08607 -16269458.36948        50.000
        45.000         332.576         259.150
  23147332.688    23147326.474   -11172971.12206  -8564336.90846        45.000
        30.000        2945.433        2295.142
  20968583.786    20968580.238   -19523995.63407 -15186364.33348        51.000
        44.000       -1714.226       -1335.760
  23794383.743    23794377.338    -6212320.95006  -4805276.32546        44.000
        28.000       -3054.216       -2379.909
  24871486.532    24871481.336    -2537243.40105  -1974884.70046        40.000
        23.000        1958.504        1526.107
  23840568.159    23840559.732    -7230595.49405  -5629884.45246        41.000
        27.000       -2541.721       -1980.562
  20163379.464    20163373.592   -24802167.77807 -19486717.46748        52.000
        50.000        -703.898        -548.492
 14  1 10  2  1  0.0000000  0  7G31G21G25G12G05G02G29
  21022591.369    21022584.813   -20977226.07007 -16277008.23548        52.000
        45.000         313.601         244.365
  23130539.362    23130533.026   -11261221.70406  -8633103.59346        45.000
        30.000        2938.020        2289.366
  20978403.573    20978399.973   -19472393.61607 -15146154.98248        52.000
        44.000       -1725.701       -1344.702
  23811832.858    23811826.672    -6120624.35806  -4733824.45446        44.000
        28.000       -3058.699       -2383.402
  24860340.265    24860335.000    -2595818.21605  -2020527.38846        41.000
        23.000        1946.599        1516.830
  23855111.104    23855102.524    -7154172.42405  -5570333.99746        40.000
        28.000       -2552.971       -1989.328
  20167437.467    20167431.590   -24780842.34008 -19470100.23748        55.000
        50.000        -717.536        -559.119
 14  1 10  2  1 30.0000000  0  7G31G21G25G12G05G02G29
  21020855.987    21020849.292   -20986345.68607 -16284114.43548        52.000
        45.000         294.541         229.512
  23113787.614    23113781.489   -11349250.88406  -8701697.72246        45.000
        31.000        2930.668        2283.638
  20988288.191    20988284.113   -19420450.70008 -15105679.98948        53.000
        44.000       -1737.022       -1353.524
  23829307.933    23829302.456    -6028791.73505  -4662266.57046        42.000
        27.000       -3063.291       -2386.980
  24849260.565    24849255.676    -2654038.68305  -2065893.96446        40.000
        24.000        1934.716        1507.571
  23869716.660    23869708.135    -7077418.35405  -5510525.63046        41.000
        27.000       -2564.024       -1997.941
  20171573.134    20171567.315   -24759110.07708 -19453166.00948        54.000
        50.000        -731.260        -569.813
 14  1 10  2  2  0.0000000  0  7G31G21G25G12G05G02G29
  21019229.095    21019222.204   -20994895.17508 -16290776.37848        53.000
        45.000         275.523         214.693
  23097078.684    23097072.182   -11437056.39206  -8770117.59446        45.000
        29.000        2923.092        2277.734
  20998236.940    20998233.408   -19368166.78708 -15064939.28548        53.000
        44.000       -1748.354       -1362.354
  23846808.648    23846803.824    -5936823.61106  -4590603.16046        43.000
        28.000       -3067.772       -2390.472
  24838249.322    24838245.260    -2711901.42204  -2110981.76046        39.000
        22.000        1922.935        1498.391
  23884385.486    23884376.606    -7000334.95505  -5450460.64746        41.000
        26.000       -2574.799       -2006.337
  20175785.967    20175779.857   -24736971.97808 -19435915.54448        54.000
        50.000        -744.726        -580.306
 14  1 10  2  2 30.0000000  0  7G31G21G25G12G05G02G29
  21017710.819    21017703.772   -21002874.08608 -16296993.71448        53.000
        45.000         256.304         199.718
  23080412.912    23080406.558   -11524636.27406  -8838361.66646        45.000
        31.000        2915.459        2271.786
  21008251.309    21008247.394   -19315542.72107 -15023933.53148        52.000
        44.000       -1759.858       -1371.318
  23864335.441    23864329.970    -5844720.90905  -4518834.91146        42.000
        27.000       -3072.402       -2394.079
  24827307.804    24827302.212    -2769404.11004  -2155788.99146        39.000
        21.000        1910.499        1488.700
  23899115.972    23899107.284    -6922924.56805  -5390140.85246        42.000
        26.000       -2585.751       -2014.871
  20180075.317    20180069.420   -24714429.38508 -19418349.88748        53.000
        50.000        -758.242        -590.838
 14  1 10  2  3  0.0000000  0  7G31G21G25G12G05G02G29
  21016300.844    21016293.947   -21010281.99908 -16302766.11148        53.000
        45.000         237.430         185.011
  23063790.701    23063784.162   -11611988.16006  -8906428.05646        46.000
        31.000        2907.958        2265.941
  21018329.512    21018326.268   -19262578.70908 -14982662.87948        53.000
        44.000       -1771.110       -1380.086
  23881888.229    23881881.471    -5752484.52806  -4446962.43346        43.000
        28.000       -3076.779       -2397.490
  24816433.373    24816428.821    -2826543.90304  -2200313.47046        39.000
        21.000        1898.685        1479.495
  23913908.110    23913899.517    -6845189.48806  -5329568.05046        43.000
        24.000       -2596.574       -2023.304
  20184442.158    20184436.408   -24691483.27308 -19400469.80348        55.000
        50.000        -771.593        -601.242
 14  1 10  2  3 30.0000000  0  7G31G21G25G12G05G02G29
  21014999.850    21014993.053   -21017118.33308 -16308093.12348        53.000
        45.000         218.353         170.145
  23047211.609    23047205.297   -11699110.14906  -8974315.31646        44.000
        31.000        2900.169        2259.872
  21028473.443    21028469.515   -19209275.28308 -14941127.75148        53.000
        44.000       -1782.555       -1389.004
  23899465.017    23899458.496    -5660114.99505  -4374986.20546        42.000
        27.000       -3081.271       -2400.990
  24805629.970    24805624.529    -2883318.50904  -2244553.38045        38.000
        20.000        1886.380        1469.907
  23928763.072    23928753.958    -6767131.87705  -5268743.94346        42.000
        25.000       -2607.399       -2031.740
  20188884.927    20188879.086   -24668135.59008 -19382276.79948        54.000
        50.000        -785.031        -611.712
 14  1 10  2  4  0.0000000  0  7G31G21G25G12G05G02G29
  21013807.695    21013801.092   -21023382.46508 -16312974.27448        53.000
        45.000         199.299         155.298
  23030676.552    23030670.346   -11786000.71206  -9042022.23946        45.000
        30.000        2892.541        2253.928
  21038681.115    21038677.795   -19155632.90507 -14899328.50747        52.000
        43.000       -1793.670       -1397.665
  23917068.252    23917061.891    -5567613.11505  -4302906.86246        42.000
        27.000       -3085.433       -2404.233
  24794895.209    24794890.521    -2939725.09904  -2288506.55045        39.000
        19.000        1874.118        1460.352
  23943677.021    23943668.627    -6688754.14605  -5207670.39346        42.000
        25.000       -2617.889       -2039.913
  20193404.542    20193398.200   -24644386.80208 -19363771.24248        54.000
        50.000        -798.172        -621.952
 14  1 10  2  4 30.0000000  0  7G31G21G25G12G05G02G29
  21012724.891    21012717.988   -21029073.87208 -16317409.13848        53.000
        45.000         180.093         140.332
  23014186.685    23014180.169   -11872657.07606  -9109546.67346        44.000
        31.000        2884.551        2247.702
  21048953.044    21048949.784   -19101651.77607 -14857265.29847        52.000
        43.000       -1804.990       -1406.486
  23934695.784    23934689.261    -5474979.32506  -4230724.77246        43.000
        28.000       -3090.034       -2407.818
  24784233.497    24784226.972    -2995761.18105  -2332170.98846        41.000
        22.000        1861.700        1450.675
  23958652.810    23958643.846    -6610058.23505  -5146348.92046        42.000
        25.000       -2628.574       -2048.239
  20197999.521    20197993.454   -24620238.23608 -19344954.18548        54.000
        50.000        -811.621        -632.432
 14  1 10  2  5  0.0000000  0  7G31G21G25G12G05G02G29
  21011751.210    21011743.969   -21034192.54407 -16321397.72048        52.000
        46.000         160.983         125.441
  22997741.783    22997735.218   -11959077.85306  -9176887.52546        45.000
        31.000        2876.687        2241.574
  21059289.760    21059286.562   -19047332.97507 -14814938.96747        52.000
        43.000       -1816.287       -1415.289
  23952348.023    23952342.354    -5382215.16006  -4158441.08946        43.000
        29.000       -3094.476       -2411.280
  24773639.780    24773634.514    -3051424.57905  -2375545.00846        40.000
        22.000        1849.167        1440.909
  23973688.421    23973678.606    -6531047.16605  -5084781.81046        42.000
        24.000       -2639.046       -2056.400
  20202670.438    20202664.243   -24595692.01308 -19325827.25148        54.000
        50.000        -824.940        -642.810
 14  1 10  2  5 30.0000000  0  7G31G21G25G12G05G02G29
  21010886.551    21010879.246   -21038737.30907 -16324939.10048        52.000
        45.000         141.898         110.570
  22981341.450    22981334.698   -12045260.45606  -9244042.80146        45.000
        31.000        2868.616        2235.285
  21069690.670    21069686.909   -18992675.93207 -14772349.08747        52.000
        43.000       -1827.516       -1424.039
  23970025.117    23970019.175    -5289320.82006  -4086055.93246        43.000
        27.000       -3098.718       -2414.585
  24763119.321    24763113.914    -3106711.71505  -2418625.83946        40.000
        23.000        1836.678        1431.177
  23988782.484    23988774.044    -6451722.03605  -5022970.00346        41.000
        23.000       -2649.474       -2064.525
  20207417.006    20207411.054   -24570748.52508 -19306390.76948        55.000
        49.000        -838.166        -653.116
 14  1 10  2  6  0.0000000  0  7G31G21G25G12G05G02G29
  21010130.460    21010123.703   -21042708.10007 -16328033.22748        52.000
        45.000         122.897          95.764
  22964987.445    22964980.633   -12131202.37706  -9311010.52746        45.000
        31.000        2860.875        2229.254
  21080155.632    21080152.186   -18937681.47707 -14729496.27147        50.000
        43.000       -1838.695       -1432.749
  23987726.320    23987720.892    -5196296.62405  -4013569.60046        42.000
        26.000       -3102.904       -2417.847
  24752670.437    24752666.086    -3161620.31504  -2461411.76746        39.000
        24.000        1824.020        1421.314
  24003936.648    24003928.154    -6372085.38505  -4960915.48146        42.000
        26.000       -2659.569       -2072.392
  20212238.965    20212232.960   -24545409.51908 -19286646.08548        54.000
        50.000        -851.205        -663.276
 14  1 10  2  6 30.0000000  0  7G31G21G25G12G05G02G29
  21009484.147    21009477.341   -21046104.40307 -16330679.69748        50.000
        45.000         103.688          80.796
  22948679.759    22948673.007   -12216901.74506  -9377789.25747        45.000
        33.000        2852.609        2222.812
  21090684.993    21090681.634   -18882349.91007 -14686380.77947        50.000
        43.000       -1849.906       -1441.485
  24005453.226    24005447.230    -5103144.14106  -3940983.36246        43.000
        25.000       -3107.000       -2421.039
  24742295.616    24742291.021    -3216147.92304  -2503900.75546        39.000
        24.000        1811.452        1411.521
  24019151.408    24019142.300    -6292139.18005  -4898619.76946        41.000
        24.000       -2669.866       -2080.416
  20217136.146    20217130.102   -24519675.67008 -19266593.73248        53.000
        49.000        -864.193        -673.397
 14  1 10  2  7  0.0000000  0  7G31G21G25G12G05G02G29
  21008947.513    21008940.828   -21048925.74507 -16332878.14448        50.000
        45.000          84.307          65.694
  22932417.847    22932411.588   -12302356.77406  -9444377.57847        46.000
        33.000        2844.273        2216.317
  21101278.288    21101274.866   -18826681.93007 -14643003.14748        50.000
        44.000       -1861.254       -1450.328
  24023204.173    24023198.131    -5009863.47106  -3868297.21246        43.000
        28.000       -3111.655       -2424.666
  24731990.768    24731986.607    -3270292.19605  -2546091.04446        40.000
        25.000        1798.306        1401.278
  24034422.326    24034413.196    -6211886.09805  -4836084.87046        41.000
        24.000       -2680.297       -2088.543
  20222107.792    20222101.911   -24493548.94807 -19246235.24848        52.000
        49.000        -877.499        -683.766
 14  1 10  2  7 30.0000000  0  7G31G21G25G12G05G02G29
  21008519.768    21008513.258   -21051172.24507 -16334628.66648        50.000
        45.000          65.365          50.934
  22916203.259    22916196.472   -12387565.90106  -9510774.30047        46.000
        32.000        2836.229        2210.049
  21111935.941    21111932.448   -18770678.10907 -14599363.82147        50.000
        43.000       -1872.320       -1458.951
  24040979.288    24040973.433    -4916455.53906  -3795511.89246        43.000
        27.000       -3115.616       -2427.753
  24721760.664    24721756.553    -3324050.57805  -2587980.61546        40.000
        22.000        1785.614        1391.388
  24049751.700    24049743.307    -6131328.47105  -4773312.70646        42.000
        25.000       -2690.211       -2096.269
  20227154.097    20227147.819   -24467030.54808 -19225571.55448        53.000
        49.000        -890.382        -693.804
 14  1 10  2  8  0.0000000  0  7G31G21G25G12G05G02G29
  21008202.044    21008195.506   -21052842.31407 -16335930.01548        50.000
        45.000          46.052          35.885
  22900035.885    22900029.257   -12472525.59206  -9576976.66047        46.000
        32.000        2827.810        2203.488
  21122656.715    21122653.035   -18714337.57507 -14555462.12347        50.000
        43.000       -1883.650       -1467.779
  24058778.550    24058773.464    -4822920.05205  -3722627.17246        42.000
        26.000       -3119.905       -2431.095
  24711604.849    24711600.576    -3377419.39104  -2629566.66646        39.000
        23.000        1772.492        1381.163
  24065139.669    24065131.002    -6050467.32405  -4710304.00346        42.000
        26.000       -2700.340       -2104.161
  20232274.851    20232268.673   -24440120.22807 -19204602.47548        52.000
        49.000        -903.469        -704.002
 14  1 10  2  8 30.0000000  0  7G31G21G25G12G05G02G29
  21007993.635    21007987.147   -21053936.64607 -16336782.74948        52.000
        45.000          26.924          20.980
  22883915.912    22883909.662   -12557234.96106  -9642983.95047        46.000
        32.000        2819.483        2197.000
  21133441.753    21133438.342   -18657662.19607 -14511299.50347        51.000
        43.000       -1894.658       -1476.357
  24076601.563    24076595.579    -4729258.97605  -3649644.59646        42.000
        26.000       -3124.081       -2434.349
  24701523.955    24701519.148    -3430397.09705  -2670848.04046        41.000
        23.000        1759.351        1370.923
  24080583.812    24080575.208    -5969306.31905  -4647061.68646        42.000
        24.000       -2710.283       -2111.909
  20237469.839    20237463.709   -24412820.83608 -19183330.21648        53.000
        49.000        -916.430        -714.102
 14  1 10  2  9  0.0000000  0  7G31G21G25G12G05G02G29
  21007895.162    21007888.564   -21054455.30407 -16337186.90248        50.000
        45.000           7.678           5.983
  22867844.112    22867838.083   -12641692.15806  -9708794.75747        46.000
        32.000        2810.959        2190.358
  21144290.741    21144287.069   -18600652.56607 -14466876.43447        49.000
        43.000       -1905.872       -1485.095
  24094448.983    24094442.937    -4635473.15506  -3576564.78846        43.000
        29.000       -3128.236       -2437.586
  24691518.311    24691511.469    -3482981.73905  -2711823.11046        41.000
        26.000        1746.227        1360.697
  24096084.528    24096076.132    -5887847.70405  -4583587.45146        41.000
        25.000       -2720.306       -2119.719
  20242738.216    20242732.235   -24385133.99107 -19161756.05248        52.000
        49.000        -929.388        -724.198
 14  1 10  2  9 30.0000000  0  7G31G21G25G12G05G02G29
  21007906.196    21007899.971   -21054396.90507 -16337141.40048        51.000
        45.000         -11.638          -9.069
  22851821.076    22851814.526   -12725894.63806  -9774407.08247        46.000
        33.000        2802.449        2183.727
  21155202.557    21155198.875   -18543307.98807 -14422192.36847        51.000
        43.000       -1917.077       -1493.827
  24112318.385    24112314.174    -4541562.18805  -3503387.50346        41.000
        27.000       -3132.453       -2440.873
  24681586.652    24681580.966    -3535169.61705  -2752488.96846        41.000
        22.000        1732.815        1350.246
  24111642.300    24111633.659    -5806092.60205  -4519882.18946        42.000
        23.000       -2730.076       -2127.332
  20248080.366    20248074.553   -24357059.75907 -19139880.02848        52.000
        49.000        -942.292        -734.254
 14  1 10  2 10  0.0000000  0  7G31G21G25G12G05G02G29
  21008027.163    21008020.112   -21053761.64007 -16336646.39048        50.000
        45.000         -30.771         -23.977
  22835846.682    22835839.981   -12809840.39206  -9839819.36447        46.000
        32.000        2793.922        2177.082
  21166178.224    21166174.887   -18485629.70907 -14377248.27447        49.000
        43.000       -1928.012       -1502.347
  24130213.622    24130207.747    -4447527.87405  -3430114.11946        41.000
        26.000       -3136.435       -2443.975
  24671730.489    24671725.998    -3586958.58604  -2792844.01746        38.000
        22.000        1719.791        1340.097
  24127255.759    24127246.541    -5724044.08405  -4455948.27346        42.000
        25.000       -2739.794       -2134.905
  20253496.223    20253490.497   -24328600.51807 -19117703.99848        51.000
        49.000        -954.965        -744.129
 14  1 10  2 10 30.0000000  0  7G31G21G25G12G05G02G29
  21008257.881    21008250.954   -21052549.23107 -16335701.65748        51.000
        45.000         -50.091         -39.032
  22819921.352    22819915.230   -12893527.44206  -9905030.04147        46.000
        33.000        2785.192        2170.279
  21177218.040    21177214.468   -18427618.07207 -14332044.43047        50.000
        43.000       -1939.330       -1511.166
  24148131.126    24148125.516    -4353370.64605  -3356744.92446        41.000
        27.000       -3140.609       -2447.228
  24661951.618    24661947.103    -3638346.59904  -2832886.60446        39.000
        22.000        1706.012        1329.360
  24142924.815    24142915.409    -5641704.26305  -4391787.34646        42.000
        23.000       -2749.638       -2142.575
  20258985.066    20258979.065   -24299757.06307 -19095228.57848        52.000
        49.000        -967.899        -754.207
 14  1 10  2 11  0.0000000  0  7G31G21G25G12G05G02G29
  21008598.429    21008591.201   -21050759.50007 -16334307.07648        50.000
        45.000         -69.089         -53.835
  22804045.633    22804039.747   -12976953.48306  -9970037.34747        46.000
        33.000        2776.717        2163.676
  21188320.171    21188316.825   -18369273.09807 -14286580.84847        50.000
        43.000       -1950.109       -1519.566
  24166072.296    24166065.891    -4259090.80705  -3283280.15546        41.000
        26.000       -3144.479       -2450.244
  24652250.662    24652245.730    -3689330.35805  -2872614.17746        41.000
        25.000        1692.889        1319.134
  24158647.701    24158638.900    -5559074.83605  -4327400.76046        41.000
        23.000       -2758.864       -2149.764
  20264546.954    20264540.762   -24270529.84507 -19072454.11948        52.000
        49.000        -980.451        -763.988
 14  1 10  2 11 30.0000000  0  7G31G21G25G12G05G02G29
  21009048.980    21009042.000   -21048391.94007 -16332462.23048        50.000
        45.000         -88.506         -68.966
  22788220.710    22788214.411   -13060116.47806 -10034839.68147        46.000
        33.000        2767.842        2156.760
  21199486.332    21199483.232   -18310595.26907 -14240857.88847        50.000
        43.000       -1961.352       -1528.326
  24184035.710    24184030.305    -4164689.39904  -3209720.69646        39.000
        26.000       -3148.648       -2453.492
  24642626.611    24642621.598    -3739907.42505  -2912024.79346        41.000
        25.000        1679.272        1308.524
  24174426.224    24174417.800    -5476158.28505  -4262790.49146        41.000
        23.000       -2768.662       -2157.399
  20270181.267    20270174.958   -24240920.83507 -19049382.16248        52.000
        49.000        -993.193        -773.917
 14  1 10  2 12  0.0000000  0  7G31G21G25G12G05G02G29
  21009609.550    21009602.746   -21045446.31807 -16330166.94248        50.000
        45.000        -107.812         -84.009
  22772446.357    22772439.505   -13143014.47306 -10099435.52147        47.000
        34.000        2758.814        2149.725
  21210715.938    21210712.124   -18251585.24807 -14194876.07047        50.000
        43.000       -1972.534       -1537.039
  24202023.860    24202017.739    -4070166.74905  -3136066.81746        40.000
        27.000       -3152.768       -2456.703
  24633079.500    24633074.802    -3790075.57405  -2951116.82346        40.000
        24.000        1665.293        1297.631
  24190259.381    24190250.547    -5392956.94405  -4197958.29346        41.000
        23.000       -2777.978       -2164.658
  20275888.016    20275881.592   -24210931.36407 -19026013.74048        51.000
        49.000       -1005.952        -783.859
 14  1 10  2 12 30.0000000  0  7G31G21G25G12G05G02G29
  21010279.851    21010273.001   -21041923.38907 -16327421.81048        51.000
        45.000        -126.931         -98.907
  22756721.559    22756714.939   -13225646.39506 -10163824.02847        47.000
        34.000        2749.998        2142.856
  21222008.494    21222004.785   -18192244.15007 -14148636.26847        50.000
        42.000       -1983.532       -1545.609
  24220033.521    24220027.654    -3975524.41005  -3062319.61846        41.000
        27.000       -3156.711       -2459.775
  24623610.498    24623606.655    -3839833.29505  -2989889.04546        41.000
        25.000        1651.800        1287.117
  24206145.356    24206136.884    -5309473.30605  -4132906.08546        41.000
        23.000       -2787.390       -2171.992
  20281666.623    20281660.714   -24180563.63807 -19002350.57848        52.000
        49.000       -1018.474        -793.616
 14  1 10  2 13  0.0000000  0  7G31G21G25G12G05G02G29
  21011060.081    21011052.974   -21037823.07107 -16324226.75348        51.000
        45.000        -146.112        -113.854
  22741048.333    22741041.936   -13308010.18606 -10228003.59147        46.000
        33.000        2741.188        2135.990
  21233363.048    21233359.667   -18132572.75907 -14102139.10447        51.000
        42.000       -1994.432       -1554.103
  24238065.459    24238059.048    -3880763.43905  -2988479.96746        42.000
        25.000       -3160.668       -2462.858
  24614221.281    24614215.016    -3889178.23206  -3028339.59946        43.000
        24.000        1638.087        1276.432
  24222085.377    24222076.218    -5225710.26205  -4067636.18546        42.000
        22.000       -2796.635       -2179.196
  20287517.047    20287511.265   -24149819.20507 -18978393.87448        52.000
        49.000       -1030.951        -803.338
 14  1 10  2 13 30.0000000  0  7G31G21G25G12G05G02G29
  21011950.434    21011943.705   -21033143.73807 -16320580.52048        51.000
        45.000        -165.600        -129.039
  22725426.798    22725419.719   -13390102.32506 -10291971.48247        45.000
        34.000        2731.905        2128.757
  21244781.308    21244777.688   -18072569.92407 -14055383.67547        49.000
        43.000       -2005.605       -1562.809
  24256120.594    24256114.462    -3785883.07405  -2914547.28146        41.000
        24.000       -3164.633       -2465.948
  24604910.982    24604904.596    -3938106.11906  -3066465.19346        43.000
        23.000        1624.073        1265.511
  24238078.292    24238069.225    -5141668.50405  -4002149.09846        41.000
        23.000       -2805.932       -2186.441
  20293439.729    20293433.757   -24118696.68107 -18954142.55348        51.000
        49.000       -1043.642        -813.228
 14  1 10  2 14  0.0000000  0  7G31G21G25G12G05G02G29
  21012951.223    21012944.604   -21027886.00807 -16316483.58848        52.000
        45.000        -184.815        -144.011
  22709856.578    22709849.781   -13471921.83806 -10355726.96847        46.000
        33.000        2722.866        2121.714
  21256262.463    21256258.832   -18012236.98907 -14008371.03347        50.000
        42.000       -2016.441       -1571.252
  24274197.726    24274192.837    -3690884.81005  -2840522.74246        40.000
        25.000       -3168.614       -2469.050
  24595678.321    24595672.527    -3986615.42205  -3104264.66646        40.000
        21.000        1610.166        1254.675
  24254122.554    24254114.338    -5057350.90505  -3936447.06346        41.000
        23.000       -2815.073       -2193.563
  20299433.497    20299427.580   -24087199.35907 -18929599.18748        51.000
        48.000       -1056.074        -822.915
 14  1 10  2 14 30.0000000  0  7G31G21G25G12G05G02G29
  21014061.477    21014054.897   -21022050.18507 -16311936.20048        51.000
        45.000        -204.026        -158.982
  22694338.826    22694333.260   -13553466.81006 -10419268.49547        45.000
        34.000        2713.645        2114.528
  21267806.248    21267802.749   -17951574.71707 -13961101.74647        50.000
        43.000       -2027.439       -1579.823
  24292298.498    24292292.324    -3595769.81505  -2766407.24246        41.000
        28.000       -3172.327       -2471.943
  24586527.670    24586522.277    -4034704.12905  -3141736.37846        41.000
        21.000        1595.993        1243.631
  24270220.478    24270211.226    -4972759.94805  -3870532.06446        41.000
        23.000       -2824.158       -2200.643
  20305498.410    20305492.173   -24055328.59407 -18904764.83248        51.000
        49.000       -1068.421        -832.536
 14  1 10  2 15  0.0000000  0  7G31G21G25G12G05G02G29
  21015282.377    21015275.343   -21015636.04207 -16306938.17448        52.000
        45.000        -223.328        -174.022
  22678874.272    22678868.094   -13634735.19706 -10482594.49747        45.000
        34.000        2704.431        2107.349
  21279412.154    21279408.798   -17890583.37107 -13913576.02947        50.000
        43.000       -2038.416       -1588.376
  24310419.955    24310414.462    -3500538.48005  -2692201.09046        40.000
        27.000       -3176.165       -2474.934
  24577457.200    24577451.510    -4082369.72305  -3178878.38746        41.000
        21.000        1581.950        1232.688
  24286368.648    24286360.264    -4887897.66005  -3804405.59246        41.000
        23.000       -2833.201       -2207.689
  20311633.920    20311627.888   -24023085.37208 -18879640.24348        53.000
        48.000       -1080.833        -842.208
 14  1 10  2 15 30.0000000  0  7G31G21G25G12G05G02G29
  21016612.705    21016606.384   -21008643.40907 -16301489.36948        51.000
        45.000        -242.600        -189.039
  22663462.697    22663456.254   -13715724.81806 -10545703.30047        45.000
        34.000        2695.218        2100.170
  21291081.367    21291078.120   -17829263.32107 -13865794.18747        51.000
        43.000       -2049.382       -1596.921
  24328563.706    24328558.093    -3405191.54804  -2617904.85646        39.000
        26.000       -3179.987       -2477.912
  24568467.833    24568462.953    -4129609.49305  -3215688.59746        41.000
        23.000        1567.737        1221.614
  24302569.253    24302559.961    -4802766.32805  -3738069.50246        42.000
        22.000       -2842.043       -2214.579
  20317840.319    20317834.547   -23990470.73507 -18854226.23548        52.000
        49.000       -1093.141        -851.798
 14  1 10  2 16  0.0000000  0  7G31G21G25G12G05G02G29
  21018053.704    21018047.031   -21001072.12507 -16295589.68148        52.000
        45.000        -261.959        -204.124
  22648104.116    22648097.737   -13796433.51906 -10608593.20147        45.000
        34.000        2685.707        2092.759
  21302812.183    21302808.928   -17767615.13607 -13817756.66547        50.000
        43.000       -2060.348       -1605.466
  24346729.947    24346723.946    -3309729.26604  -2543518.74046        39.000
        24.000       -3183.922       -2480.978
  24559559.139    24559555.308    -4176421.06805  -3252165.15646        41.000
        23.000        1553.314        1210.375
  24318819.265    24318810.616    -4717368.13505  -3671525.44446        40.000
        22.000       -2851.027       -2221.579
  20324116.921    20324110.917   -23957486.11207 -18828523.93848        52.000
        48.000       -1105.587        -861.496
 14  1 10  2 16 30.0000000  0  7G31G21G25G12G05G02G29
  21019604.275    21019598.089   -20992922.65507 -16289239.44948        52.000
        45.000        -281.271        -219.172
  22632799.394    22632793.212   -13876860.03806 -10671263.20647        45.000
        34.000        2676.156        2085.316
  21314605.737    21314602.731   -17705639.63707 -13769464.08847        49.000
        42.000       -2071.251       -1613.962
  24364917.648    24364912.248    -3214153.04205  -2469043.79546        40.000
        26.000       -3187.858       -2484.045
  24550733.305    24550728.446    -4222802.77805  -3288306.74146        41.000
        23.000        1538.876        1199.124
  24335120.476    24335111.540    -4631705.96005  -3604775.69846        41.000
        23.000       -2859.835       -2228.443
  20330463.787    20330457.940   -23924133.37707 -18802534.78548        52.000
        48.000       -1117.868        -871.066
 14  1 10  2 17  0.0000000  0  7G31G21G25G12G05G02G29
  21021265.532    21021258.473   -20984195.46107 -16282439.05248        52.000
        45.000        -300.640        -234.265
  22617549.188    22617542.771   -13957002.72406 -10733712.06247        46.000
        35.000        2666.641        2077.902
  21326462.051    21326458.432   -17643337.86707 -13720917.27547        49.000
        42.000       -2082.198       -1622.492
  24383126.868    24383121.572    -3118464.35605  -2394481.24446        40.000
        27.000       -3191.563       -2486.932
  24541991.035    24541985.633    -4268752.37706  -3324111.60946        43.000
        26.000        1524.385        1187.832
  24351471.187    24351462.540    -4545782.02105  -3537821.99446        41.000
        23.000       -2868.452       -2235.158
  20336880.488    20336873.884   -23890414.52707 -18776260.35748        52.000
        48.000       -1130.068        -880.573
 14  1 10  2 17 30.0000000  0  7G31G21G25G12G05G02G29
  21023035.881    21023028.965   -20974890.44508 -16275188.38548        53.000
        44.000        -319.614        -249.050
  22602352.433    22602346.099   -14036859.23406 -10795937.90447        46.000
        35.000        2657.168        2070.521
  21338379.503    21338375.828   -17580710.16707 -13672116.48347        50.000
        42.000       -2092.774       -1630.733
  24401357.476    24401351.451    -3022663.45105  -2319831.29646        40.000
        25.000       -3195.176       -2489.747
  24533328.629    24533323.909    -4314267.65506  -3359577.98646        43.000
        26.000        1510.078        1176.684
  24367871.747    24367862.901    -4459598.38805  -3470665.95046        41.000
        22.000       -2877.026       -2241.839
  20343366.353    20343360.375   -23856330.21608 -18749701.15248        53.000
        48.000       -1142.046        -889.906
 14  1 10  2 18  0.0000000  0  7G31G21G25G12G05G02G29
  21024916.696    21024910.080   -20965005.88908 -16267486.14948        53.000
        45.000        -339.271        -264.367
  22587211.557    22587205.046   -14116426.38906 -10857938.29047        46.000
        34.000        2647.194        2062.749
  21350359.352    21350355.609   -17517755.47107 -13623060.90747        50.000
        42.000       -2104.056       -1639.524
  24419608.528    24419602.310    -2926749.72705  -2245093.39046        40.000
        25.000       -3199.120       -2492.821
  24524750.868    24524746.477    -4359344.59005  -3394702.81446        42.000
        26.000        1495.143        1165.047
  24384320.955    24384312.614    -4373155.95405  -3403308.22946        40.000
        22.000       -2885.658       -2248.565
  20349921.763    20349915.799   -23821879.97608 -18722856.80948        53.000
        48.000       -1154.535        -899.637
 14  1 10  2 18 30.0000000  0  7G31G21G25G12G05G02G29
  21026907.489    21026901.089   -20954544.26107 -16259334.23048        52.000
        45.000        -358.448        -279.310
  22572125.183    22572119.199   -14195704.30406 -10919713.28347        46.000
        35.000        2637.621        2055.289
  21362400.747    21362397.319   -17454476.36707 -13573752.54347        50.000
        41.000       -2114.874       -1647.954
  24437883.045    24437875.996    -2830725.77205  -2170269.58646        42.000
        25.000       -3202.799       -2495.687
  24516257.396    24516251.809    -4403982.78405  -3429485.77246        42.000
        26.000        1480.365        1153.531
  24400819.877    24400809.852    -4286458.94805  -3335752.11246        41.000
        23.000       -2894.288       -2255.289
  20356546.345    20356540.418   -23787067.62007 -18695730.28748        52.000
        48.000       -1166.563        -909.010
 14  1 10  2 19  0.0000000  0  7G31G21G25G12G05G02G29
  21029008.374    21029001.909   -20943504.98207 -16250732.20848        52.000
        45.000        -377.477        -294.138
  22557094.859    22557088.808   -14274690.44806 -10981260.92747        47.000
        35.000        2628.061        2047.839
  21374504.099    21374500.850   -17390873.02707 -13524191.52647        50.000
        42.000       -2125.382       -1656.142
  24456175.210    24456170.798    -2734592.11605  -2095360.29746        41.000
        26.000       -3206.144       -2498.294
  24507846.318    24507840.929    -4448179.77305  -3463924.92346        42.000
        22.000        1465.990        1142.330
  24417365.019    24417355.964    -4199509.31204  -3267999.13746        39.000
        23.000       -2902.404       -2261.613
  20363239.793    20363233.657   -23751894.36807 -18668322.56048        52.000
        48.000       -1178.365        -918.207
 14  1 10  2 19 30.0000000  0  7G31G21G25G12G05G02G29
  21031218.978    21031212.150   -20931887.64908 -16241679.73748        53.000
        45.000        -396.828        -309.217
  22542120.833    22542113.917   -14353382.17506 -11042579.15547        47.000
        35.000        2618.133        2040.103
  21386669.369    21386665.693   -17326945.38007 -13474377.80347        49.000
        42.000       -2136.330       -1664.673
  24474489.331    24474485.323    -2638348.83204  -2020365.62846        39.000
        25.000       -3209.885       -2501.209
  24499521.009    24499514.069    -4491932.87505  -3498018.19746        42.000
        23.000        1451.072        1130.705
  24433958.701    24433950.322    -4112308.34504  -3200050.33946        39.000
        23.000       -2910.808       -2268.162
  20370001.581    20369995.604   -23716360.44208 -18640633.78848        53.000
        48.000       -1190.422        -927.602
 14  1 10  2 20  0.0000000  0  8G31G21G25G23G12G05G02G29
  21033539.736    21033533.179   -20919692.02707 -16232176.66348        52.000
        45.000        -416.143        -324.267
  22527202.426    22527195.622   -14431777.64206 -11103666.53347        47.000
        35.000        2608.300        2032.442
  21398896.012    21398892.302   -17262693.47107 -13424311.40347        49.000
        42.000       -2147.105       -1673.069
  25264459.266                     -148822.26404                          .00051
        39.000         682.446         531.776
  24492826.359    24492819.968    -2541995.80805  -1945285.47746        40.000
        25.000       -3213.604       -2504.107
  24491279.613    24491272.865    -4535238.96305  -3531763.10646        42.000
        22.000        1436.030        1118.984
  24450599.354    24450591.631    -4024858.14104  -3131907.39246        38.000
        22.000       -2918.941       -2274.500
  20376832.006    20376826.103   -23680466.92608 -18612664.81948        53.000
        48.000       -1202.364        -936.907
 14  1 10  2 20 30.0000000  0  8G31G21G25G23G12G05G02G29
  21035969.351    21035962.753   -20906924.23108 -16222227.73648        53.000
        45.000        -435.286        -339.184
  22512340.052    22512332.793   -14509880.54806 -11164525.94247        46.000
        35.000        2598.420        2024.743
  21411182.973    21411179.635   -17198123.73307 -13373997.34147        49.000
        42.000       -2157.820       -1681.418
  25260614.148    25260604.780     -169031.59305   -159324.51145        40.000
        20.000         664.787         518.016
  24511181.356    24511174.283    -2445540.57205  -1870125.59446        42.000
        26.000       -3217.014       -2506.764
  24483122.280    24483116.358    -4578101.97905  -3565162.84146        40.000
        21.000        1421.208        1107.435
  24467287.569    24467277.805    -3937166.68205  -3063576.39746        40.000
        21.000       -2927.161       -2280.904
  20383729.491    20383723.160   -23644220.75607 -18584421.04448        52.000
        48.000       -1214.202        -946.131
 14  1 10  2 21  0.0000000  0  8G31G21G25G23G12G05G02G29
  21038509.916    21038503.112   -20893573.90907 -16211824.89948        52.000
        45.000        -454.523        -354.174
  22497535.291    22497529.104   -14587678.87106 -11225148.00447        46.000
        35.000        2588.382        2016.921
  21423532.707    21423529.365   -17133226.41207 -13323428.02747        49.000
        42.000       -2168.522       -1689.758
  25256869.278    25256860.337     -188710.10004   -174658.36945        39.000
        20.000         647.215         504.323
  24529556.123    24529550.404    -2348972.93705  -1794878.10846        41.000
        24.000       -3220.734       -2509.663
  24475052.382    24475046.554    -4620509.14105  -3598207.34346        40.000
        22.000        1406.019        1095.599
  24484022.369    24484011.006    -3849225.94005  -2995051.05646        41.000
        21.000       -2935.197       -2287.167
  20390695.454    20390689.814   -23607613.12408 -18555895.61448        53.000
        48.000       -1226.052        -955.365
 14  1 10  2 21 30.0000000  0  8G31G21G25G23G12G05G02G29
  21041160.144    21041153.409   -20879646.88007 -16200972.66748        52.000
        45.000        -473.724        -369.136
  22482788.354    22482782.012   -14665175.28406 -11285534.80947        46.000
        36.000        2578.297        2009.063
  21435943.703    21435940.009   -17068007.38807 -13272608.04547        50.000
        42.000       -2179.188       -1698.069
  25253225.536    25253215.902     -207863.04504   -189582.76946        39.000
        21.000         629.806         490.758
  24547952.294    24547947.723    -2252298.89305  -1719547.75946        40.000
        27.000       -3224.227       -2512.385
  24467069.792    24467063.692    -4662463.41305  -3630898.98946        41.000
        22.000        1390.924        1083.837
  24500801.656    24500793.361    -3761043.73004  -2926337.64946        39.000
        22.000       -2943.348       -2293.518
  20397729.176    20397723.415   -23570650.55007 -18527093.61048        52.000
        48.000       -1237.894        -964.593
 14  1 10  2 22  0.0000000  0  8G31G21G25G23G12G05G02G29
  21043920.083    21043912.993   -20865143.61207 -16189671.42348        52.000
        45.000        -492.988        -384.147
  22468098.664    22468092.529   -14742368.74406 -11345685.54347        47.000
        36.000        2568.149        2001.155
  21448415.019    21448411.992   -17002467.57407 -13221538.09447        49.000
        42.000       -2189.927       -1706.436
  25249679.950    25249670.643     -226490.27704   -204097.50045        39.000
        18.000         612.031         476.908
  24566369.608    24566363.989    -2155519.79405  -1644135.55146        40.000
        26.000       -3227.749       -2515.129
  24459172.068    24459166.995    -4703963.34005  -3663236.54546        41.000
        26.000        1375.732        1071.999
  24517627.086    24517620.154    -3672622.14504  -2857437.77246        39.000
        24.000       -2951.396       -2299.790
  20404830.330    20404823.976   -23533335.21908 -18498016.72348        53.000
        47.000       -1249.727        -973.813
 14  1 10  2 22 30.0000000  0  8G31G21G25G23G12G05G02G29
  21046789.548    21046782.413   -20850064.48807 -16177921.46648        52.000
        45.000        -512.217        -399.130
  22453467.205    22453460.746   -14819257.43906 -11405598.81847        47.000
        36.000        2557.920        1993.184
  21460948.310    21460944.393   -16936607.81607 -13170218.83747        50.000
        41.000       -2200.630       -1714.777
  25246235.473    25246226.847     -244591.56904   -218202.37845        39.000
        20.000         594.765         463.454
  24584806.572    24584800.956    -2058636.63805  -1568642.27146        42.000
        26.000       -3231.289       -2517.888
  24451360.794    24451356.844    -4745007.08805  -3695218.62646        42.000
        26.000        1360.512        1060.140
  24534499.066    24534491.021    -3583963.74405  -2788353.34746        41.000
        26.000       -2959.141       -2305.824
  20411997.870    20411991.967   -23495668.58407 -18468666.10048        52.000
        48.000       -1261.318        -982.846
 14  1 10  2 23  0.0000000  0  8G31G21G25G23G12G05G02G29
  21049768.769    21049761.797   -20834408.48007 -16165721.99548        52.000
        45.000        -531.344        -414.034
  22438894.233    22438888.310   -14895838.33206 -11465272.23347        46.000
        36.000        2547.640        1985.174
  21473541.915    21473538.128   -16870427.33807 -13118649.66847        49.000
        41.000       -2211.300       -1723.091
  25242890.104    25242882.665     -262165.05804   -231896.04745        39.000
        18.000         577.176         449.748
  24603261.521    24603255.858    -1961648.83305  -1493067.36646        41.000
        23.000       -3234.562       -2520.438
  24443639.075    24443634.414    -4785590.93605  -3726842.34746        40.000
        26.000        1345.267        1048.260
  24551415.586    24551406.308    -3495069.51505  -2719085.09046        41.000
        22.000       -2966.945       -2311.905
  20419232.883    20419226.335   -23457649.62707 -18439040.94048        52.000
        47.000       -1272.990        -991.940
 14  1 10  2 23 30.0000000  0  8G31G21G25G23G12G05G02G29
  21052857.752    21052850.773   -20818176.26507 -16153073.52548        52.000
        45.000        -550.711        -429.125
  22424380.607    22424374.786   -14972109.88606 -11524704.59447        47.000
        37.000        2537.146        1976.996
  21486196.573    21486192.980   -16803926.83007 -13066831.11447        49.000
        41.000       -2222.005       -1731.433
  25239646.621    25239639.647     -279210.57103   -245178.24045        36.000
        19.000         559.460         435.943
  24621737.136    24621732.261    -1864556.92405  -1417411.38046        40.000
        23.000       -3238.055       -2523.159
  24436003.705    24435999.163    -4825712.52705  -3758105.85446        40.000
        26.000        1329.538        1036.004
  24568374.609    24568365.805    -3405941.88804  -2649634.96345        38.000
        19.000       -2974.847       -2318.062
  20426534.328    20426527.993   -23419280.57308 -18409142.97348        53.000
        47.000       -1284.822       -1001.160
 14  1 10  2 24  0.0000000  0  9G31G21G25G23G12G05G02G16G29
  21056055.792    21056048.748   -20801369.28607 -16139977.17748        52.000
        44.000        -569.773        -443.979
  22409925.463    22409919.198   -15048071.32106 -11583895.30847        46.000
        36.000        2526.848        1968.973
  21498911.610    21498908.548   -16737108.41407 -13014764.85447        50.000
        42.000       -2232.517       -1739.624
  25236504.487    25236496.100     -295729.46504   -258050.12245        39.000
        19.000         541.907         422.265
  24640233.652    24640227.678    -1767363.55705  -1341676.32646        42.000
        27.000       -3241.287       -2525.678
  24428456.717    24428452.475    -4865371.70204  -3789009.02546        39.000
        25.000        1314.192        1024.046
  24585380.093    24585370.537    -3316584.58104  -2580005.92746        39.000
        21.000       -2982.297       -2323.868
  25133271.508                     -682638.09300                          .00051
        30.000        3324.563        2590.569
  20433901.533    20433895.268   -23380564.40408 -18378974.53148        54.000
        47.000       -1296.277       -1010.086
 14  1 10  2 24 30.0000000  0  9G31G21G25G23G12G05G02G16G29
  21059363.141    21059356.201   -20783989.88408 -16126434.79748        53.000
        44.000        -589.090        -459.031
  22395529.758    22395523.276   -15123722.85307 -11642844.53547        48.000
        36.000        2516.296        1960.750
  21511687.144    21511683.455   -16669974.48107 -12962452.75947        50.000
        41.000       -2243.265       -1747.998
  25233461.702    25233452.816     -311722.79805   -270512.44545        41.000
        20.000         523.996         408.309
  24658747.627    24658741.860    -1670071.18905  -1265864.12846        40.000
        25.000       -3244.920       -2528.509
  24420997.793    24420992.650    -4904567.83605  -3819551.39246        40.000
        26.000        1298.556        1011.862
  24602427.556    24602418.722    -3227001.57305  -2510200.99746        41.000
        25.000       -2990.013       -2329.880
  25114292.766                     -782363.23100                          .00051
        31.000        3323.957        2590.096
  20441334.418    20441328.586   -23341504.23507 -18348538.03848        52.000
        47.000       -1307.957       -1019.188
 14  1 10  2 25  0.0000000  0  9G31G21G25G23G12G05G02G16G29
  21062780.196    21062773.460   -20766033.38907 -16112442.72848        52.000
        44.000        -608.049        -473.805
  22381194.109    22381187.118   -15199057.66707 -11701546.97747        48.000
        36.000        2505.940        1952.680
  21524522.911    21524519.440   -16602520.71907 -12909891.43647        49.000
        41.000       -2253.738       -1756.160
  25230517.855    25230509.504     -327185.76804   -282561.49845        38.000
        18.000         506.814         394.920
  24677281.201    24677275.811    -1572675.70605  -1189971.61846        40.000
        23.000       -3248.064       -2530.959
  24413627.708    24413623.449    -4943294.22504  -3849727.73346        39.000
        24.000        1283.079         999.802
  24619518.189    24619509.112    -3137189.97605  -2440217.95146        41.000
        23.000       -2997.371       -2335.614
  25095317.548                     -882084.40500                          .00051
        32.000        3324.270        2590.340
  20448833.580    20448827.596   -23302096.32107 -18317830.56648        52.000
        47.000       -1319.251       -1027.988
 14  1 10  2 25 30.0000000  0  9G31G21G25G23G12G05G02G16G29
  21066306.489    21066299.930   -20747502.20607 -16098002.84948        52.000
        45.000        -627.230        -488.750
  22366918.325    22366911.769   -15274076.29807 -11760003.02747        48.000
        36.000        2495.339        1944.420
  21537419.240    21537415.713   -16534749.64007 -12857082.85147        49.000
        40.000       -2264.354       -1764.432
  25227676.709    25227668.003     -342119.78005   -294198.37645        40.000
        20.000         489.035         381.066
  24695834.185    24695829.327    -1475179.85805  -1114000.89946        41.000
        24.000       -3251.444       -2533.593
  24406347.921    24406343.605    -4981550.54103  -3879537.75846        37.000
        24.000        1267.458         987.629
  24636650.606    24636641.354    -3047154.00603  -2370060.01046        36.000
        21.000       -3004.954       -2341.523
  25076340.516                     -981802.43403                          .00051
        36.000        3323.888        2590.043
  20456398.244    20456392.371   -23262343.87607 -18286854.63148        52.000
        47.000       -1330.809       -1036.994
 14  1 10  2 26  0.0000000  0  9G31G21G25G23G12G05G02G16G29
  21069941.893    21069935.721   -20728397.47908 -16083116.06048        53.000
        45.000        -646.342        -503.643
  22352703.172    22352696.882   -15348776.88206 -11818211.23747        47.000
        36.000        2484.635        1936.079
  21550375.881    21550372.593   -16466662.32907 -12804027.85047        50.000
        41.000       -2274.770       -1772.548
  25224935.628    25224926.795     -356525.08104   -305423.36745        39.000
        19.000         471.412         367.334
  24714406.335    24714400.478    -1377584.61104  -1037952.68146        39.000
        23.000       -3254.701       -2536.131
  24399157.690    24399153.563    -5019335.03904  -3908980.14046        38.000
        24.000        1251.602         975.275
  24653825.440    24653816.731    -2956896.56403  -2299729.51645        36.000
        19.000       -3012.333       -2347.273
  25057365.423                    -1081516.72202                          .00051
        34.000        3323.873        2590.031
  20464027.624    20464021.689   -23222249.00108 -18255611.87348        53.000
        47.000       -1342.167       -1045.845
 14  1 10  2 26 30.0000000  0  9G31G21G25G23G12G05G02G16G29
  21073686.633    21073679.711   -20708720.19008 -16067783.11348        53.000
        45.000        -665.362        -518.464
  22338548.663    22338542.250   -15423158.04107 -11876170.54847        48.000
        36.000        2474.115        1927.882
  21563392.534    21563388.862   -16398260.09407 -12750727.42547        48.000
        41.000       -2285.289       -1780.745
  25222294.151    25222286.325     -370402.25705   -316236.74745        40.000
        19.000         453.818         353.624
  24732996.815    24732991.016    -1279891.78805   -961828.43146        40.000
        22.000       -3258.048       -2538.738
  24392057.632    24392053.018    -5056646.49904  -3938053.89546        39.000
        23.000        1235.995         963.113
  24671042.474    24671034.829    -2866420.50604  -2229228.66546        38.000
        23.000       -3019.473       -2352.836
  25038392.099                    -1181226.86702                          .00051
        35.000        3323.808        2589.980
  20471722.606    20471716.458   -23181813.35007 -18224103.58348        52.000
        47.000       -1353.477       -1054.658
 14  1 10  2 27  0.0000000  0  9G31G21G25G23G12G05G02G16G29
  21077539.831    21077533.078   -20688470.16708 -16052003.89148        53.000
        45.000        -684.499        -533.376
  22324456.104    22324448.879   -15497217.88407 -11933879.50547        48.000
        36.000        2463.299        1919.453
  21576469.163    21576465.627   -16329543.18007 -12697181.81447        50.000
        41.000       -2295.769       -1788.911
  25219753.913    25219746.697     -383750.23405   -326637.73046        42.000
        21.000         436.136         339.846
  24751604.145    24751600.015    -1182101.77004   -885628.44146        39.000
        24.000       -3261.237       -2541.224
  24385048.138    24385043.043    -5093482.57304  -3966757.19846        39.000
        25.000        1220.003         950.652
  24688302.363    24688293.454    -2775727.53004  -2158558.88346        38.000
        23.000       -3026.706       -2358.472
  25019418.537    25019411.797    -1280931.34603   -814171.33645        37.000
        18.000        3323.338        2589.614
  20479481.856    20479475.539   -23141038.00808 -18192330.58748        53.000
        47.000       -1364.704       -1063.406
 14  1 10  2 27 30.0000000  0  9G31G21G25G23G12G05G02G16G29
  21081502.140    21081495.585   -20667647.87007 -16035778.72948        52.000
        45.000        -703.645        -548.294
  22310424.089    22310417.620   -15570954.33307 -11991336.46147        48.000
        37.000        2452.410        1910.969
  21589605.368    21589601.749   -16260512.04307 -12643391.35147        50.000
        41.000       -2306.316       -1797.129
  25217315.022    25217306.870     -396568.91104   -336626.32946        39.000
        21.000         418.284         325.936
  24770231.719    24770227.579    -1084214.82804   -809352.98646        38.000
        22.000       -3264.602       -2543.845
  24378129.575    24378123.540    -5129841.08404  -3995088.41446        39.000
        23.000        1203.938         938.134
  24705600.882    24705592.248    -2684819.69203  -2087721.67845        36.000
        20.000       -3033.889       -2364.069
  25000446.633    25000440.694    -1380628.96602   -891857.71845        35.000
        16.000        3322.942        2589.306
  20487305.924    20487299.251   -23099924.42708 -18160294.02748        53.000
        47.000       -1376.150       -1072.324
 14  1 10  2 28  0.0000000  0  9G31G21G25G23G12G05G02G16G29
  21085573.476    21085566.806   -20646253.74208 -16019107.99548        53.000
        45.000        -722.564        -563.037
  22296454.010    22296448.180   -15644365.89807 -12048540.24447        49.000
        36.000        2441.699        1902.623
  21602801.404    21602797.401   -16191167.36207 -12589356.55847        49.000
        40.000       -2316.621       -1805.159
  25214977.654    25214968.663     -408858.13606   -346202.35546        43.000
        23.000         400.952         312.430
  24788877.365    24788872.903     -986231.85304   -733002.67846        39.000
        22.000       -3267.373       -2546.005
  24371301.333    24371295.628    -5165720.22304  -4023046.09346        38.000
        22.000        1188.032         925.739
  24722941.840    24722931.296    -2593699.31405  -2016718.81545        40.000
        19.000       -3040.635       -2369.326
  24981476.061    24981470.787    -1480318.67903   -969537.97445        36.000
        17.000        3323.012        2589.360
  20495193.493    20495187.635   -23058473.36908 -18127994.50148        53.000
        47.000       -1387.198       -1080.933
